GEFSMW_500_meanwind_000.txt.gz
Wind_Speed
67 70 72 73 73 72 72 73 75 77 77 77 78 78 79 78 76 75 75 76 76 75 75 73 72 71 70 68 67 67 66 63 61 62 63 64 63 62 61 59 58 56 54
74 76 78 80 84 84 84 84 84 84 81 80 81 82 83 84 84 82 80 80 82 82 82 82 80 78 77 75 72 70 69 68 65 64 65 67 67 66 64 63 62 60 59
79 83 86 88 90 91 90 87 84 84 84 81 79 80 82 83 85 87 87 86 85 85 86 88 87 84 81 79 77 75 74 72 69 67 66 67 69 69 68 67 66 65 64
84 86 89 89 88 87 83 79 76 73 71 69 68 69 71 74 78 81 83 87 87 87 88 89 90 91 86 82 81 80 78 77 73 70 68 67 68 69 69 70 70 69 69
85 87 86 83 79 74 69 65 63 59 59 60 62 62 60 58 59 61 65 70 73 75 77 82 84 86 85 84 85 86 84 82 80 77 74 72 70 70 68 68 69 70 70
83 81 77 71 63 62 61 58 54 54 55 54 54 51 43 39 36 35 37 43 47 48 51 56 61 66 70 75 79 82 84 84 83 81 79 77 75 72 72 71 69 69 69
77 71 65 56 56 54 51 50 50 50 49 47 45 42 39 35 30 26 26 28 31 32 34 36 38 41 47 55 63 71 79 83 84 82 80 78 77 76 77 77 75 71 70
65 62 57 56 52 48 51 51 50 48 47 45 44 42 39 35 28 23 21 23 24 25 27 30 32 33 36 41 47 55 64 72 78 83 82 81 78 75 77 80 80 77 75
59 59 57 53 46 45 50 53 51 49 48 46 44 42 40 35 30 25 23 23 24 22 24 28 31 33 35 37 40 45 51 57 63 71 75 80 77 73 74 78 80 81 80
57 58 56 49 44 46 51 54 54 51 49 46 44 42 39 35 31 27 24 24 23 24 25 27 30 32 35 39 41 41 45 51 54 59 61 65 68 69 69 69 71 74 77
55 57 57 54 50 51 54 56 56 53 51 48 46 43 40 37 34 30 27 26 27 28 30 31 32 33 36 38 39 37 39 47 54 57 64 65 56 59 62 65 69 70 70
56 58 60 59 56 56 57 57 56 54 52 52 51 48 45 42 39 37 34 33 32 33 34 36 36 36 38 38 38 39 42 43 45 53 59 68 61 56 57 60 67 69 63
56 58 61 61 59 58 58 58 56 54 53 53 53 53 51 48 45 43 41 40 40 40 39 39 39 38 38 38 39 40 41 36 31 40 52 61 64 58 48 50 59 65 60
57 60 62 62 60 59 59 58 58 57 56 54 52 51 51 51 50 48 46 45 44 44 42 41 40 39 37 37 36 36 35 32 29 36 45 46 50 58 52 48 50 53 54
58 62 64 64 61 58 57 56 54 52 52 52 52 51 49 48 48 48 48 48 47 46 43 41 40 38 36 33 31 30 25 27 26 23 38 36 44 51 47 46 48 49 47
62 65 66 63 60 56 51 49 48 49 50 52 52 52 51 49 45 43 44 46 47 46 43 41 38 37 35 32 29 25 24 20 19 20 31 33 36 45 47 43 43 44 43
66 67 65 61 55 51 51 51 50 51 53 56 56 56 54 51 48 45 41 40 43 43 41 38 37 36 34 32 30 27 36 31 26 25 31 31 29 37 44 42 40 41 37
67 65 61 55 52 50 49 50 51 53 56 59 60 57 54 52 49 44 41 37 36 38 39 37 36 36 35 33 32 31 34 41 38 35 33 34 30 27 34 38 40 44 44
65 61 57 53 50 49 51 52 54 55 56 58 60 57 55 54 50 44 38 34 31 30 34 37 37 37 36 36 36 36 35 36 39 42 41 39 35 32 34 37 42 43 41
60 55 51 49 48 50 52 54 54 55 56 59 61 60 56 55 50 44 38 32 28 26 26 32 37 39 39 40 40 41 39 38 38 40 43 45 44 43 42 42 44 47 46
55 51 49 48 49 51 55 56 57 57 59 62 61 59 56 52 49 45 41 35 30 26 23 25 33 39 42 43 44 45 43 41 40 39 41 45 47 46 46 47 47 50 51
51 48 47 48 50 53 56 58 59 60 63 65 62 58 55 51 47 44 42 39 33 28 23 22 26 35 42 44 46 48 48 45 43 41 40 41 45 50 51 51 48 49 52
48 46 46 49 52 55 57 59 61 62 65 64 62 59 55 51 48 45 42 39 35 31 26 22 22 27 36 44 47 49 49 48 45 45 44 41 42 45 48 49 47 48 50
45 44 47 50 53 55 57 61 62 63 64 61 61 60 57 53 50 48 45 40 35 31 28 25 22 23 28 36 45 49 49 49 48 48 48 46 44 45 45 47 48 49 48
43 45 49 53 54 55 58 61 62 64 62 60 60 61 60 57 52 48 45 41 36 32 29 26 22 21 22 26 34 44 46 48 50 50 51 50 49 47 46 46 48 51 50
44 48 51 54 55 56 59 60 62 63 60 60 60 61 62 60 55 50 44 41 38 33 29 27 25 21 20 21 24 31 40 47 52 53 52 53 52 51 50 49 50 51 51

GEFSMW_500_meanwind_006.txt.gz
Wind_Speed
75 78 81 82 83 85 86 83 76 70 66 66 65 59 50 44 43 46 49 51 56 66 79 92 92 89 87 85 83 82 79 76 74 73 72 71 69 67 67 66 65 64 63
78 79 81 83 85 85 83 74 64 60 61 61 56 49 43 42 42 42 43 45 47 51 58 70 87 94 93 90 88 85 83 81 78 75 74 72 70 69 68 67 67 66 66
79 80 82 84 84 81 72 61 55 55 57 57 53 49 46 47 48 46 44 45 46 47 48 54 67 82 94 96 94 90 87 83 81 79 77 75 74 71 70 68 68 68 68
79 81 83 81 78 72 63 55 53 54 57 56 53 52 51 52 53 50 46 45 45 46 47 47 51 64 78 90 96 96 92 88 84 82 80 78 76 74 73 71 70 68 68
81 82 79 75 71 64 56 53 54 57 58 59 57 55 55 55 56 54 50 46 44 44 44 43 43 48 60 73 86 94 95 92 89 86 85 82 79 77 75 74 72 70 69
81 78 74 69 64 58 54 55 58 61 62 62 60 57 55 56 56 55 52 48 44 41 41 40 39 39 44 53 64 76 86 91 90 88 87 87 85 81 79 76 74 72 71
78 73 68 63 58 56 56 59 62 64 63 62 60 57 54 53 53 53 51 49 45 40 37 37 36 35 36 40 47 54 64 76 84 86 86 87 88 87 84 82 78 75 74
74 69 64 60 58 59 61 63 64 64 61 58 55 52 50 48 48 49 49 48 46 41 36 34 34 33 33 34 38 43 50 58 69 77 82 83 84 86 86 85 83 81 78
71 65 62 61 63 65 65 64 61 58 55 52 49 48 47 46 45 45 46 46 45 42 38 34 33 32 33 33 34 37 41 47 53 62 70 76 79 82 84 86 86 84 82
67 64 63 65 66 67 64 60 55 52 50 49 49 48 48 47 46 46 46 46 45 42 40 38 35 33 33 34 34 34 36 39 42 47 54 61 68 74 79 82 84 85 84
65 65 66 68 67 63 58 53 50 49 48 48 48 48 48 48 48 48 48 47 46 44 41 40 39 36 35 35 35 34 34 36 37 39 42 46 51 58 66 74 79 82 84
65 66 68 67 62 57 53 50 49 49 50 50 50 50 50 51 52 52 50 48 45 43 41 40 41 42 40 38 37 35 34 35 37 39 40 41 43 47 53 61 70 77 81
66 68 67 63 57 53 51 50 50 51 52 54 54 53 53 53 53 52 49 46 43 40 38 38 39 43 45 43 40 38 36 36 38 41 42 42 42 43 46 51 58 67 75
68 68 64 58 54 52 52 52 52 53 55 56 55 54 53 52 52 51 47 43 40 37 34 34 35 40 46 47 45 43 40 39 40 43 44 44 44 44 45 47 50 55 62
68 65 59 55 52 52 53 53 54 55 56 56 54 53 53 53 52 51 48 43 38 34 30 29 31 34 41 47 47 46 44 43 42 43 44 45 46 45 46 48 50 52 55
67 61 55 53 52 53 54 54 56 57 56 55 53 52 53 54 54 52 49 44 39 34 29 25 26 29 35 42 46 47 45 44 43 43 43 43 44 44 43 44 45 48 52
64 57 53 52 52 54 55 56 58 58 57 55 52 52 54 57 57 55 52 47 41 35 30 25 23 25 30 35 41 44 43 43 42 42 41 40 40 39 38 38 39 43 51
60 53 52 52 54 55 56 57 60 60 58 55 52 54 57 59 59 58 56 52 44 36 30 26 22 22 26 31 35 39 40 40 40 40 40 38 36 35 36 38 41 43 50
56 53 53 54 55 55 56 59 61 61 59 54 53 55 57 59 59 60 60 56 46 37 30 25 21 20 23 28 32 36 39 41 42 42 41 39 37 38 41 42 42 45 50
54 53 54 55 55 55 57 59 61 61 58 54 54 56 58 59 60 62 63 59 47 35 28 23 20 19 21 26 31 34 38 42 43 44 44 43 41 41 43 43 42 44 48
53 53 55 55 55 55 57 59 61 61 58 55 56 57 59 60 62 64 65 59 45 31 25 21 18 17 20 24 28 32 36 41 44 45 46 46 46 44 43 43 43 43 45
52 54 55 55 55 55 56 59 60 60 58 56 57 59 61 62 63 66 66 59 44 29 21 18 17 16 18 22 26 29 33 38 43 46 46 47 48 48 46 44 44 44 44
52 54 54 55 55 55 56 58 59 58 57 56 57 60 62 63 65 68 68 61 45 29 20 16 15 15 16 19 23 26 30 35 40 45 46 46 48 50 50 48 46 44 44
51 53 54 54 53 54 57 58 58 57 56 55 57 60 62 63 66 69 70 65 49 33 21 15 13 14 15 16 18 23 27 32 38 43 46 46 47 48 50 50 50 48 46
50 52 53 53 52 54 56 57 56 56 55 56 58 60 62 63 64 68 71 69 56 40 27 17 11 11 13 15 16 18 23 27 33 39 43 46 47 47 47 48 50 51 51
48 50 52 52 51 53 55 56 56 56 56 56 57 60 61 62 63 66 69 71 64 48 33 23 14 10 10 12 14 16 18 22 27 33 40 44 47 48 49 48 48 49 51

GEFSMW_500_meanwind_012.txt.gz
Wind_Speed
69 73 76 79 83 86 87 88 86 80 76 73 71 69 67 66 65 64 63 62 61 60 59 57 56 55 54 53 51 53 60 72 85 90 91 89 87 86 85 83 80 76 71
73 76 79 82 85 86 86 85 81 78 75 73 71 68 65 63 61 61 60 59 60 60 60 59 58 57 57 55 53 50 50 55 70 86 94 93 91 90 87 86 84 80 76
76 78 81 83 85 84 84 82 80 76 72 68 63 58 54 51 49 48 47 46 47 50 53 55 56 57 58 59 57 54 50 48 52 67 87 96 95 92 90 88 86 83 80
77 80 82 83 84 83 83 80 75 69 64 60 58 55 53 51 49 47 46 44 43 43 44 46 48 52 55 58 60 59 55 51 48 51 67 87 97 96 92 89 88 85 82
78 80 82 83 83 82 81 74 67 62 60 59 58 57 55 54 52 51 49 47 45 44 44 44 43 45 48 53 57 59 58 54 50 48 52 68 89 97 96 91 89 87 83
79 81 82 82 82 81 75 67 63 61 60 59 59 58 57 56 54 53 50 48 46 45 44 44 44 43 43 46 51 56 57 56 53 50 49 55 73 90 97 95 90 88 84
80 81 81 81 81 76 68 64 62 61 60 60 59 59 58 56 54 51 48 46 44 43 43 43 43 44 44 43 46 50 54 55 53 51 49 50 60 78 93 97 93 89 85
80 80 80 81 77 70 65 64 63 62 61 61 60 59 58 55 52 49 47 46 45 45 45 44 43 42 42 43 43 46 50 52 52 50 47 47 52 66 84 95 96 92 88
79 79 80 78 72 66 64 64 63 62 61 61 61 59 56 53 50 48 47 46 46 46 46 45 43 41 39 40 41 43 45 48 49 47 45 44 46 55 71 88 96 96 92
79 78 78 74 68 65 64 63 63 62 62 62 60 58 54 52 50 48 48 48 48 48 47 46 43 40 38 37 38 40 42 45 46 44 42 40 42 46 57 75 90 96 95
77 77 76 70 65 63 63 63 63 62 62 60 58 56 53 52 51 51 51 51 51 50 48 46 44 40 36 35 35 36 38 41 43 41 39 38 38 41 47 60 77 89 94
76 77 73 67 63 63 63 63 63 63 62 59 56 54 54 54 54 55 55 54 53 52 50 48 44 40 35 32 32 32 34 38 40 39 38 36 36 37 40 48 62 77 88
76 75 70 64 62 63 63 63 63 63 60 57 55 55 56 57 58 58 58 57 56 54 53 50 45 38 33 30 29 28 29 34 37 37 37 35 35 35 36 42 51 64 76
75 72 67 62 61 63 63 63 63 62 58 56 55 56 58 59 60 60 60 59 59 58 55 50 42 35 29 27 26 25 25 30 34 36 36 35 34 34 35 38 44 53 64
73 70 64 60 60 62 63 63 63 60 57 55 56 58 60 61 62 62 63 63 63 61 55 45 35 28 24 23 23 22 23 28 33 35 36 36 35 35 35 36 39 46 54
72 68 62 59 60 62 63 63 62 59 56 55 57 60 62 63 63 64 65 66 65 59 48 36 25 19 18 19 19 19 21 26 32 34 35 35 35 35 36 36 37 40 46
71 66 60 58 60 62 63 63 61 58 56 56 58 61 63 64 65 66 68 70 66 55 40 25 14 11 13 15 15 16 18 24 31 34 35 35 36 36 36 36 37 38 40
69 64 59 57 59 62 63 62 61 58 56 56 59 62 64 65 66 68 71 72 65 50 33 19 7 6 10 12 12 14 16 22 29 34 35 35 35 36 37 37 37 38 39
69 63 58 56 58 61 62 61 60 58 56 56 59 62 65 67 68 70 72 72 62 47 31 16 5 4 8 10 11 12 15 21 28 34 36 36 36 36 37 38 38 39 39
68 63 58 55 58 60 61 61 60 59 57 57 59 63 66 68 69 71 74 73 63 48 32 17 6 2 7 9 11 11 15 20 27 34 37 38 37 37 37 37 38 39 39
68 63 57 55 57 59 60 60 60 59 58 58 60 63 66 68 69 71 74 74 65 51 36 21 9 2 4 7 9 9 13 19 26 33 38 40 39 38 38 37 37 37 38
67 62 57 54 56 58 59 59 59 59 58 58 60 62 65 67 69 70 72 73 69 57 41 27 15 6 3 5 7 7 10 16 23 32 38 42 42 41 40 38 37 36 36
66 62 56 54 55 57 58 58 58 58 58 58 59 60 63 66 68 69 70 72 72 64 51 36 22 12 6 5 6 6 7 12 20 29 38 42 44 44 43 41 39 38 37
65 61 56 53 53 55 57 57 56 57 58 58 58 58 61 64 67 69 69 71 72 70 62 48 33 20 12 7 5 5 5 8 14 24 34 41 45 46 45 44 42 40 39
65 61 56 52 52 53 55 55 55 55 56 56 56 56 58 62 65 68 70 70 71 71 69 61 48 33 20 12 8 5 4 5 10 18 28 37 43 46 47 46 45 43 41
64 60 56 52 50 51 53 54 54 54 54 54 55 55 56 59 62 65 68 69 69 69 68 67 61 50 36 23 14 8 5 4 6 13 21 31 40 45 47 48 47 45 44

GEFSMW_500_meanwind_018.txt.gz
Wind_Speed
59 64 69 75 78 80 82 84 86 87 85 79 74 71 70 70 70 67 64 61 58 56 54 53 52 52 53 54 55 59 65 68 68 68 70 75 83 90 95 96 95 93 91
62 67 73 77 79 81 82 84 86 85 80 75 73 71 71 70 67 62 58 56 53 51 50 48 48 47 48 50 52 54 58 65 69 69 68 70 74 83 90 96 98 96 94
65 70 75 77 79 81 83 85 85 81 76 73 72 71 69 66 60 54 51 50 49 48 47 46 45 44 44 44 46 49 52 56 64 70 70 69 70 73 81 90 97 98 97
67 72 75 77 79 81 83 84 82 77 73 73 72 71 67 60 54 50 48 50 51 50 49 47 46 44 43 42 42 44 48 51 56 64 70 71 70 69 73 81 90 97 99
69 72 75 77 79 82 84 83 78 74 72 73 72 69 63 56 51 49 50 52 53 54 53 51 49 48 46 44 43 41 43 46 50 56 65 72 72 71 70 73 83 92 97
69 72 75 77 80 82 82 80 75 72 72 72 70 66 59 53 50 51 52 53 54 55 56 55 53 51 48 46 45 43 42 42 46 50 58 67 73 74 71 69 74 85 94
69 72 75 77 80 82 81 77 73 71 72 71 68 64 57 53 52 54 56 57 57 57 57 56 55 53 50 48 46 45 43 42 43 46 52 60 69 74 73 70 68 75 87
70 73 75 78 80 81 79 74 71 71 72 70 66 62 56 54 56 59 61 62 62 61 60 58 56 54 52 49 47 45 43 41 41 43 48 54 63 71 74 72 68 68 76
71 74 76 78 80 80 77 72 70 70 71 69 65 61 57 56 59 63 65 66 66 65 64 61 58 55 52 49 46 44 42 40 39 41 45 49 56 65 72 73 71 66 67
72 74 76 78 79 78 74 70 70 71 70 68 65 61 58 59 63 66 68 69 70 70 68 64 58 53 50 47 44 42 39 37 37 38 41 46 51 59 67 72 72 67 64
72 74 76 78 78 76 72 69 69 70 69 67 64 61 59 62 65 68 71 72 74 73 67 59 50 43 39 39 38 39 36 33 33 35 37 42 47 53 61 68 71 68 62
72 73 75 77 76 74 71 69 69 69 68 66 64 61 61 64 67 70 73 75 76 70 60 48 36 27 20 20 24 29 29 28 29 31 34 38 43 48 55 63 68 68 64
71 73 74 75 75 73 70 68 68 68 67 65 64 62 62 65 68 72 75 77 74 63 49 36 24 18 10 4 9 15 19 22 24 27 30 34 39 44 49 57 63 65 64
71 71 73 74 74 72 69 68 68 67 66 65 64 62 63 66 70 73 76 77 71 57 40 27 22 20 14 7 2 5 10 15 19 23 27 30 35 39 44 51 57 61 61
70 70 71 73 73 71 68 67 67 66 65 65 64 63 64 67 70 74 77 76 69 53 34 21 17 17 16 11 7 2 4 10 15 19 24 27 31 35 39 45 51 55 56
68 69 71 73 72 70 67 66 66 66 65 64 64 64 65 67 70 74 77 76 68 52 33 18 11 11 12 8 5 2 2 6 11 17 22 25 29 32 35 40 45 49 50
68 68 70 72 71 69 66 65 65 64 64 63 64 64 65 67 70 73 76 75 69 55 37 20 9 4 4 3 4 3 1 5 10 16 21 25 28 31 33 36 39 42 43
67 67 69 71 70 68 66 64 64 63 62 62 63 64 64 66 69 72 74 74 71 61 44 28 16 7 4 5 6 6 3 4 10 16 21 25 28 30 32 33 35 36 37
67 67 68 69 69 67 65 63 62 62 61 61 62 63 64 64 67 70 72 73 72 66 53 36 24 16 11 9 8 7 4 4 10 17 22 26 29 30 31 32 32 32 33
66 66 67 68 68 66 63 61 61 60 60 60 61 62 62 63 65 68 71 72 72 69 61 47 32 23 17 12 9 7 4 4 9 16 22 27 29 30 31 30 29 29 29
66 65 66 67 67 65 62 60 60 59 59 59 60 60 60 62 64 66 69 71 71 70 66 58 45 32 23 17 12 8 5 3 8 15 22 26 29 30 30 29 28 27 26
66 65 65 66 66 64 62 59 58 58 58 58 58 58 59 60 61 63 65 67 69 68 67 64 56 44 31 23 17 11 6 2 6 13 20 25 28 29 29 28 27 26 25
65 64 64 64 64 63 61 58 57 56 56 56 56 56 57 58 59 61 62 64 65 66 66 65 62 55 44 31 22 16 9 4 3 10 17 24 27 28 28 28 27 26 25
65 63 62 63 63 62 60 57 55 54 54 53 53 53 54 56 57 59 60 61 62 64 65 65 63 61 55 44 31 22 15 8 3 5 13 21 27 28 28 28 27 27 26
64 62 61 61 61 61 59 56 53 53 52 52 51 51 51 53 56 58 59 59 60 61 62 63 63 62 60 56 46 32 21 14 7 1 8 17 24 28 29 28 28 27 27
63 61 60 60 60 59 58 55 52 51 50 50 49 49 49 50 53 55 57 58 58 58 59 61 62 62 60 59 56 47 34 22 13 6 3 11 20 26 29 29 29 28 28

GEFSMW_500_meanwind_024.txt.gz
Wind_Speed
51 54 56 59 63 67 71 74 77 81 83 86 88 88 85 81 80 79 77 73 69 63 59 56 54 55 55 55 55 54 51 50 49 48 49 55 65 74 82 91 100 106 109
53 55 57 61 65 69 72 75 78 81 84 87 89 87 82 79 78 76 74 70 65 62 59 58 58 59 60 60 61 60 57 54 53 50 47 48 56 67 77 86 95 103 109
53 55 58 63 67 70 73 76 79 83 86 88 88 83 80 78 77 74 70 66 62 61 61 62 63 65 66 66 65 64 62 58 56 54 51 48 50 59 68 80 90 98 104
53 56 60 64 68 71 74 76 80 84 87 88 85 82 79 77 76 73 68 64 62 62 64 67 69 71 72 72 70 68 65 62 57 56 54 51 48 53 61 71 84 92 98
54 56 61 65 69 72 74 77 81 85 86 86 83 80 79 78 75 71 66 62 62 65 69 72 75 76 76 74 72 69 67 63 59 55 54 52 50 49 56 63 75 86 92
54 57 62 66 69 72 75 78 82 84 85 84 81 79 78 76 74 69 65 64 65 69 73 75 74 71 67 64 62 61 60 59 56 53 52 51 50 50 51 57 66 79 87
54 58 62 67 70 73 75 78 81 83 84 82 79 78 77 75 73 70 67 67 70 74 76 73 68 62 55 50 46 45 46 49 50 49 49 48 48 48 49 52 60 71 82
55 59 63 67 70 73 75 78 81 83 82 80 77 76 75 74 72 70 70 72 76 78 76 71 64 55 48 40 33 28 29 34 39 42 43 44 45 46 47 49 55 65 76
55 59 63 68 71 73 75 78 81 82 80 78 76 74 73 72 71 70 71 74 78 79 75 67 57 48 42 35 27 18 14 20 27 33 37 39 42 43 45 47 50 59 70
55 59 64 68 71 73 75 78 80 80 79 76 74 72 72 71 71 70 72 75 78 77 71 61 50 43 39 33 26 18 8 6 15 23 28 33 37 39 41 44 47 53 65
55 59 64 68 71 73 75 78 79 79 77 74 72 71 70 70 70 71 72 75 77 75 68 56 46 40 36 32 27 22 13 4 6 14 21 27 31 34 37 40 44 49 59
56 60 64 68 70 72 74 77 78 77 75 72 70 69 69 69 69 70 72 75 76 74 66 52 42 37 33 29 24 21 15 7 0 8 15 21 26 29 32 36 40 45 54
56 60 64 68 70 72 74 76 77 76 73 70 68 68 68 68 69 69 71 73 75 73 65 51 39 33 30 27 23 18 13 7 3 7 13 17 20 24 27 31 36 41 49
57 60 64 68 70 71 73 75 76 74 71 69 67 66 66 67 68 69 70 72 74 73 67 55 40 32 28 24 21 18 14 9 6 8 11 14 17 20 23 27 31 37 44
57 60 64 68 69 71 72 74 74 72 70 67 65 64 64 66 67 68 69 71 73 73 69 60 45 34 28 24 21 18 15 11 7 7 8 10 12 15 19 23 28 33 41
58 61 64 67 69 70 71 73 73 71 69 66 64 62 62 64 66 67 68 69 71 72 71 65 53 40 31 26 22 19 16 12 8 6 6 7 9 13 16 19 24 30 37
59 61 64 67 68 69 70 71 71 70 68 65 63 61 61 62 65 66 67 67 69 71 71 68 61 48 37 29 24 19 16 12 8 5 3 5 9 12 15 17 21 27 34
60 61 64 67 68 68 69 70 70 69 67 64 62 60 59 61 63 64 65 66 67 68 70 70 65 56 45 35 28 23 17 13 8 3 2 6 9 12 15 17 21 25 31
60 62 64 66 67 67 68 69 69 68 66 63 60 59 58 59 60 62 64 64 65 66 68 69 68 62 52 42 33 27 21 15 9 4 3 8 11 13 16 18 21 24 29
61 62 64 66 66 66 67 67 68 68 66 62 59 57 57 58 59 60 62 63 63 64 66 67 68 66 59 49 39 31 24 18 11 5 4 9 12 14 17 19 21 24 28
62 62 63 65 66 65 65 66 67 66 65 62 59 56 56 56 57 58 59 61 62 63 64 65 66 66 63 55 45 36 27 20 13 7 5 9 12 15 17 19 21 23 27
63 62 63 64 65 64 64 65 66 66 64 61 58 56 55 54 55 56 57 58 60 60 60 61 63 64 63 60 52 43 33 24 16 9 6 9 12 15 16 18 20 23 26
64 62 62 63 64 63 63 63 64 65 63 61 58 56 54 53 53 54 54 55 57 58 58 59 60 61 62 61 58 50 39 29 20 11 7 9 12 14 16 18 19 21 24
65 62 62 62 63 62 61 62 63 63 62 59 57 55 53 53 52 52 52 53 54 55 56 57 58 59 59 60 60 56 46 35 24 15 8 8 10 13 15 17 18 20 22
66 63 61 61 62 61 60 61 61 62 61 59 56 54 53 52 51 51 52 52 53 55 56 56 56 56 57 59 59 58 53 43 31 20 11 7 9 12 14 16 17 18 20
66 63 60 60 60 60 59 59 59 60 60 58 56 54 52 50 50 50 51 52 52 53 53 54 55 55 55 56 55 55 54 49 39 27 16 8 7 10 13 14 16 17 18

GEFSMW_500_meanwind_030.txt.gz
Wind_Speed
38 40 42 45 48 52 56 60 63 66 69 72 76 81 85 89 91 90 85 81 78 77 77 75 73 73 74 74 73 72 71 71 72 71 68 66 65 64 64 63 65 74 86
38 41 43 46 50 54 57 61 64 67 70 73 77 82 86 89 89 85 81 78 77 77 76 74 74 74 75 73 70 69 67 67 69 72 73 71 69 70 67 64 64 67 76
40 42 45 48 51 55 58 62 65 67 70 74 78 83 87 88 86 81 77 76 76 76 75 74 74 76 74 69 65 61 58 55 56 63 69 74 75 73 69 68 65 65 68
41 44 46 49 53 56 59 63 65 68 71 75 79 84 86 86 83 78 75 75 76 75 74 74 75 74 70 64 58 54 50 46 43 46 54 64 72 75 73 71 68 65 65
42 45 47 50 53 56 60 63 66 69 72 75 80 84 85 83 80 76 74 75 75 74 73 74 74 71 65 57 52 49 44 39 33 31 36 47 60 69 73 71 70 67 65
43 45 48 51 53 57 60 64 66 69 72 76 80 83 84 81 77 74 73 74 73 72 72 73 72 67 58 51 46 43 39 35 29 22 20 29 43 57 67 69 68 68 66
45 47 49 51 54 57 61 64 67 69 72 76 80 83 82 79 75 72 72 73 72 70 71 73 70 63 52 45 40 37 35 33 29 22 13 14 26 41 55 63 65 65 64
48 49 51 53 55 58 61 64 67 69 72 76 80 82 80 76 73 71 71 72 71 70 71 72 69 60 49 40 35 31 29 28 26 21 15 7 13 27 41 52 59 61 62
53 53 54 55 57 59 62 65 67 69 72 76 79 81 79 75 71 70 71 71 70 69 70 72 69 60 49 39 33 28 25 23 21 18 14 8 6 16 29 41 50 55 58
56 57 57 57 58 60 63 65 67 69 72 76 78 79 77 74 70 69 69 69 69 68 69 72 69 60 50 39 31 27 23 20 17 15 11 8 6 11 21 31 41 49 54
59 60 61 60 60 61 63 65 67 69 72 75 78 78 76 72 69 68 68 68 68 68 69 71 70 62 52 40 31 27 23 21 18 15 12 9 8 10 16 25 34 42 48
61 63 64 64 63 63 64 66 67 68 71 75 77 77 75 72 68 67 66 66 66 67 68 70 70 65 55 44 33 28 24 22 19 17 15 12 11 11 15 20 28 35 42
62 64 66 67 65 64 65 66 67 68 71 74 76 77 74 71 68 66 65 65 65 66 67 69 70 67 58 48 37 31 26 23 20 17 14 12 11 12 14 18 23 29 36
62 65 67 69 68 66 66 67 67 68 70 73 76 76 74 70 67 65 64 64 64 65 66 67 69 68 62 53 42 34 29 24 19 16 12 10 9 10 12 16 20 24 30
63 66 68 70 70 68 67 67 67 68 70 73 75 76 74 70 67 64 63 63 63 64 65 66 68 69 65 56 47 37 31 25 19 15 10 7 5 7 8 11 16 21 26
63 67 69 71 72 70 68 68 68 68 69 72 74 75 73 70 66 63 62 62 62 63 64 65 66 68 66 58 50 40 33 26 20 14 10 7 3 1 4 7 12 17 21
63 67 70 72 73 72 69 68 68 68 69 71 73 74 73 70 66 63 61 61 61 61 62 63 65 66 65 60 51 42 34 26 20 15 12 8 5 3 3 5 9 13 18
63 66 69 72 74 73 71 69 68 67 68 70 72 73 72 69 66 62 60 60 60 60 60 61 62 64 64 61 54 44 35 28 21 16 13 11 8 6 5 5 7 10 14
62 65 69 71 73 74 72 70 68 67 67 68 70 72 72 69 65 62 60 58 59 59 59 60 60 62 63 61 55 47 38 30 22 17 14 12 11 9 7 6 6 7 11
62 65 68 71 73 74 73 70 68 67 66 67 69 71 71 69 65 62 59 58 57 58 58 59 59 59 60 60 56 49 41 32 23 18 15 13 12 11 9 8 7 6 9
61 64 67 69 72 74 73 70 68 66 66 66 68 69 70 68 65 62 59 57 56 56 57 56 56 57 57 58 56 51 43 34 25 18 15 13 12 11 10 9 8 7 7
60 63 65 68 70 72 73 71 68 66 65 65 66 68 69 68 65 61 58 56 54 54 53 53 53 54 54 55 55 52 45 36 27 19 15 13 11 11 11 10 9 8 7
58 62 64 66 69 70 73 71 68 66 64 64 64 66 68 68 66 61 58 55 53 52 51 51 51 51 51 51 52 52 48 39 30 21 16 12 11 10 10 10 10 9 8
57 60 63 65 67 69 71 71 69 66 64 62 63 64 66 68 66 62 58 54 51 50 49 49 49 49 49 49 49 49 49 43 34 24 17 12 10 9 9 9 10 10 9
55 59 61 63 65 67 69 70 69 65 63 61 61 62 64 66 66 64 59 55 52 49 49 48 48 47 47 48 48 47 47 46 40 30 21 14 10 9 8 8 9 9 10
54 57 60 61 63 65 67 69 68 65 62 60 60 60 62 64 64 63 60 55 52 50 48 48 47 46 46 46 46 45 44 44 43 37 26 17 11 8 7 7 8 8 10

GEFSMW_500_meanwind_036.txt.gz
Wind_Speed
30 32 35 38 41 44 46 48 49 51 53 55 58 62 65 68 72 77 83 89 94 94 91 83 78 76 76 75 75 76 73 69 66 61 56 52 52 54 57 62 68 74 79
31 34 38 41 43 46 48 50 51 52 54 56 59 63 66 69 73 79 84 91 93 92 86 79 76 75 74 73 75 75 71 65 62 59 55 51 45 44 47 53 60 69 76
34 37 40 43 46 49 52 54 54 55 56 58 61 64 67 70 75 80 86 91 92 88 82 76 75 74 74 74 75 74 68 62 56 54 53 51 46 38 34 41 51 62 72
36 40 42 45 48 51 54 57 58 59 59 60 63 66 69 72 76 81 87 90 89 84 79 75 74 73 73 74 75 71 65 60 53 48 46 45 45 40 28 27 37 52 66
37 41 44 47 50 53 56 59 62 63 63 63 65 67 70 73 77 82 87 89 86 81 76 73 73 72 73 74 73 68 62 57 51 46 42 38 36 36 30 20 24 39 56
37 41 46 49 52 55 58 61 64 66 67 67 67 69 71 74 77 82 87 88 84 78 74 72 72 72 72 73 71 66 61 54 48 43 39 36 33 30 28 21 16 26 44
38 42 47 51 54 57 60 63 66 69 70 70 70 71 73 75 78 83 86 86 82 76 72 71 71 71 72 73 70 64 59 52 45 40 36 33 30 28 25 21 15 17 31
39 43 48 52 55 58 61 64 67 70 73 73 72 73 74 76 79 83 86 85 81 75 71 70 70 70 72 72 69 64 59 51 44 39 35 31 28 25 23 21 16 14 23
41 44 49 53 56 60 62 65 68 71 74 75 75 74 75 76 79 83 85 84 79 74 70 70 70 70 71 71 68 63 58 50 43 38 34 30 27 24 22 20 17 14 19
43 46 50 53 57 61 64 66 69 72 75 77 77 76 76 77 79 82 84 83 78 73 69 69 69 69 70 69 67 63 58 50 43 37 33 29 26 22 21 19 17 15 17
45 48 51 54 57 61 64 67 69 72 75 78 78 77 76 77 79 82 84 82 78 72 69 68 68 68 69 68 66 62 57 49 42 37 33 29 25 21 19 18 17 16 17
47 49 52 55 58 61 64 67 69 72 75 78 79 78 77 77 79 81 83 82 77 72 68 67 67 67 68 67 65 61 55 48 42 37 34 30 26 22 19 17 16 15 16
48 51 53 55 58 60 64 67 69 72 74 78 80 79 78 77 78 80 82 81 76 71 67 66 66 66 67 66 64 60 54 47 42 38 34 31 27 23 20 16 15 14 15
50 53 55 56 58 60 63 66 68 71 74 77 80 80 78 77 78 80 81 80 75 70 66 65 65 65 66 65 63 59 53 46 41 38 35 32 28 24 21 17 14 12 13
51 54 56 57 58 60 62 65 68 70 73 76 79 80 79 77 77 79 80 79 75 69 65 64 64 63 64 64 62 58 54 47 41 38 35 32 29 25 22 19 15 11 10
52 54 56 58 59 60 61 64 67 69 72 74 77 80 79 77 77 78 79 78 74 69 64 63 62 62 62 62 62 58 54 47 41 37 35 32 29 26 24 21 17 13 9
52 55 57 59 59 59 61 63 66 68 71 73 76 79 79 77 76 77 78 78 75 69 64 62 61 60 60 60 60 57 52 47 40 35 33 31 29 27 25 22 19 15 11
53 56 58 59 59 59 60 62 65 68 70 72 74 77 79 77 76 75 76 77 75 69 64 60 59 59 59 58 58 57 52 46 40 34 31 29 28 27 25 23 20 17 12
55 56 58 59 59 59 59 61 63 67 69 71 73 75 77 77 75 74 75 76 74 70 64 60 58 58 58 57 56 55 53 47 40 34 30 28 27 26 25 23 21 18 14
55 57 58 59 59 58 58 59 62 65 68 70 71 73 76 76 75 73 73 74 74 70 64 59 57 56 56 56 55 53 52 47 40 35 31 28 26 26 25 24 22 19 16
56 57 58 58 57 57 57 58 61 64 67 69 70 71 73 75 74 72 72 72 73 70 64 59 56 55 55 55 54 52 51 49 42 36 31 28 25 24 24 23 22 19 17
56 56 56 56 56 56 56 57 60 63 66 68 68 69 71 73 73 71 70 71 71 69 64 59 55 53 53 53 52 51 50 49 44 36 31 27 24 23 23 22 21 20 17
56 55 55 54 55 56 56 57 59 62 65 66 67 67 69 71 71 70 68 68 69 68 65 59 54 52 51 51 51 50 49 48 46 39 33 28 24 23 22 21 20 20 17
58 57 55 55 55 55 56 57 59 61 64 65 66 66 66 68 69 68 66 66 67 67 65 60 54 51 50 49 49 48 47 46 45 42 36 30 25 22 21 20 19 18 17
60 59 58 57 56 56 57 57 59 61 63 64 64 64 64 66 67 66 65 64 65 67 65 61 55 50 48 47 47 47 46 45 44 43 39 33 26 22 19 19 18 17 16
62 63 62 61 59 58 58 59 59 61 62 63 63 63 62 63 65 65 63 62 63 65 65 61 55 50 47 47 46 46 45 44 44 43 41 35 28 22 19 17 16 16 15

GEFSMW_500_meanwind_042.txt.gz
Wind_Speed
12 14 16 19 22 26 30 33 35 38 41 43 45 47 49 52 55 58 60 62 63 65 67 71 75 81 86 90 90 87 83 79 78 76 72 67 64 62 59 57 56 56 55
13 15 17 21 24 28 31 34 37 40 43 46 48 50 52 54 57 60 63 65 66 68 70 73 78 83 87 89 87 84 80 77 76 75 73 67 59 54 52 51 52 52 51
14 17 20 23 26 29 32 35 38 41 45 48 51 53 55 57 59 62 66 68 69 70 72 75 80 84 87 87 84 81 78 75 73 73 72 68 61 53 45 43 44 46 46
17 19 22 26 29 31 34 37 40 43 46 49 53 55 57 59 61 64 67 70 71 72 74 77 81 85 86 85 81 78 76 75 72 69 67 65 61 56 47 37 36 39 40
20 23 26 29 32 34 37 40 42 45 48 50 54 57 59 61 63 65 68 71 73 74 75 78 82 84 85 82 78 75 74 73 71 67 63 59 56 54 51 42 34 32 34
25 27 29 32 35 38 40 42 44 47 49 52 54 57 60 63 64 67 69 72 74 75 77 79 82 84 83 79 76 73 72 71 69 66 62 57 53 50 48 44 37 31 28
28 30 32 35 37 40 42 44 46 48 51 53 55 58 61 63 66 68 70 73 75 76 77 79 82 83 81 77 74 71 70 69 67 63 59 55 52 50 48 44 39 33 27
31 32 34 37 40 42 45 46 48 50 52 54 56 58 61 64 66 69 71 73 76 77 78 79 81 81 79 75 72 70 68 67 65 61 57 52 50 49 48 45 42 35 27
34 35 37 39 42 44 47 49 50 52 53 55 57 58 61 63 66 69 72 74 76 77 78 79 80 80 78 74 70 68 67 66 63 59 54 51 48 47 46 45 43 39 30
37 38 40 42 44 47 49 51 52 54 55 56 57 59 61 63 66 69 72 74 76 78 78 79 80 79 76 72 69 67 65 64 62 57 52 49 47 45 45 44 42 40 34
40 42 43 44 47 49 51 53 54 56 56 57 58 59 61 62 66 69 72 74 76 77 78 78 79 78 75 72 68 65 64 62 60 56 51 47 45 44 43 43 41 40 36
43 44 45 47 49 51 53 55 56 57 58 57 58 59 61 62 65 68 71 74 76 77 78 78 78 77 74 71 67 64 63 61 59 54 49 45 43 42 42 41 40 39 36
45 47 48 49 51 52 54 56 58 58 58 58 58 59 61 62 64 68 71 73 75 76 77 77 77 76 73 70 66 63 62 60 58 54 48 44 41 40 40 40 39 37 35
48 49 50 51 53 54 55 57 58 59 59 59 59 59 61 62 64 67 70 73 74 75 76 76 76 75 72 69 65 63 61 59 57 53 48 43 40 39 39 38 38 36 33
50 51 52 53 54 55 56 58 59 59 59 59 59 59 60 63 64 67 70 72 74 75 75 75 74 74 71 68 64 61 60 58 56 53 48 43 40 38 38 38 37 36 33
52 53 54 54 55 56 57 58 58 59 59 59 59 60 61 63 65 67 69 72 73 74 74 74 73 72 70 66 63 61 60 58 56 53 48 43 39 37 37 37 36 35 33
52 54 54 55 55 56 58 58 58 58 59 59 59 60 62 63 66 67 69 71 72 73 73 72 71 71 69 66 61 59 58 57 56 53 48 42 39 36 35 35 35 34 32
52 53 54 55 56 57 58 58 58 58 59 60 60 61 63 64 66 67 69 70 71 71 71 71 70 69 68 65 60 57 56 56 54 52 48 42 38 36 33 32 33 33 31
53 55 56 57 58 58 59 59 59 59 60 61 62 62 64 66 67 68 69 69 70 69 69 70 68 67 66 64 60 57 55 54 53 51 49 43 38 35 32 31 31 31 30
56 58 58 59 59 59 60 60 61 62 63 64 64 64 65 67 67 68 68 68 68 68 68 68 67 65 64 63 60 57 54 52 51 49 48 44 39 35 32 30 30 30 29
59 60 60 60 61 61 62 62 63 64 65 66 66 66 66 67 68 68 67 67 67 66 65 66 65 64 63 61 59 56 53 51 50 48 47 44 38 34 31 30 29 29 28
63 63 62 62 62 63 63 64 64 66 67 67 67 67 67 67 67 67 66 65 65 64 63 63 63 62 61 60 57 54 52 51 49 48 46 44 39 33 31 29 28 28 27
64 64 64 63 63 64 64 64 64 66 67 67 67 67 67 66 65 64 63 63 62 62 60 61 60 59 59 57 55 53 51 50 48 47 45 44 41 34 30 29 27 26 26
62 63 63 63 62 63 63 63 63 64 64 64 65 65 64 63 63 61 61 60 59 59 58 58 57 56 56 55 53 51 49 47 47 46 45 44 42 37 32 29 27 25 24
60 61 61 61 60 60 60 61 61 61 61 61 61 61 61 60 60 59 58 57 56 55 55 54 54 53 53 52 51 48 46 45 45 44 44 43 41 38 33 28 26 24 23
57 57 57 57 57 58 58 57 57 57 58 58 58 57 56 56 55 54 53 53 53 52 51 51 51 51 51 50 49 47 45 44 43 43 43 41 40 36 33 28 24 22 21

GEFSMW_500_meanwind_048.txt.gz
Wind_Speed
20 20 21 22 24 25 27 28 29 31 32 33 35 37 39 41 43 46 48 50 51 52 53 53 54 56 58 60 62 65 68 71 74 76 78 81 84 87 87 87 86 85 82
23 23 24 25 26 28 30 31 32 34 35 37 38 39 41 43 46 48 50 52 54 55 55 56 56 58 59 62 64 67 70 73 77 79 82 83 83 85 83 82 81 79 77
25 26 26 28 29 31 33 34 35 36 38 40 41 43 44 46 49 51 53 55 56 57 58 58 59 60 62 64 66 69 72 75 79 82 85 86 86 86 81 76 75 73 71
27 28 29 30 32 34 36 37 38 40 41 43 44 46 47 49 51 54 56 57 58 59 60 60 61 62 64 65 68 70 73 77 80 83 85 87 87 88 83 74 70 67 65
29 30 31 33 35 37 39 40 41 42 44 45 47 49 50 52 54 56 58 59 60 60 61 62 63 64 65 67 69 72 75 78 81 83 84 85 85 85 84 76 67 62 60
31 32 34 36 38 40 42 43 44 45 47 48 50 52 53 55 56 58 60 61 62 62 62 63 64 65 67 68 70 73 76 80 82 84 83 83 82 81 80 77 69 61 56
33 35 37 40 41 43 45 46 47 48 50 51 52 54 56 57 59 61 62 62 63 63 63 64 65 67 68 69 71 74 78 80 82 83 81 80 80 79 77 75 70 63 55
37 39 41 44 45 46 48 49 50 51 53 54 55 56 58 59 61 62 63 63 64 64 64 65 67 68 68 70 72 75 78 80 82 81 79 78 77 76 74 73 70 64 56
42 44 46 48 49 50 51 52 53 54 55 57 58 59 60 61 62 63 64 64 64 64 66 67 68 69 70 71 73 76 78 80 81 80 77 76 75 73 71 70 68 66 60
45 48 50 52 54 54 54 54 56 57 58 59 60 60 61 62 64 64 65 65 65 65 67 68 69 70 71 72 74 76 79 80 80 78 75 73 73 70 69 67 65 63 61
48 51 54 56 58 58 57 57 58 59 60 60 61 62 62 63 65 65 66 66 65 66 68 69 70 71 72 73 74 76 78 79 78 77 74 72 71 69 67 65 63 60 59
49 52 53 55 56 57 58 58 59 59 60 61 62 62 63 65 66 66 66 66 66 67 69 69 70 71 72 73 74 76 78 78 77 75 72 70 69 67 65 64 61 58 57
49 51 52 54 55 56 57 57 58 59 60 61 62 62 64 66 66 66 66 67 67 68 69 70 70 71 72 73 74 75 76 76 75 73 70 68 68 65 63 62 60 57 54
51 52 53 54 54 55 55 56 57 59 60 61 62 63 64 66 66 66 67 68 69 69 70 71 70 70 71 72 73 74 74 74 74 71 68 67 66 64 62 60 58 56 53
54 54 54 54 55 55 56 56 57 58 59 60 62 63 65 66 67 67 68 69 70 69 69 69 69 68 68 69 71 72 72 72 71 69 66 64 63 62 61 60 59 55 52
56 55 56 55 55 56 57 57 57 58 59 61 62 65 66 67 67 68 68 69 68 68 68 67 67 65 65 68 69 70 70 70 69 67 64 62 62 61 59 58 57 55 52
57 57 57 57 57 57 58 59 59 61 62 63 64 66 67 67 67 67 68 68 67 66 66 66 63 62 63 65 67 67 67 67 67 65 63 61 60 59 57 56 55 52 50
58 58 58 59 59 60 61 62 62 63 63 64 66 67 67 66 66 66 66 65 64 63 63 61 59 59 61 63 63 64 65 65 64 63 61 59 58 57 56 54 52 50 48
59 60 61 61 61 62 63 63 63 64 65 65 65 65 65 65 64 63 62 61 60 59 58 57 56 57 58 59 60 60 62 62 61 60 59 58 56 55 54 53 51 48 45
59 61 61 61 61 62 63 63 63 63 63 63 63 62 62 61 60 59 58 58 57 56 55 54 54 54 55 57 57 58 59 59 58 58 56 55 54 53 52 51 49 47 43
58 58 59 59 59 59 59 58 58 58 58 58 57 57 57 56 56 56 56 56 55 53 53 53 52 53 53 54 55 55 57 57 56 55 54 53 52 51 50 49 48 46 42
55 56 55 54 54 55 54 53 53 54 54 54 54 54 54 54 55 55 55 54 53 52 51 51 51 51 51 53 53 53 55 55 53 53 52 51 50 49 48 47 45 44 41
52 52 51 50 49 50 51 52 51 52 52 52 53 54 54 54 54 53 53 51 50 49 49 49 49 50 50 51 51 51 52 53 52 51 50 49 48 48 47 45 43 42 39
48 48 48 48 48 49 50 51 51 51 52 52 53 54 53 53 53 53 52 51 50 49 49 48 48 47 47 49 49 49 50 50 50 49 48 48 47 46 46 44 42 41 38
47 48 48 47 47 49 50 51 51 52 53 53 53 53 54 54 55 55 54 53 52 51 49 47 46 45 46 47 47 47 48 48 47 47 46 45 45 44 44 42 41 39 36
48 48 47 48 49 49 50 51 53 54 54 54 55 56 56 56 56 55 54 53 52 50 48 46 44 44 44 45 45 44 45 45 45 44 44 43 42 42 41 40 38 37 34

GEFSMW_500_meanwind_054.txt.gz
Wind_Speed
28 28 27 28 28 29 30 31 32 33 34 34 36 37 38 40 41 43 44 45 46 47 48 50 51 53 54 57 59 60 59 58 57 57 57 57 59 60 62 65 67 69 71
30 30 30 30 31 32 33 34 35 36 37 38 40 40 42 43 45 46 48 49 49 50 52 53 54 56 58 60 62 62 61 60 59 59 59 60 60 61 63 65 68 70 71
32 33 33 33 33 34 35 37 38 39 40 42 43 44 45 46 47 49 51 52 53 54 55 56 58 59 61 62 64 64 63 61 60 60 61 62 63 64 65 66 68 71 72
33 34 35 35 36 37 39 40 41 43 44 46 47 48 49 49 51 53 54 55 57 57 58 59 60 62 63 64 66 65 63 62 61 61 62 63 65 66 66 67 69 70 72
34 35 36 37 39 40 42 43 45 46 48 49 50 51 52 53 55 56 57 58 60 60 61 62 63 64 65 66 67 65 64 63 62 63 63 64 65 67 67 67 69 70 73
33 35 37 38 40 42 44 46 48 49 51 52 54 55 56 57 59 59 60 61 62 62 63 64 66 66 67 67 67 65 64 64 64 64 64 65 66 68 69 68 69 70 71
33 34 36 38 41 43 46 48 50 51 53 55 56 57 59 60 61 62 63 64 64 64 64 66 67 67 67 67 67 66 66 65 64 65 66 66 67 69 70 70 70 69 70
35 36 37 39 41 43 46 48 50 52 54 55 57 59 60 62 63 64 65 66 66 66 66 67 67 68 67 67 67 67 66 65 65 66 67 67 68 69 71 71 71 71 70
38 38 39 40 41 43 45 47 50 52 54 55 57 59 61 62 63 64 65 66 66 66 66 66 67 67 67 68 68 67 66 66 66 67 67 67 68 70 71 72 73 72 71
41 41 41 42 42 44 46 47 49 51 53 55 57 58 60 61 63 64 64 65 65 66 66 66 67 67 68 68 68 67 67 67 67 67 67 68 68 69 71 72 72 72 73
43 43 43 43 44 45 46 47 49 50 52 54 55 57 59 61 62 63 63 64 65 65 65 66 67 68 68 68 67 67 67 66 67 66 67 67 68 69 70 71 71 72 73
47 46 45 45 45 46 46 48 49 50 51 52 53 55 57 58 59 60 62 63 64 64 65 66 67 68 67 67 66 66 66 66 66 66 67 66 67 68 69 70 70 71 72
49 49 48 48 48 48 48 48 48 49 49 50 52 53 54 56 57 59 60 62 63 65 65 66 66 66 66 66 65 65 65 65 65 65 65 65 66 67 68 69 69 70 71
51 50 50 50 49 48 48 48 48 49 49 49 50 51 53 55 57 59 60 61 63 64 64 64 65 64 64 64 64 64 64 63 63 63 63 64 65 66 67 67 68 69 69
52 52 51 50 49 48 48 48 48 48 48 49 50 52 54 56 57 59 60 60 61 61 61 61 62 62 62 62 62 62 61 61 61 61 62 63 64 65 66 66 66 67 67
51 51 50 48 48 48 48 48 48 49 50 51 52 53 54 55 56 56 57 57 57 57 57 59 60 60 59 59 59 59 59 59 60 60 61 62 63 64 64 65 65 65 65
49 49 48 47 47 47 48 48 49 50 51 52 52 53 53 53 54 54 55 55 55 56 57 57 57 56 56 57 58 58 58 57 57 59 59 60 61 62 62 63 62 61 62
47 47 46 46 47 48 49 49 50 51 51 51 51 51 51 52 53 53 53 53 54 55 55 55 55 56 56 57 57 57 57 56 57 57 58 59 60 60 61 60 59 58 58
47 47 47 47 48 48 49 48 49 50 50 50 50 50 51 51 51 52 52 53 54 54 55 55 55 55 56 56 57 57 56 56 56 57 57 57 58 58 59 59 57 56 56
48 49 48 49 49 49 49 48 49 49 49 49 49 49 50 51 51 52 53 53 54 55 55 56 56 56 56 56 57 56 56 56 55 56 55 56 57 57 57 57 55 54 54
49 49 49 49 50 50 49 49 49 49 49 49 49 50 51 51 52 52 52 54 55 56 57 57 57 57 57 57 56 56 55 55 54 54 54 55 55 55 55 54 53 53 52
51 51 50 50 50 50 49 49 49 49 49 49 50 50 51 51 52 53 54 55 56 57 57 58 57 57 57 56 55 55 54 53 53 52 53 53 53 53 53 52 51 50 50
53 53 52 50 50 50 51 50 50 50 50 50 50 50 52 53 54 55 56 56 57 57 58 58 57 57 56 54 53 53 52 52 51 50 51 51 50 50 50 49 48 48 47
55 54 53 51 51 52 52 53 52 51 51 50 51 52 53 54 55 56 56 56 57 57 58 58 57 56 54 52 52 51 50 49 49 48 48 48 47 47 47 46 46 45 44
56 55 54 53 52 52 52 53 52 51 51 51 52 53 53 54 55 55 56 57 57 58 58 57 55 54 53 52 51 50 49 48 46 46 45 45 44 44 44 44 43 43 42
57 56 55 54 53 53 53 53 53 52 52 52 52 53 54 54 55 56 56 57 57 57 56 56 54 53 52 51 49 47 46 44 43 43 42 42 42 41 41 41 41 41 40

GEFSMW_500_meanwind_060.txt.gz
Wind_Speed
28 29 29 30 31 33 34 34 35 37 38 39 40 42 43 44 45 45 46 47 48 50 51 52 52 53 54 54 56 58 59 60 61 61 62 62 62 62 62 61 60 60 60
27 28 29 29 30 31 33 35 36 37 39 41 42 44 45 46 46 47 48 50 52 53 54 55 56 57 58 58 59 61 63 63 64 65 66 65 64 63 62 60 60 60 61
27 28 28 29 29 31 32 34 36 37 39 41 43 44 45 46 46 48 50 53 54 55 57 58 59 60 61 62 63 64 66 67 67 67 67 67 66 65 61 59 59 59 60
28 28 29 29 30 31 33 34 36 38 39 41 43 44 46 46 47 50 52 54 56 57 59 60 61 63 64 65 66 68 69 69 69 68 67 67 66 64 62 60 59 59 60
29 29 30 31 31 32 33 35 36 38 40 42 44 46 47 48 51 52 54 55 57 59 60 62 63 65 66 67 68 70 70 70 69 68 67 66 64 63 62 61 60 61 61
31 32 32 33 34 35 36 37 38 40 42 43 45 47 49 51 53 54 56 57 59 60 61 63 65 66 68 69 70 71 71 70 69 68 67 65 64 63 63 62 62 63 63
34 34 35 36 37 37 38 39 41 42 44 45 47 49 50 53 54 56 57 59 60 61 62 64 66 67 69 70 71 71 70 70 69 67 66 65 64 65 64 64 64 65 64
36 36 37 38 39 40 41 42 43 45 46 47 49 50 52 54 55 57 58 60 61 62 63 65 66 68 69 70 70 70 69 69 68 67 66 67 66 66 66 67 67 67 67
37 38 39 40 42 43 44 45 46 47 48 49 51 52 54 55 56 57 59 60 62 63 64 65 66 67 67 68 69 68 68 68 68 68 68 68 68 68 68 69 69 70 69
39 39 40 41 42 43 44 45 46 47 49 50 51 53 55 56 57 58 59 60 62 63 64 65 65 65 66 67 68 68 68 68 68 67 68 68 68 68 69 70 70 70 70
38 39 39 40 41 42 43 44 45 47 49 51 52 54 55 56 57 57 58 60 61 62 62 63 64 64 65 66 66 66 67 67 66 67 68 68 68 68 69 69 69 69 69
38 39 40 40 41 42 43 44 45 47 48 50 51 52 53 55 56 56 57 58 59 60 61 61 62 63 64 64 65 65 66 67 67 67 68 67 68 67 68 68 67 67 68
39 40 41 42 43 44 45 46 47 47 48 49 49 50 52 53 54 55 56 57 58 59 60 61 61 62 63 64 65 65 66 66 66 66 66 66 66 66 67 67 66 66 67
41 42 42 43 45 45 46 47 48 48 49 49 50 51 52 53 54 55 55 56 57 58 59 60 60 62 63 63 63 64 65 66 65 65 64 64 65 66 66 66 66 66 67
43 44 45 46 47 48 48 49 49 50 50 51 52 52 54 55 56 56 56 57 57 58 59 60 61 62 63 63 63 64 65 64 64 63 63 64 65 65 65 65 66 66 67
46 47 48 49 50 50 51 51 52 52 53 54 54 54 55 56 56 57 58 58 58 59 59 59 60 61 61 62 63 64 64 63 62 62 64 64 64 64 64 65 66 66 66
49 51 52 52 53 54 54 54 55 55 56 56 57 57 57 57 57 58 58 59 59 59 59 59 60 59 59 60 61 62 62 62 62 62 64 64 63 64 65 65 65 64 64
54 55 56 56 57 57 57 57 58 58 58 59 59 59 59 58 58 57 57 57 58 58 59 59 59 58 58 59 61 62 62 62 61 62 62 62 62 62 62 62 62 61 61
58 59 60 60 60 60 60 60 60 60 60 60 60 60 59 58 57 57 57 57 57 57 58 58 58 58 58 60 61 62 62 61 60 60 60 60 59 59 59 59 58 58 57
62 63 63 63 63 63 62 62 62 61 61 61 60 60 59 58 57 57 57 57 57 57 57 56 57 58 58 59 60 61 61 60 60 59 58 57 57 57 57 56 55 54 55
66 66 66 66 65 65 64 63 63 62 61 60 60 59 59 58 57 57 57 57 56 55 55 55 56 57 57 58 58 58 58 57 56 56 55 54 54 54 53 53 53 53 53
69 69 69 68 67 66 65 64 63 62 61 60 59 58 58 58 57 57 56 56 55 55 55 55 55 55 55 55 55 55 55 56 55 53 52 52 51 51 51 51 51 51 51
71 70 70 68 67 66 65 64 62 61 60 59 58 58 57 57 57 56 55 54 54 54 54 54 53 52 52 52 53 54 54 54 53 52 51 50 49 48 48 48 48 48 47
72 71 70 68 66 65 64 63 62 60 59 58 57 57 56 55 54 54 54 53 53 52 52 52 52 51 51 51 51 52 52 52 51 49 48 47 46 45 45 44 45 45 45
71 70 69 67 65 63 62 62 61 60 58 57 56 55 54 53 52 52 51 51 51 51 51 50 50 49 48 49 50 50 50 49 47 46 45 44 44 43 42 42 42 42 42
69 68 66 65 63 62 61 60 59 58 57 55 54 53 52 51 50 49 49 49 49 49 49 48 48 48 47 47 48 49 48 46 45 44 43 42 41 40 40 40 40 39 39

GEFSMW_500_meanwind_066.txt.gz
Wind_Speed
19 20 20 21 23 24 25 27 28 30 31 33 34 35 36 38 39 41 43 44 46 48 50 51 53 54 55 56 57 58 58 59 61 61 61 60 61 60 61 62 63 63 63
21 21 21 22 23 25 26 27 29 30 32 34 35 36 37 38 39 41 43 45 48 50 52 53 55 56 57 58 59 60 61 62 63 64 65 64 63 62 64 65 65 65 65
21 22 23 24 25 27 28 29 30 31 33 34 36 37 39 40 41 43 45 47 49 51 52 54 56 57 59 60 61 62 64 64 65 66 67 67 66 66 65 65 65 66 66
23 24 25 26 28 29 30 31 32 33 35 36 37 38 40 41 43 45 46 48 50 51 53 55 57 58 60 61 62 64 66 67 67 68 68 69 70 70 69 66 66 66 66
25 26 27 29 30 31 32 33 34 34 35 36 38 39 41 42 44 46 48 49 51 53 54 56 58 60 61 62 64 66 67 68 69 69 70 70 71 71 71 69 67 67 66
26 26 28 30 32 33 34 34 35 36 37 38 39 41 42 44 45 47 49 50 52 54 56 58 60 61 63 64 65 67 68 69 69 70 71 71 71 71 72 72 70 68 67
25 26 28 30 31 32 33 33 34 35 36 37 38 39 41 42 44 46 48 50 52 55 57 59 61 62 63 65 66 67 67 68 69 70 71 71 71 71 72 72 70 69 68
25 26 27 29 30 31 31 32 33 34 35 36 37 39 40 42 43 45 47 49 51 53 56 58 61 63 65 66 67 68 68 69 70 70 71 71 70 71 71 71 71 70 68
25 26 27 28 30 31 32 32 33 34 36 37 39 41 42 44 45 47 49 51 52 54 56 58 60 62 64 65 66 67 67 69 69 70 70 70 70 70 70 71 71 71 69
26 27 28 29 30 31 32 33 35 36 38 39 41 43 44 46 47 49 50 51 53 54 56 57 59 60 62 63 64 64 65 66 67 67 68 68 69 70 70 70 69 70 70
28 29 30 30 31 33 34 36 38 40 41 43 44 46 48 50 51 52 53 54 55 56 58 59 60 61 62 63 64 64 65 66 66 67 67 67 68 68 68 69 69 69 70
30 31 32 33 35 37 38 40 42 44 46 47 49 51 52 54 55 56 57 58 59 59 60 61 62 63 64 64 64 65 65 66 66 67 67 66 67 67 67 68 68 69 69
33 34 35 37 39 41 43 45 47 49 51 53 54 56 57 58 59 60 61 62 63 63 64 64 65 65 65 65 65 66 66 66 66 67 67 67 67 66 66 67 68 68 69
36 38 40 42 44 46 48 50 52 54 56 58 59 61 62 63 63 64 65 65 66 67 67 67 67 67 67 67 67 67 67 67 67 67 67 67 67 67 67 67 67 67 67
41 43 45 47 49 51 53 55 57 59 61 63 64 66 67 67 68 68 68 69 69 69 68 68 67 67 67 67 67 67 67 66 66 66 66 66 66 66 66 66 65 65 65
45 47 49 52 54 56 59 61 62 64 66 68 69 70 71 71 71 71 71 71 70 70 69 68 68 67 67 67 67 66 64 64 64 64 64 64 64 64 64 64 64 63 63
49 51 54 56 59 62 64 66 68 69 71 72 73 74 75 74 74 73 73 72 71 70 69 68 68 67 66 66 65 63 62 61 61 60 60 60 60 61 62 62 62 62 62
53 56 59 61 64 66 69 71 72 74 75 76 77 77 77 76 75 74 73 72 71 69 69 68 67 66 64 63 62 61 60 60 59 58 58 58 58 59 60 60 60 60 60
58 61 64 66 69 71 73 74 76 77 78 79 79 78 78 77 75 73 72 70 69 68 67 66 65 63 61 61 60 59 58 57 56 56 57 57 57 57 58 57 56 56 57
62 65 68 70 72 74 76 77 78 79 80 80 79 79 77 76 74 72 70 69 67 65 64 62 61 60 59 58 57 57 56 55 55 55 55 55 55 55 55 55 54 54 55
67 69 72 73 75 77 78 79 80 80 81 80 78 76 75 73 71 69 67 65 63 61 60 58 57 56 56 55 55 54 54 54 53 53 53 52 53 52 52 52 53 53 54
70 72 74 75 77 78 80 80 80 80 79 78 75 72 70 68 66 64 62 60 59 57 56 54 53 53 52 52 52 52 52 52 51 50 49 49 50 50 51 51 52 52 53
73 74 76 77 78 79 80 80 79 78 76 73 70 67 65 63 61 60 58 56 54 53 52 51 50 49 49 49 49 49 49 49 48 47 47 47 48 49 49 50 50 50 51
75 76 77 78 77 77 77 77 76 74 71 68 65 62 60 58 56 55 54 52 51 50 49 48 47 46 45 46 46 46 46 45 45 45 45 45 46 47 47 47 47 48 48
76 77 78 78 77 76 74 73 71 68 65 62 60 57 56 54 53 51 50 48 47 48 46 45 44 43 42 42 43 42 41 40 41 42 42 43 44 44 45 45 45 46 46
76 77 76 76 74 72 70 67 65 63 61 58 55 53 52 50 48 46 45 45 45 44 43 42 41 39 39 39 38 38 37 37 38 38 39 40 40 41 42 43 43 43 42

GEFSMW_500_meanwind_072.txt.gz
Wind_Speed
22 23 24 25 26 26 27 28 28 29 29 30 31 32 33 34 35 37 39 40 42 43 44 45 46 48 49 51 52 54 55 55 57 59 59 59 60 60 60 60 61 61 62
23 24 25 26 27 28 29 29 30 31 31 32 32 33 34 35 36 38 39 41 42 43 45 46 47 48 50 51 53 54 56 57 58 60 61 61 60 60 61 62 63 63 64
24 25 26 28 29 30 32 32 33 33 33 33 34 34 35 36 37 38 39 40 41 43 44 46 48 49 51 52 54 55 57 58 59 61 63 63 62 61 62 63 64 65 65
26 27 29 30 31 33 33 34 34 34 34 34 34 34 35 36 37 38 40 41 43 44 45 47 49 50 52 53 55 57 58 60 61 62 64 65 66 66 65 63 65 66 67
28 29 30 31 32 32 32 32 31 31 32 32 32 33 34 35 36 38 39 40 41 43 44 46 47 49 51 53 55 57 59 61 63 64 66 67 68 69 70 67 66 67 68
29 30 30 31 31 31 30 30 30 30 31 32 32 33 34 35 36 37 38 40 41 43 45 47 49 50 52 54 56 58 60 61 63 65 67 68 69 70 72 72 70 70 69
30 30 30 31 30 30 30 30 31 31 31 32 33 33 35 36 37 38 40 42 44 46 48 50 51 53 55 57 58 60 61 63 65 66 68 69 71 72 74 74 73 72 71
29 30 30 30 30 30 30 30 31 31 32 32 33 35 36 38 40 42 44 45 47 49 51 54 55 57 59 61 62 64 65 66 67 68 70 71 72 73 74 75 76 75 73
29 29 30 30 31 31 31 32 32 33 33 35 36 38 40 42 44 46 48 50 52 54 56 59 61 62 64 65 67 68 69 70 71 72 73 73 74 75 76 76 77 77 75
30 30 31 32 32 32 33 34 35 36 38 39 41 43 45 47 49 52 54 56 58 60 62 64 66 68 69 71 72 73 74 75 75 76 76 76 76 77 78 78 78 79 78
32 32 33 34 34 35 36 37 39 40 42 44 46 48 51 53 55 58 60 62 64 66 68 70 72 73 75 76 77 78 78 79 79 79 79 79 79 80 79 79 79 79 78
34 35 35 36 37 38 39 41 42 44 47 49 51 53 56 58 61 63 65 68 70 72 74 76 77 78 79 80 81 82 82 82 82 81 82 81 82 81 81 80 79 78 78
36 37 38 39 40 41 43 45 47 49 51 54 56 59 61 64 66 68 71 73 75 77 79 80 81 82 83 84 84 85 85 84 84 83 83 82 82 81 80 79 78 77 77
38 40 40 42 43 45 47 49 51 54 56 59 61 64 67 69 71 74 76 78 80 81 82 83 84 85 86 86 86 86 86 85 84 83 82 81 80 79 78 77 75 74 73
41 42 43 45 47 49 51 53 56 58 61 64 66 69 71 73 76 78 80 81 82 84 85 86 86 86 86 85 85 84 83 82 80 78 77 76 74 73 72 71 70 69 69
43 45 46 48 50 53 55 57 60 63 65 68 70 73 75 78 79 81 82 83 85 85 86 86 86 85 84 83 81 80 77 75 72 70 69 68 67 67 67 67 66 66 65
45 47 49 51 54 56 59 61 64 67 70 72 75 77 79 81 82 84 85 85 86 86 85 84 83 81 79 76 73 71 69 67 65 63 62 62 61 62 62 62 62 61 61
48 50 52 54 57 60 62 65 68 71 74 76 78 80 82 83 85 85 86 86 86 85 83 80 77 74 70 67 65 63 61 59 57 56 56 55 55 55 56 56 56 56 57
51 53 55 58 60 63 66 69 72 75 77 79 81 82 84 85 86 86 86 85 84 81 77 73 70 66 62 60 58 57 56 53 51 50 50 50 50 50 51 51 52 52 52
54 56 58 61 64 67 70 73 75 78 80 81 82 84 85 86 86 85 84 82 79 75 70 65 62 59 56 54 53 53 51 48 46 45 46 47 47 46 47 47 47 47 48
57 59 62 65 68 71 74 76 78 80 81 83 84 85 85 85 84 82 79 76 72 67 63 59 56 54 51 50 49 48 46 44 43 42 42 42 43 43 43 43 43 43 44
60 63 65 68 71 74 76 78 80 81 83 84 84 84 83 81 79 76 72 68 65 60 56 54 50 48 47 46 45 43 42 42 41 39 38 38 38 38 38 39 40 40 41
63 66 68 71 73 76 78 80 81 83 83 83 82 81 79 75 72 69 65 61 58 55 52 49 46 44 43 42 41 40 39 39 38 37 36 35 35 36 36 37 37 38 39
66 69 71 73 74 76 78 81 82 83 83 82 79 77 73 69 65 62 59 56 54 51 49 45 43 41 39 38 38 38 37 36 36 35 35 34 34 34 34 35 36 37 38
69 71 73 74 76 78 79 81 82 82 81 78 75 71 67 64 60 56 54 52 50 49 46 44 42 40 37 36 37 36 34 34 34 33 33 33 33 33 34 35 36 37 38
71 72 74 76 77 79 80 80 81 79 77 73 69 65 62 58 55 52 49 47 47 45 44 43 42 40 39 37 35 34 33 33 33 33 32 32 33 33 33 34 35 37 38

GEFSMW_500_meanwind_078.txt.gz
Wind_Speed
19 19 19 20 20 21 22 23 25 26 27 28 29 30 31 32 33 33 34 35 35 36 36 37 38 39 40 41 43 44 45 46 48 49 50 51 52 53 53 55 56 57 58
20 20 21 22 23 24 25 26 27 28 29 30 31 32 32 32 33 33 33 34 34 34 35 36 37 38 39 41 43 44 45 46 48 49 51 51 51 52 53 55 57 58 59
21 22 23 24 25 26 27 28 29 30 30 31 31 31 30 30 31 31 32 32 33 34 35 36 38 39 40 41 43 45 46 47 49 51 53 54 54 54 54 55 57 59 61
22 23 25 26 27 28 29 30 30 31 31 30 30 30 30 30 31 31 32 33 34 35 36 37 38 40 41 43 45 47 48 50 52 54 55 57 59 60 58 58 58 60 62
24 25 26 27 28 29 30 30 31 31 30 30 30 30 30 31 32 33 33 34 35 37 38 39 41 43 45 46 48 51 53 54 56 58 60 61 64 65 67 65 65 65 65
25 26 27 28 29 30 30 30 30 30 30 30 30 31 31 32 33 34 35 36 37 39 41 43 44 46 48 51 53 55 57 60 62 64 66 68 69 70 72 73 72 72 72
27 28 28 29 30 30 30 30 31 31 31 31 31 32 33 34 34 35 37 38 40 42 44 46 48 51 54 56 58 61 63 65 67 69 71 73 75 76 78 79 79 80 79
28 29 30 30 30 30 31 31 32 32 32 32 33 34 35 36 38 39 41 43 44 47 49 51 54 56 59 61 64 66 68 70 73 74 76 78 80 81 83 84 85 86 85
30 31 31 31 31 32 32 33 33 33 34 35 36 37 38 40 41 43 45 47 49 51 54 56 59 62 64 67 69 71 73 76 77 79 81 83 84 85 87 88 89 91 91
32 32 33 33 33 34 34 35 35 36 36 37 39 40 41 43 45 47 49 51 54 56 59 62 64 66 69 72 74 76 78 80 81 83 84 85 87 88 89 91 92 93 95
33 34 35 35 36 36 36 37 37 38 39 40 42 43 45 46 49 51 53 56 58 61 64 66 69 71 74 77 79 80 82 83 84 86 87 88 89 90 90 91 92 93 93
35 36 37 37 38 38 38 38 39 40 41 43 45 46 48 50 52 55 58 60 63 66 68 71 73 76 78 80 82 83 85 86 87 88 88 88 89 89 88 88 88 87 87
38 38 39 39 39 39 39 40 41 42 44 46 47 49 52 54 56 59 62 65 67 70 73 76 78 80 82 83 85 86 87 88 88 87 87 86 85 83 81 80 79 77 76
39 39 40 40 40 40 41 42 43 45 47 49 51 53 55 58 60 63 66 69 72 75 77 79 81 83 84 86 87 88 87 87 86 85 83 81 78 75 73 71 69 68 67
40 40 40 41 41 42 43 44 46 48 50 52 54 56 59 62 65 67 70 73 76 78 80 82 83 85 86 87 87 86 85 83 81 78 75 72 69 66 64 63 61 61 62
41 41 42 42 43 44 45 47 49 50 53 55 57 60 63 66 68 71 74 76 79 81 82 84 85 86 86 85 84 83 81 78 74 70 66 62 60 58 57 57 57 57 56
42 42 42 43 44 46 47 49 51 53 55 58 60 63 66 69 72 74 77 79 81 82 83 85 85 84 83 81 79 77 74 70 66 61 57 55 53 52 52 52 53 52 52
42 43 44 45 46 48 49 51 53 56 58 61 64 67 70 72 75 77 79 81 82 83 84 84 83 81 78 76 73 70 66 62 57 54 52 49 48 48 48 48 48 47 47
42 44 45 46 48 50 51 53 56 59 61 64 66 69 72 75 77 79 81 82 83 83 83 81 79 76 73 70 67 63 59 54 51 48 46 45 44 44 45 45 43 42 42
43 44 46 48 50 52 54 56 59 61 64 66 69 72 75 77 79 80 82 82 83 82 80 77 75 71 67 64 61 58 53 50 47 45 44 43 42 42 43 42 41 40 39
44 45 47 49 52 54 56 59 61 64 66 69 71 74 76 78 80 81 82 82 82 80 77 74 70 66 63 59 56 52 49 46 44 42 41 41 41 41 41 40 39 37 36
46 47 49 51 54 56 59 61 64 66 69 71 73 75 77 79 80 81 81 81 79 76 72 68 64 61 58 54 51 48 47 45 44 42 40 39 39 39 38 38 37 37 36
47 49 51 53 56 59 62 64 66 69 71 72 74 76 77 79 80 81 80 78 75 72 68 63 59 56 52 49 47 46 44 44 43 41 39 38 37 37 36 36 36 36 35
49 51 53 56 58 61 64 66 69 71 73 74 75 77 78 79 79 79 77 74 70 66 63 59 55 51 47 45 44 43 42 41 40 39 37 36 36 36 36 35 35 35 35
51 54 56 58 61 63 66 68 71 72 73 75 77 78 79 79 78 76 73 69 65 62 59 55 52 48 44 42 42 40 39 38 37 36 35 35 35 35 35 34 33 33 34
54 56 59 61 63 66 68 70 72 73 75 77 78 79 79 78 76 72 67 63 60 57 54 52 49 46 43 41 40 38 38 37 36 35 34 33 33 33 32 32 32 32 33

GEFSMW_500_meanwind_084.txt.gz
Wind_Speed
20 20 20 20 20 21 21 22 22 23 24 26 27 28 28 29 30 30 31 31 32 32 32 32 32 33 33 34 35 36 36 37 39 40 40 40 41 43 44 45 46 47 49
20 20 20 20 21 21 22 23 23 24 26 26 27 28 29 29 30 30 31 31 31 31 31 32 32 33 34 35 36 38 38 39 41 42 43 42 42 44 46 47 48 49 51
20 20 20 21 22 22 23 23 24 26 27 27 28 29 29 30 30 30 31 31 31 31 32 33 34 35 36 37 38 40 41 42 43 45 47 48 47 47 47 50 52 53 54
21 21 21 22 23 23 24 25 26 27 28 29 30 30 30 31 31 31 31 32 32 33 34 35 36 37 38 39 41 42 43 45 46 48 50 52 53 54 53 52 54 57 59
22 22 22 23 23 24 25 26 28 29 30 30 31 32 32 32 32 33 33 34 34 35 36 37 38 39 40 42 44 45 47 49 50 52 54 56 58 60 62 61 60 61 63
23 23 23 24 24 25 27 28 29 31 31 32 33 33 34 34 34 34 35 36 36 37 38 39 41 42 44 45 47 49 51 53 55 57 58 61 62 64 67 69 68 69 69
23 24 24 25 26 27 28 30 31 32 33 34 34 35 36 36 37 37 38 38 39 40 41 42 44 46 48 49 51 53 55 57 59 61 63 65 67 70 72 74 75 76 75
25 25 26 26 27 29 30 32 33 34 35 36 36 37 38 38 39 40 41 41 42 43 44 46 47 49 51 53 55 56 58 61 63 65 67 69 71 74 76 79 81 82 81
26 27 27 28 29 31 32 34 35 36 37 38 39 39 40 40 41 41 42 43 44 46 47 49 50 52 54 56 58 60 62 65 67 69 71 73 75 78 79 81 84 86 87
27 29 30 31 32 33 35 37 38 38 39 40 41 41 41 42 42 42 44 45 46 48 50 51 53 55 57 59 61 63 66 68 70 72 75 77 78 80 82 84 86 87 89
29 30 32 33 35 37 38 39 40 40 41 42 42 42 42 42 43 44 46 47 49 51 52 54 56 58 60 62 65 67 70 72 74 76 78 79 81 82 84 85 85 86 86
32 33 34 36 38 39 40 41 42 42 43 43 43 43 44 44 46 47 48 49 51 53 55 56 59 61 63 66 68 70 72 75 76 78 80 81 82 83 83 83 83 82 82
34 36 37 39 40 41 42 43 43 44 44 44 45 45 46 47 48 49 51 52 54 55 57 59 62 64 66 69 71 73 75 77 78 80 81 82 83 82 81 80 79 78 78
36 38 39 41 42 43 43 44 45 45 46 46 46 47 48 49 50 52 53 55 56 58 60 62 65 67 69 72 74 76 77 78 79 80 81 82 82 80 79 77 75 73 71
38 40 41 42 43 44 45 45 46 46 47 47 48 49 50 51 52 54 55 57 59 61 63 65 67 70 72 75 76 78 78 79 80 80 81 80 79 77 74 72 69 67 65
41 42 43 44 45 45 46 46 47 47 47 48 49 50 51 53 54 56 57 59 61 64 66 68 70 72 74 76 78 79 80 80 81 80 79 76 74 71 69 67 64 62 59
43 44 44 45 46 46 46 46 47 47 48 49 50 51 53 55 56 58 60 62 64 66 68 71 73 75 76 78 79 80 81 81 81 79 75 72 69 66 64 61 58 55 53
44 44 45 45 45 46 46 47 47 48 49 50 51 53 55 57 58 60 63 65 67 69 71 73 75 76 77 79 80 81 81 80 78 74 71 68 64 62 59 56 53 50 48
44 44 44 45 45 46 46 47 48 49 50 52 54 55 57 59 61 63 65 67 69 71 73 75 77 77 78 80 80 81 80 77 73 69 66 63 59 56 54 52 49 46 45
43 44 44 45 46 46 47 48 49 50 52 53 55 57 59 61 63 66 68 70 72 73 75 76 78 79 79 80 80 80 78 73 69 64 60 57 55 52 50 48 46 44 42
43 44 44 45 46 47 48 49 50 52 54 55 57 59 61 64 66 68 70 72 74 75 77 78 79 80 80 80 78 76 73 69 64 59 55 52 49 47 46 45 43 42 41
44 44 45 45 46 48 49 50 52 54 56 57 59 61 64 66 68 70 72 74 76 77 79 80 79 79 79 77 75 71 67 63 58 54 50 47 45 44 43 42 42 41 40
44 45 45 46 47 49 50 52 54 56 57 59 61 63 66 68 70 72 74 76 78 80 80 81 80 78 76 73 69 65 60 56 53 49 46 44 43 42 41 41 40 40 39
45 46 46 47 49 50 52 54 56 58 59 61 63 66 68 70 72 74 76 78 80 81 81 81 79 76 72 67 62 57 53 49 47 45 43 42 41 41 40 39 39 38 36
46 47 48 49 50 52 54 56 58 59 61 64 66 68 71 73 75 76 78 80 81 82 81 79 76 72 66 60 55 51 48 45 43 42 40 39 38 37 37 37 36 35 35
47 47 49 50 52 54 55 57 60 62 64 66 69 71 73 75 78 79 79 80 80 79 77 74 70 65 60 53 49 46 44 42 41 40 39 37 36 36 35 34 33 33 33

GEFSMW_500_meanwind_090.txt.gz
Wind_Speed
27 26 25 24 24 24 24 24 24 25 25 26 26 27 28 28 29 30 31 31 32 32 33 33 33 34 34 34 34 34 35 36 36 36 37 37 38 40 41 42 43 44 45
27 26 25 25 25 25 24 24 25 25 26 26 27 28 28 29 30 31 32 32 33 33 34 34 34 34 34 35 35 36 37 38 39 40 40 39 39 41 42 43 45 46 47
27 26 25 25 25 24 24 25 25 26 26 27 28 29 29 30 31 32 33 33 34 34 35 35 36 36 37 37 38 39 40 40 42 43 43 43 42 42 43 45 47 49 50
28 26 25 25 25 25 25 25 26 26 27 27 29 29 30 31 33 34 34 35 35 36 37 37 38 38 39 40 41 42 43 43 44 45 47 48 48 48 46 46 48 50 52
27 26 25 25 25 25 26 26 27 27 28 29 30 31 32 33 34 35 36 37 37 38 39 39 40 41 42 42 43 44 45 46 46 47 49 50 52 54 54 52 52 53 55
26 26 25 26 26 26 27 27 28 29 30 30 31 32 33 35 36 37 38 39 40 40 41 42 42 43 44 44 45 46 47 48 49 50 52 53 55 57 59 60 59 59 59
27 26 26 26 27 27 28 29 29 30 31 32 33 34 35 37 38 39 40 40 41 42 43 43 44 44 45 46 47 48 49 50 52 53 54 56 58 60 62 64 65 65 65
27 26 26 27 27 28 29 30 30 31 32 34 35 36 38 39 40 41 42 42 43 44 44 45 45 46 46 48 49 50 52 53 54 55 57 58 60 63 65 68 70 70 69
26 26 26 27 28 29 30 30 31 33 34 36 37 38 40 41 42 43 44 45 45 45 45 46 47 48 49 50 51 52 53 55 56 57 59 61 63 65 67 70 72 75 75
26 26 27 28 29 30 31 32 33 35 37 38 40 41 42 43 44 45 46 46 47 47 47 48 49 50 51 52 53 54 55 56 58 60 62 63 66 68 70 72 74 76 79
26 27 28 29 30 31 33 34 36 37 39 40 42 43 44 45 46 47 47 47 48 49 49 50 50 51 52 54 55 56 57 59 61 62 64 66 68 70 72 74 75 77 78
27 28 29 30 32 33 35 36 38 39 41 42 44 45 46 47 47 48 48 49 49 50 50 51 52 53 54 55 57 58 59 61 63 64 66 68 70 72 74 75 76 77 79
28 29 30 32 33 35 36 38 39 41 43 44 46 47 47 48 49 49 50 50 50 51 52 53 54 55 56 57 59 60 62 63 65 67 69 70 72 74 75 76 77 79 81
31 32 32 33 35 37 38 40 42 43 45 46 47 48 49 49 50 50 50 51 52 52 53 54 56 57 58 59 61 62 64 65 67 69 71 72 74 75 76 77 79 81 82
33 34 34 35 37 39 40 42 44 45 46 47 48 49 49 50 50 51 51 52 53 54 55 56 57 59 60 62 63 65 66 67 69 70 72 74 75 77 78 80 81 82 83
35 36 37 38 39 40 42 44 45 46 47 48 49 49 50 51 51 52 53 54 55 56 57 58 59 61 62 64 65 67 68 70 71 73 74 76 77 79 81 82 83 83 82
37 37 38 40 41 43 44 45 46 47 48 48 49 50 51 51 52 53 54 55 56 57 58 60 61 62 64 66 67 69 71 72 74 76 77 78 80 82 82 82 81 80 78
38 39 41 42 43 44 45 46 46 47 48 49 50 50 51 52 53 54 55 56 57 58 60 61 62 64 66 68 70 72 73 75 77 79 80 82 82 82 82 80 78 74 70
39 41 42 43 44 45 45 46 47 47 48 49 50 51 52 53 54 55 56 57 58 59 61 62 64 66 68 71 73 75 77 78 80 81 83 83 82 81 79 76 72 66 62
40 41 42 43 44 45 45 46 47 47 48 49 50 51 52 53 55 56 57 58 60 61 63 64 67 69 71 74 77 80 81 82 83 83 82 82 79 76 72 68 63 58 54
41 42 43 44 44 45 45 46 47 48 48 49 50 51 53 54 56 57 58 60 62 63 65 67 69 72 76 79 81 84 85 85 84 82 80 76 73 68 64 60 56 52 49
41 42 43 44 44 45 45 46 47 48 49 50 51 52 54 56 57 58 60 62 64 66 68 71 73 76 80 83 84 86 86 85 83 79 74 70 65 60 56 53 50 48 45
41 42 43 43 44 45 45 46 48 49 50 51 52 54 55 57 58 60 62 64 67 70 72 75 78 80 83 85 86 86 84 82 78 73 68 62 57 53 50 48 46 44 42
41 41 42 43 43 45 46 47 49 50 51 52 53 55 56 58 60 62 65 68 71 74 78 81 83 84 85 86 85 83 80 76 71 66 61 55 51 48 46 43 42 41 40
41 42 42 43 44 45 47 49 50 51 52 53 55 56 58 60 62 65 68 72 75 80 83 85 87 88 87 85 83 80 75 70 65 59 53 49 45 43 41 40 39 38 37
41 42 43 44 45 47 48 50 51 52 53 54 56 58 60 63 66 69 72 76 80 83 86 87 88 88 86 83 78 74 69 63 57 53 47 43 41 39 38 37 36 35 35

GEFSMW_500_meanwind_096.txt.gz
Wind_Speed
36 36 35 34 33 33 33 32 32 31 31 31 31 31 31 31 30 30 31 32 32 33 33 34 35 36 36 37 38 38 39 39 39 39 39 39 40 41 42 43 44 44 45
38 37 36 36 35 34 34 33 32 32 32 32 32 31 31 31 31 32 32 33 34 35 35 36 37 38 38 39 39 40 40 41 41 41 40 40 41 43 43 45 46 47 47
38 38 37 36 36 35 34 34 34 33 33 32 32 32 32 32 32 33 34 35 35 36 37 38 39 40 41 41 42 42 42 43 44 44 44 43 42 43 43 45 47 48 49
38 38 38 37 36 35 35 35 34 34 34 33 33 33 33 33 34 34 35 36 37 37 38 40 41 42 43 43 44 44 44 45 45 46 47 47 46 46 44 45 47 49 50
38 38 38 37 36 36 35 35 35 35 35 34 34 34 34 35 35 36 36 37 38 39 41 42 43 43 44 45 46 46 47 47 47 47 48 49 49 50 49 47 47 49 51
36 36 37 36 36 36 35 35 36 36 36 36 35 35 36 36 37 37 38 39 40 42 43 44 45 45 46 47 47 48 48 48 48 49 49 50 50 52 53 52 51 51 51
35 35 35 35 35 35 35 36 36 36 36 36 37 37 37 38 38 39 40 41 42 44 45 46 47 47 48 49 49 49 49 50 50 50 51 52 53 54 55 56 56 55 54
35 35 34 34 34 35 35 36 36 37 37 37 38 38 38 39 40 41 42 43 44 46 47 48 48 49 50 50 50 50 51 51 51 52 52 53 54 56 57 58 60 60 58
34 34 33 33 34 35 35 36 36 37 37 38 38 39 40 41 42 43 44 45 46 47 48 49 50 51 51 51 51 51 52 52 53 53 54 54 56 57 59 60 62 63 63
33 32 32 32 33 34 35 35 36 37 37 38 39 40 41 42 43 44 45 46 48 49 49 51 52 52 52 52 52 52 52 53 54 54 55 56 57 58 60 61 63 65 66
31 32 32 32 32 33 34 35 36 36 37 39 40 41 42 44 45 46 47 48 49 50 51 52 52 52 52 52 52 53 53 54 55 56 57 58 59 60 61 63 64 65 67
31 32 32 32 32 33 34 35 36 37 38 40 41 42 44 45 46 47 48 49 51 52 52 52 52 52 53 53 53 54 55 56 56 57 58 59 60 61 62 63 65 66 69
32 32 32 32 33 33 34 36 37 38 40 41 42 44 45 46 47 48 49 51 52 52 53 53 53 53 53 54 55 55 56 57 57 58 59 60 61 62 63 65 67 69 71
33 33 33 33 34 35 36 37 38 40 41 42 43 44 46 47 48 49 50 51 52 53 53 53 53 54 54 55 56 56 57 57 58 59 60 61 62 64 66 68 70 72 74
34 34 35 35 36 36 37 38 39 40 41 42 44 45 46 48 49 50 51 52 52 53 53 53 54 55 55 56 57 57 57 58 59 60 61 63 65 67 69 72 74 76 79
34 35 36 36 36 37 38 39 40 41 42 43 44 46 47 49 50 50 51 52 52 52 53 53 54 55 56 57 58 59 59 60 61 62 64 66 69 71 73 76 78 81 83
34 35 36 37 37 37 38 39 40 42 43 44 45 47 48 49 50 50 51 51 52 52 53 55 56 56 57 58 59 60 61 63 64 66 68 70 73 75 78 80 82 83 85
34 35 35 36 37 37 38 40 41 42 43 44 46 47 49 49 49 50 50 51 53 54 55 55 56 57 59 60 62 63 64 66 67 70 72 75 77 80 83 84 85 84 83
34 34 35 36 37 38 39 40 41 43 44 46 47 47 48 48 49 50 51 53 54 54 55 56 58 59 60 62 64 66 67 69 71 73 76 80 82 84 87 87 86 83 79
34 35 36 37 38 38 40 41 42 43 45 46 46 47 47 48 49 51 52 53 55 56 57 58 60 61 63 65 67 70 72 74 75 78 81 84 87 87 87 86 83 79 74
35 36 37 38 39 40 41 42 43 44 45 46 46 47 48 49 50 52 53 55 56 57 59 60 61 63 66 68 71 74 77 79 81 83 84 86 87 86 83 81 78 74 70
35 36 37 38 40 41 42 42 43 44 45 46 46 47 49 50 51 53 55 56 58 59 60 62 63 66 69 71 74 77 81 83 85 86 86 86 84 81 78 75 72 68 63
36 37 37 39 40 41 42 43 43 44 45 46 47 48 50 51 53 55 56 58 60 61 63 65 67 69 72 75 78 81 83 85 87 87 86 83 79 76 72 68 64 60 55
36 37 38 39 40 41 41 42 43 44 45 47 48 49 51 53 55 56 58 60 62 64 66 69 72 74 76 78 81 83 84 86 86 85 81 76 72 68 63 59 55 51 47
37 38 39 40 40 40 41 42 44 45 47 48 49 51 53 54 56 58 60 62 64 68 71 73 76 78 80 81 84 85 86 86 84 80 74 69 64 59 54 51 47 44 41
38 38 39 40 41 41 42 44 45 46 48 49 51 53 55 57 59 60 62 65 68 71 74 77 80 82 83 84 85 85 84 82 78 73 67 62 57 53 48 44 41 38 36

GEFSMW_500_meanwind_102.txt.gz
Wind_Speed
39 39 38 37 37 36 36 36 36 36 36 36 35 35 34 34 33 33 34 34 34 34 33 33 33 33 33 34 34 35 36 37 37 38 39 40 41 42 42 43 43 43 44
41 41 40 39 38 38 37 37 37 37 37 37 36 36 35 35 34 34 34 34 34 34 34 34 34 34 34 35 36 37 38 38 39 40 40 41 42 43 44 44 45 46 46
41 41 41 41 40 39 38 38 37 37 37 36 36 36 35 35 35 35 35 35 34 34 34 35 35 36 36 37 38 39 40 40 41 42 42 42 43 43 44 45 47 47 48
42 42 42 42 41 41 40 38 38 37 37 37 36 36 36 36 36 36 36 35 35 35 35 36 37 37 38 39 40 41 42 43 43 43 44 45 45 45 44 45 47 48 48
41 41 41 41 41 40 39 39 38 37 37 36 36 36 37 37 36 35 35 36 36 36 36 37 38 38 39 41 42 43 44 44 45 45 46 46 47 47 47 45 46 47 48
40 40 40 40 40 39 38 37 37 37 36 36 36 36 36 36 35 35 35 36 36 37 38 38 39 40 41 43 44 44 45 46 47 47 48 48 48 49 49 48 47 47 48
39 39 39 39 38 37 37 37 36 36 36 36 36 36 36 36 36 36 36 37 37 38 39 40 41 42 43 44 45 46 47 48 48 49 49 49 49 50 50 50 49 48 48
38 38 38 37 37 37 36 36 36 35 35 35 35 35 35 36 36 36 37 38 39 39 40 41 42 43 44 45 46 47 48 49 49 49 50 50 50 50 51 51 51 51 50
35 35 36 35 35 35 35 35 35 34 34 35 35 34 35 35 36 37 39 39 40 40 41 42 43 44 46 47 48 49 49 49 50 50 50 51 51 51 52 52 53 53 53
32 33 34 34 34 33 33 34 34 34 34 34 34 35 35 36 37 38 39 40 40 41 42 44 45 46 47 48 48 49 50 50 50 51 51 52 52 52 53 53 54 55 56
30 30 31 32 32 32 32 33 33 33 33 33 34 34 35 37 38 38 39 40 41 42 44 45 46 47 48 49 49 50 50 50 51 51 52 52 52 53 54 54 55 56 58
29 29 29 29 30 30 31 31 32 32 33 34 35 36 36 37 37 38 39 41 43 44 45 46 47 47 48 49 50 50 50 51 51 52 52 52 53 54 55 56 57 58 60
29 29 28 29 29 30 31 31 32 33 33 34 34 35 36 37 38 40 42 43 44 45 45 46 47 48 49 50 50 51 51 51 52 52 53 54 55 55 56 58 59 61 62
28 28 29 29 30 30 31 32 32 33 34 34 35 35 37 39 40 41 42 43 44 44 45 47 48 49 50 50 51 51 51 52 52 53 54 55 56 57 59 60 62 64 65
27 28 29 30 30 31 32 32 33 34 34 35 35 36 38 39 40 41 42 43 44 45 46 47 49 49 50 51 51 52 52 53 54 55 56 57 58 60 62 63 65 67 69
27 28 29 29 30 30 31 32 33 34 34 35 36 37 39 40 41 42 42 43 44 45 47 48 49 50 51 52 52 53 53 54 55 56 58 59 61 63 64 66 69 71 74
27 28 28 29 29 30 31 32 33 33 34 36 37 38 39 40 41 42 43 44 45 47 48 49 49 50 52 52 53 54 55 56 58 59 61 62 64 66 68 70 72 74 77
27 27 28 29 30 30 31 32 33 34 34 35 36 38 39 40 41 42 44 45 46 47 48 49 51 52 53 54 55 56 58 59 60 62 64 65 67 70 72 74 76 78 80
27 27 28 28 29 30 31 32 33 34 35 36 36 38 39 41 42 44 45 45 46 47 49 50 52 53 54 56 57 59 60 61 63 65 67 69 71 73 76 78 79 80 81
26 27 28 29 29 30 31 32 34 34 35 36 37 39 40 42 43 44 45 46 47 48 50 51 53 55 56 58 59 61 63 65 66 68 70 72 73 76 78 80 81 81 80
27 27 28 29 30 31 32 33 34 35 36 37 38 39 41 42 43 44 45 46 48 49 51 53 55 56 58 60 62 64 67 68 70 71 72 74 76 78 79 80 80 79 78
27 28 28 29 30 32 33 34 34 35 36 37 39 40 41 42 43 44 46 47 49 51 53 54 56 58 60 62 65 67 69 72 73 74 75 77 78 78 78 78 77 76 74
28 29 30 31 32 33 33 33 34 35 37 38 39 40 41 42 44 45 47 48 50 52 54 56 58 60 63 65 68 70 72 74 76 77 78 78 78 78 76 75 74 72 69
29 29 30 31 32 32 33 34 35 36 36 38 39 41 42 43 44 46 48 50 52 55 57 59 61 64 66 68 71 73 74 76 78 79 79 78 77 75 73 71 69 66 62
30 31 31 32 32 33 34 34 35 36 38 39 40 41 43 44 46 48 50 52 55 57 60 62 65 67 69 71 74 76 78 79 80 80 79 77 74 72 69 66 62 59 55
31 31 32 32 33 33 34 35 36 37 39 40 41 43 44 46 48 50 52 54 57 60 63 65 68 71 73 75 77 78 80 80 80 79 76 73 70 67 63 59 55 52 49

GEFSMW_500_meanwind_108.txt.gz
Wind_Speed
42 42 42 41 41 41 41 40 40 40 40 40 39 39 38 38 38 38 38 38 38 37 36 36 36 36 37 37 36 36 36 36 37 37 38 38 38 39 40 41 41 41 41
44 44 43 43 42 42 43 42 42 42 42 42 41 41 40 40 39 39 39 39 38 37 37 37 37 37 37 37 37 37 37 38 38 39 39 39 40 40 42 43 43 43 43
44 45 45 44 44 43 43 44 43 42 43 43 42 41 40 40 40 40 40 40 39 38 38 38 38 38 38 38 38 38 39 39 40 40 41 41 41 41 42 43 44 45 45
44 44 44 44 45 44 45 45 44 44 43 43 42 42 42 41 41 40 40 40 39 38 38 38 38 38 38 38 38 39 40 40 41 42 42 43 43 43 42 44 45 45 46
43 43 43 43 43 44 44 44 44 44 43 43 43 43 42 42 41 41 40 40 39 39 38 38 38 38 39 39 39 40 41 41 42 42 43 43 44 45 45 44 45 45 46
42 42 43 42 42 42 42 42 43 43 42 43 43 43 42 42 41 41 40 39 39 38 38 38 38 38 39 40 40 41 42 42 42 43 44 45 46 46 46 45 45 45 45
40 41 41 41 40 40 40 40 40 40 41 41 42 41 41 41 40 40 39 38 38 38 38 39 39 39 40 41 41 42 43 43 43 44 45 46 46 46 46 46 45 45 45
38 39 39 39 39 39 39 39 39 39 39 39 40 40 40 39 39 39 38 38 38 38 39 39 39 40 40 42 42 42 42 44 45 46 46 47 47 47 47 47 47 46 45
36 37 37 37 37 37 37 37 37 37 37 38 38 38 38 38 38 38 38 38 38 38 39 39 40 41 42 42 42 43 44 45 46 46 46 47 47 47 48 48 48 48 47
33 34 34 34 34 34 34 35 35 35 35 35 36 36 36 36 37 37 37 38 38 39 39 39 41 41 41 42 43 44 45 46 46 47 47 47 47 48 48 48 49 49 49
31 31 31 31 32 32 32 32 32 33 33 33 34 35 35 36 36 37 37 37 38 39 39 40 41 41 42 43 43 44 45 46 47 47 48 48 48 48 49 49 50 51 51
29 29 29 30 30 30 31 31 31 31 32 32 33 33 34 34 35 35 36 37 38 39 39 40 41 42 43 43 44 45 46 47 48 48 48 48 49 50 50 51 51 52 54
27 27 27 28 28 29 29 30 30 31 31 31 31 32 32 33 34 35 36 37 38 38 40 41 41 42 43 44 45 46 47 48 48 48 49 50 50 51 52 53 54 55 57
26 26 26 27 28 28 29 29 29 29 30 30 31 32 32 33 34 35 36 37 38 39 40 41 42 43 44 45 46 47 47 48 48 49 50 51 52 53 54 55 57 58 59
26 26 26 26 27 27 28 28 28 29 30 30 31 32 32 33 34 35 36 37 38 40 41 42 42 43 44 46 47 47 48 49 50 51 52 53 54 55 57 58 59 60 62
25 25 26 26 26 27 27 27 28 29 29 30 30 31 32 33 33 35 36 38 39 40 41 42 42 44 45 46 47 48 49 50 51 52 54 55 56 57 59 60 62 64 65
25 25 25 26 27 27 27 27 28 28 29 30 30 31 32 33 34 35 37 38 40 41 42 42 44 45 46 47 48 49 50 51 53 54 55 56 58 60 62 63 65 66 67
25 25 25 26 26 27 27 27 28 29 29 29 30 31 32 34 35 37 38 39 40 41 42 43 44 46 47 48 49 51 52 53 54 56 57 59 61 63 65 66 67 68 70
25 25 25 26 26 26 27 27 27 28 29 29 30 31 33 34 35 37 38 39 40 41 42 44 45 47 48 50 51 52 54 55 56 58 60 62 64 66 68 69 70 71 72
25 25 25 26 26 26 27 27 27 28 30 30 32 33 34 35 36 37 38 40 41 42 44 45 47 48 49 51 53 54 56 57 58 60 63 65 67 69 70 72 74 75 75
26 25 25 25 26 26 27 28 28 30 31 32 33 34 35 36 37 38 39 40 42 43 45 46 47 49 50 52 54 56 58 59 61 63 66 68 70 71 73 75 76 77 76
25 25 26 26 26 27 28 28 30 31 32 33 34 35 36 37 37 39 40 42 43 45 46 47 48 50 52 54 56 58 61 63 65 67 69 71 72 73 74 75 76 76 75
26 26 26 27 28 28 29 30 31 32 33 34 35 36 36 37 38 40 41 42 44 45 46 48 50 51 53 56 58 61 63 66 68 70 72 73 74 74 75 75 74 73 72
27 27 27 28 29 29 30 31 32 33 33 34 35 36 37 38 39 40 42 43 44 46 48 49 51 53 55 58 61 64 67 69 71 73 74 74 74 74 74 73 72 70 68
28 29 29 29 30 30 31 32 33 34 34 35 36 36 37 39 40 41 42 44 45 47 49 51 54 56 58 61 65 68 70 72 74 75 75 74 74 73 72 70 68 66 62
29 30 30 31 31 32 32 33 34 34 35 36 36 37 38 39 40 42 43 45 47 49 51 54 56 59 62 65 67 70 72 74 75 75 75 74 72 70 69 67 63 60 57

GEFSMW_500_meanwind_114.txt.gz
Wind_Speed
40 40 39 38 37 36 36 35 36 35 36 36 36 36 36 37 37 38 38 38 39 38 38 38 38 38 38 38 38 38 38 38 38 38 39 39 39 39 40 40 40 41 41
42 42 41 40 39 38 38 38 38 38 38 38 38 38 38 38 38 39 39 40 40 39 39 39 39 39 39 40 40 40 39 39 39 39 39 39 39 40 41 42 42 42 42
42 42 42 42 41 40 40 40 40 40 40 40 40 40 40 39 39 39 40 41 40 40 39 40 40 40 40 40 41 40 40 39 39 40 40 40 40 40 41 42 42 43 43
41 42 42 42 42 42 42 42 41 41 41 41 41 40 41 40 40 41 41 41 41 40 40 40 41 40 40 41 40 40 39 39 39 40 40 40 41 41 41 42 43 43 44
41 41 41 41 41 41 41 41 41 41 41 41 41 41 41 41 41 41 41 41 41 41 41 41 41 40 41 41 40 40 39 39 40 40 40 40 41 41 42 41 43 44 45
40 40 40 39 39 39 40 40 40 40 39 39 39 40 40 40 40 41 41 41 41 41 41 41 41 40 40 40 40 39 39 39 40 40 40 41 41 42 42 42 43 44 44
39 39 39 39 38 38 38 38 38 38 38 38 39 39 39 40 40 41 41 41 40 40 40 40 40 39 39 39 39 39 39 39 40 41 42 42 42 42 43 43 43 44 44
38 37 37 37 37 37 37 37 37 37 37 37 38 38 38 38 39 39 39 39 39 39 39 38 38 38 39 39 39 39 39 40 41 41 42 42 42 43 44 44 45 44 44
34 34 34 34 34 34 35 35 35 35 36 36 37 37 37 37 37 38 38 38 38 38 38 38 38 38 38 39 39 39 39 40 41 42 42 43 43 44 45 45 46 46 45
31 31 31 32 32 32 33 33 34 34 35 35 35 35 35 35 35 36 36 36 37 37 36 36 37 37 38 39 39 39 39 40 42 43 43 43 44 45 46 47 47 47 47
29 29 29 30 30 31 31 32 32 32 32 32 33 33 33 33 33 34 34 35 35 36 36 36 37 37 37 37 38 39 40 41 42 43 43 44 46 47 48 48 48 48 49
27 27 27 28 28 29 29 30 30 30 30 31 31 31 32 32 32 33 34 34 35 35 35 36 36 37 37 38 39 40 40 41 42 43 44 46 47 47 48 49 49 50 50
27 26 26 26 27 27 28 28 28 29 29 29 29 30 30 30 31 32 33 33 33 34 35 36 36 37 37 38 39 40 41 42 43 44 45 46 47 48 49 50 50 51 53
25 24 25 26 26 26 26 27 27 28 28 28 28 29 29 30 30 31 32 32 33 34 34 35 36 37 38 39 40 40 41 42 44 45 46 47 49 50 50 51 52 54 55
24 24 24 25 25 25 26 26 26 26 26 27 27 28 28 29 30 31 31 32 32 33 34 35 36 37 38 39 39 40 42 43 44 46 47 49 50 51 52 53 54 56 57
25 24 25 25 25 25 25 25 25 26 25 26 26 27 28 28 29 30 31 32 32 33 34 35 36 37 38 39 40 41 43 44 45 47 49 50 52 52 54 55 56 58 60
25 25 25 25 25 25 25 25 26 26 26 26 26 27 27 28 29 30 31 32 32 33 34 36 37 38 39 40 41 42 44 45 47 49 50 52 53 54 55 57 59 61 63
25 25 25 25 25 25 26 26 26 26 26 26 26 27 27 28 29 30 31 32 33 34 35 36 38 39 40 41 42 43 44 46 48 50 52 53 54 56 58 59 61 63 66
27 26 26 26 26 26 26 26 26 26 26 26 26 27 28 28 29 30 31 33 34 35 36 37 38 39 40 41 43 44 46 47 49 51 53 54 56 59 61 63 64 66 68
28 27 26 26 25 25 26 26 25 26 26 26 27 27 28 29 30 31 32 33 34 35 36 38 39 40 41 43 44 45 46 48 50 52 54 57 59 61 63 65 67 69 70
28 27 26 25 25 25 25 26 26 26 26 26 27 28 29 30 31 32 33 34 35 36 37 38 39 41 42 43 45 47 48 50 52 54 56 59 61 63 66 68 70 71 72
28 27 26 25 25 25 25 26 26 26 26 27 28 29 30 31 31 33 34 35 36 37 38 39 40 41 43 44 46 48 50 52 54 56 59 61 64 66 68 70 71 73 73
28 27 26 25 26 26 26 26 26 27 27 28 29 30 30 31 32 33 34 35 36 37 38 39 40 42 43 45 47 50 52 54 56 59 61 63 66 68 70 71 72 73 73
27 27 26 26 26 26 26 27 27 28 29 29 30 31 31 32 33 34 35 36 37 38 38 39 41 42 44 47 49 52 54 56 59 61 63 65 68 70 71 71 72 73 72
28 27 27 27 27 27 27 28 28 29 30 30 31 31 32 32 33 34 35 36 37 38 39 40 42 44 46 49 52 54 56 58 60 63 65 67 69 69 70 71 71 70 67
27 27 27 27 27 28 28 28 29 29 30 30 30 31 32 33 34 35 35 36 37 38 40 42 44 46 49 51 54 56 58 60 62 65 67 68 69 69 70 69 67 64 61

GEFSMW_500_meanwind_120.txt.gz
Wind_Speed
40 40 38 37 36 35 34 33 32 32 32 32 32 32 33 34 34 34 35 36 37 37 38 38 39 39 39 39 39 39 40 40 40 40 41 41 41 41 41 42 41 41 41
42 41 40 39 38 37 36 35 34 35 34 34 34 35 36 36 36 36 37 38 39 39 40 40 39 39 39 39 40 40 40 41 41 41 41 41 41 42 42 42 42 42 42
43 42 42 41 40 39 38 37 37 37 36 36 37 37 37 37 37 38 39 40 40 40 40 40 40 40 40 40 40 41 41 41 41 41 41 41 41 42 42 42 42 42 43
45 44 44 43 42 40 40 39 38 38 38 39 39 39 38 38 39 40 41 41 41 40 40 40 40 40 41 41 41 41 41 41 41 41 41 41 42 42 41 42 42 42 43
46 45 44 43 42 42 41 41 40 40 39 39 39 40 39 40 40 41 41 41 41 41 41 41 41 41 41 41 40 40 40 40 40 41 41 41 42 42 41 41 42 43 43
47 45 44 43 43 42 42 42 42 41 40 40 40 40 40 40 40 40 41 41 40 40 41 41 41 40 40 40 40 40 40 40 41 41 41 42 41 41 41 42 42 43 43
45 44 44 43 43 42 41 41 41 41 41 41 40 39 39 39 40 40 40 40 40 40 40 40 40 40 40 39 39 39 39 40 40 40 41 41 41 41 42 42 43 43 43
45 45 44 44 43 42 42 41 41 40 40 40 39 39 39 39 39 39 40 40 40 40 40 39 39 39 38 38 38 38 39 39 40 40 40 41 41 42 43 44 44 43 43
44 44 44 44 43 43 42 41 41 40 40 39 39 39 38 39 39 39 39 39 39 39 38 38 38 38 38 38 38 38 39 39 39 40 41 41 42 43 44 44 44 44 45
41 41 42 42 42 42 41 41 40 40 39 39 38 38 38 38 38 38 38 38 38 38 37 37 36 36 37 37 37 38 38 39 40 41 41 42 42 43 44 44 45 46 47
39 39 40 40 40 40 40 40 39 38 38 37 37 37 37 36 36 36 37 37 36 36 36 35 35 36 36 36 37 38 38 39 39 40 41 42 43 44 45 46 47 48 48
38 38 38 38 38 38 38 38 37 37 36 36 35 35 35 35 35 35 35 35 35 34 34 34 35 35 35 36 37 38 38 39 40 41 41 42 44 45 46 47 48 49 50
37 37 37 37 36 36 36 36 35 35 35 34 34 34 33 34 34 34 33 33 33 33 33 33 33 34 35 36 37 38 39 39 40 41 42 43 44 45 47 48 49 51 51
35 36 36 36 35 35 34 34 34 33 33 33 33 32 32 32 32 31 32 32 32 32 32 32 32 33 34 35 37 38 39 40 41 41 43 44 45 46 48 49 50 51 52
35 35 35 35 34 33 33 33 32 32 31 31 31 30 30 30 30 30 30 30 30 31 31 31 32 33 34 35 36 37 39 40 41 42 44 45 46 47 49 50 51 53 54
34 35 35 34 33 33 32 32 31 30 29 29 29 29 29 29 29 29 29 29 30 30 31 31 32 33 34 35 36 38 39 40 41 43 44 46 47 48 50 51 53 54 56
34 34 34 34 33 32 32 31 30 29 28 28 28 28 28 28 28 28 28 29 29 30 30 31 32 33 34 35 37 38 40 41 42 43 45 47 48 49 51 52 54 56 58
35 35 34 34 33 32 31 30 29 28 28 28 28 28 27 27 27 28 28 29 29 30 31 32 33 34 35 37 38 39 41 42 43 45 46 47 49 50 52 54 56 58 60
37 35 34 33 33 32 31 30 29 28 28 28 28 27 27 27 27 28 28 29 30 30 31 32 33 35 36 37 38 40 41 42 44 45 47 48 50 52 54 56 58 60 62
37 36 35 34 33 32 31 30 29 29 28 28 27 27 27 27 27 27 28 29 30 31 32 32 34 35 36 37 39 40 41 43 44 46 47 49 51 53 56 58 59 61 63
38 37 36 35 33 32 31 30 29 29 28 28 27 27 27 27 27 28 29 29 30 31 32 33 34 35 37 38 39 40 41 43 45 46 48 50 52 55 57 59 61 63 65
38 37 36 35 34 32 31 30 30 29 28 28 28 28 28 27 28 29 29 30 31 32 32 33 34 36 37 38 39 41 42 44 45 47 49 51 53 56 58 60 62 64 66
38 37 35 35 34 33 32 31 30 29 28 28 28 28 28 28 28 29 29 30 31 32 33 34 35 36 37 39 40 41 43 45 46 48 51 53 54 57 59 61 63 65 67
37 37 36 35 34 33 32 31 30 29 28 28 28 28 28 28 29 29 30 30 31 32 33 34 35 36 37 39 40 42 44 45 47 50 52 53 56 58 60 62 64 66 66
36 35 35 34 33 32 31 31 30 29 28 28 28 28 29 29 29 29 30 31 32 32 33 35 36 37 38 39 40 43 44 46 49 51 53 55 57 59 61 63 65 65 64
35 35 34 33 33 32 31 30 29 29 28 28 28 29 29 29 29 30 31 31 32 33 34 35 36 37 38 39 41 43 45 48 50 52 54 56 58 60 62 63 63 63 62

GEFSMW_500_meanwind_126.txt.gz
Wind_Speed
48 47 45 44 43 41 39 38 37 37 36 35 34 33 33 33 33 33 32 32 32 32 33 34 34 35 35 35 36 36 36 37 37 37 37 37 38 38 38 38 39 39 39
51 50 48 46 44 42 41 39 38 38 37 36 35 35 35 35 34 34 34 34 34 35 35 36 36 36 36 36 37 37 37 38 37 37 37 37 38 38 38 38 38 38 39
53 52 50 48 46 44 42 41 40 39 38 37 37 37 36 35 35 35 36 36 37 37 37 37 37 37 37 37 37 37 38 37 37 37 37 37 38 38 38 38 39 39 39
54 53 52 51 49 46 45 43 41 40 39 39 38 38 37 36 36 37 38 38 38 38 38 38 38 37 37 37 37 37 37 37 37 37 37 38 38 38 38 39 39 39 39
54 53 52 51 50 48 47 45 43 42 41 41 40 39 38 38 38 38 39 39 39 39 38 38 38 37 37 38 37 37 37 37 37 37 37 37 37 37 38 38 39 39 39
54 54 53 52 51 50 48 47 45 44 43 42 41 40 39 39 39 39 39 39 39 39 38 38 38 38 37 37 37 37 37 37 37 37 37 37 37 37 38 38 38 39 39
55 54 53 52 52 51 49 48 47 45 44 43 42 41 40 40 40 40 40 40 39 39 39 38 38 37 37 37 37 37 37 37 37 37 37 36 37 37 38 38 39 39 40
55 54 53 52 51 50 49 48 47 46 44 43 42 42 41 41 41 40 40 40 39 39 39 38 37 37 37 37 37 36 37 37 37 37 36 36 37 37 38 38 39 40 41
54 53 52 51 51 50 49 48 46 46 44 43 43 42 42 41 41 40 40 40 39 39 38 37 37 37 37 37 37 37 37 37 36 36 36 36 37 37 38 38 40 41 42
53 53 52 51 50 50 49 48 47 46 45 44 43 42 42 41 40 40 40 39 39 38 37 37 37 36 36 36 37 37 37 36 36 36 36 36 37 37 37 39 40 42 43
52 52 50 49 49 48 48 47 47 46 45 44 43 42 42 41 40 39 39 38 38 37 37 36 36 36 36 36 36 36 36 36 36 36 36 36 37 37 38 40 41 43 44
50 51 50 48 48 47 47 46 46 45 43 42 42 42 41 40 40 39 38 37 37 36 36 36 35 35 35 36 36 36 36 36 36 36 36 36 37 38 39 41 43 44 45
47 48 48 47 47 47 47 45 45 43 43 42 42 41 40 39 38 37 37 36 36 35 35 35 35 35 36 36 36 36 35 36 36 36 36 37 38 39 41 42 44 45 47
44 45 46 45 45 45 45 44 42 42 41 41 40 39 38 37 36 36 35 35 35 34 34 34 35 35 35 35 35 35 35 35 35 36 37 38 39 41 42 43 45 47 48
42 42 43 43 42 42 42 41 41 40 40 39 39 38 37 36 36 35 35 34 35 34 34 34 34 34 34 34 34 34 35 35 36 37 37 38 40 41 43 44 46 48 50
40 40 41 41 41 40 40 39 39 38 38 37 37 36 35 35 34 34 34 34 34 33 33 33 33 33 33 33 33 34 34 35 36 37 38 39 40 42 44 46 48 49 51
39 39 39 39 39 39 38 38 37 37 36 35 35 34 34 33 33 33 33 33 32 32 32 32 32 32 32 32 33 33 34 35 36 37 38 39 41 43 45 47 49 51 53
40 39 39 39 39 39 38 37 37 36 35 34 34 33 33 32 32 32 32 32 31 31 31 31 31 31 32 32 33 34 34 35 36 37 39 40 42 44 46 47 49 52 54
41 40 39 39 39 38 38 37 36 35 34 33 33 32 32 31 31 31 31 30 30 30 30 30 30 31 31 32 33 34 34 35 36 38 39 41 42 44 46 48 50 53 54
41 40 39 39 39 38 37 36 35 34 33 32 32 31 31 30 30 30 30 30 30 30 30 30 30 30 31 32 33 33 34 35 37 38 40 41 43 45 47 49 52 53 56
42 41 40 39 38 37 35 34 33 33 32 32 31 30 30 29 29 29 29 29 29 29 29 29 30 30 31 32 32 33 34 35 37 39 40 42 44 46 49 51 52 55 57
42 42 41 39 37 35 35 34 33 33 32 31 30 30 29 29 29 29 28 28 28 28 29 29 30 30 31 32 33 34 35 36 38 39 41 43 45 47 49 51 54 56 59
43 42 41 39 37 36 35 34 34 33 31 31 30 29 29 28 28 28 28 28 28 28 29 29 29 30 31 32 33 34 35 37 38 40 42 44 46 48 50 52 55 57 59
42 41 40 39 38 36 34 34 33 32 31 31 30 29 28 28 27 27 27 27 28 28 28 29 29 30 31 32 33 34 36 37 38 40 43 45 47 49 51 53 56 57 59
41 40 39 38 37 36 34 33 32 31 31 30 30 29 28 28 28 27 27 27 28 27 28 29 30 30 31 32 33 34 36 37 39 41 43 45 47 49 52 54 56 58 59
40 40 39 38 37 36 35 34 32 32 31 30 29 29 28 28 27 27 27 28 28 28 28 29 30 30 31 32 33 35 36 38 39 41 44 46 48 50 52 55 58 59 59

GEFSMW_500_meanwind_132.txt.gz
Wind_Speed
54 52 51 50 48 47 45 43 41 39 38 36 35 34 33 33 32 31 31 30 29 29 29 29 29 29 30 30 31 32 33 34 35 35 35 36 36 37 37 37 38 38 39
56 54 53 52 51 49 47 45 42 41 39 37 36 35 35 34 33 32 32 31 31 31 31 30 30 31 31 32 32 33 34 34 35 35 36 36 36 37 37 38 38 38 39
57 55 54 53 52 51 49 46 44 42 41 39 38 37 36 35 34 34 34 33 33 32 32 32 32 32 32 33 33 34 34 34 35 36 36 36 36 37 37 38 39 39 39
58 57 55 54 53 51 50 48 46 44 43 41 40 39 38 36 36 36 35 35 34 33 33 34 34 33 33 34 34 34 35 35 35 36 36 37 37 37 37 38 39 39 39
59 58 57 55 53 52 52 50 49 47 45 43 41 40 39 38 38 37 36 36 35 35 35 35 35 35 35 35 35 35 35 35 35 36 36 37 38 38 38 38 39 40 40
58 59 58 57 55 54 53 52 51 49 47 45 43 41 39 39 39 38 37 37 37 36 36 37 36 36 35 35 35 35 35 35 36 36 37 37 38 38 38 39 39 39 39
59 59 60 58 57 55 54 53 52 51 49 46 44 42 40 40 39 39 39 38 38 38 37 38 37 36 36 36 36 35 35 36 36 37 37 38 38 39 39 40 40 39 39
58 59 59 59 58 57 55 54 53 52 50 48 45 43 42 41 40 39 39 39 38 38 38 38 37 37 36 36 36 36 36 36 37 37 37 38 38 39 39 39 39 39 39
56 57 58 59 58 57 56 54 53 52 51 49 47 45 43 42 41 40 40 39 39 38 38 38 37 36 36 36 36 36 36 37 37 37 37 38 38 39 39 39 40 40 40
54 55 56 57 58 57 56 55 53 53 51 50 48 46 45 44 43 42 41 40 39 39 39 38 37 36 36 36 36 36 36 37 37 37 37 38 39 38 39 40 40 41 41
51 53 54 55 55 55 56 55 54 53 52 50 49 48 47 45 44 43 42 41 41 40 39 38 37 37 36 36 36 36 36 36 36 37 37 38 38 39 39 40 40 41 42
49 51 53 54 55 55 55 54 54 53 52 50 49 48 47 46 45 44 42 42 41 39 38 38 38 38 37 36 36 36 36 36 36 37 38 38 38 39 39 40 40 41 42
47 49 51 53 53 53 53 53 53 53 52 51 50 49 48 47 46 45 44 42 41 40 39 39 39 38 37 36 36 36 36 36 37 37 37 38 38 38 39 40 40 41 43
45 48 49 51 51 51 52 51 51 51 51 50 49 48 48 46 45 44 43 42 40 40 39 39 38 37 36 36 36 35 35 36 36 36 37 37 37 38 38 39 40 42 43
43 46 47 49 50 50 50 51 50 50 50 49 48 47 46 45 44 43 41 40 39 38 38 37 36 36 36 36 35 35 35 35 35 36 36 37 37 37 38 40 41 43 44
41 44 45 47 48 49 49 49 49 48 48 48 47 45 45 45 44 42 41 40 39 37 37 36 35 35 35 34 34 35 34 35 35 35 35 36 37 38 39 40 41 43 45
39 41 42 44 46 47 47 48 48 47 46 45 45 44 42 42 42 41 40 39 37 36 35 34 34 34 33 34 34 34 34 34 34 34 35 36 37 38 39 41 42 44 46
39 40 40 42 44 45 46 45 46 45 44 42 42 41 40 39 38 38 37 37 36 35 34 34 33 33 33 32 33 33 33 33 33 34 35 36 37 38 40 41 43 45 48
39 41 40 40 42 43 43 44 43 43 42 40 39 38 38 37 37 36 35 35 35 34 34 33 33 32 32 31 31 32 32 32 33 34 35 36 37 39 40 42 44 46 49
39 40 41 40 40 40 40 41 41 40 39 38 37 37 36 36 35 35 34 34 33 32 32 32 31 31 30 30 30 31 31 32 33 34 35 36 38 39 41 43 45 47 49
40 40 40 39 39 39 39 39 38 37 37 36 36 35 35 34 34 33 33 32 31 31 31 30 30 29 29 29 29 30 31 32 33 34 35 37 38 40 42 44 46 48 50
38 39 40 40 39 39 38 38 37 36 35 35 34 34 33 33 32 32 31 30 29 29 29 28 28 28 28 28 29 30 31 32 33 34 35 37 39 41 43 45 47 48 51
39 39 40 40 39 38 37 36 35 34 33 33 32 32 31 31 30 30 29 28 28 28 27 27 27 27 27 28 29 30 31 31 33 34 36 38 40 41 43 45 47 49 53
41 40 40 39 38 37 35 34 34 33 32 31 31 30 30 29 28 27 27 27 26 26 26 26 26 26 27 28 29 30 30 31 33 35 37 38 40 41 43 46 48 51 54
41 40 40 39 38 37 35 34 33 32 31 30 30 29 28 27 26 26 26 25 25 25 25 25 25 26 27 28 29 29 30 32 33 35 37 38 40 42 44 46 49 52 54
41 41 41 40 39 38 36 34 32 31 31 30 29 28 27 26 26 25 25 24 24 24 24 24 25 25 26 27 28 29 31 32 34 35 37 38 40 42 44 47 50 53 54

GEFSMW_500_meanwind_138.txt.gz
Wind_Speed
58 57 56 54 53 51 49 47 46 44 42 41 39 37 36 36 35 34 34 33 32 31 30 29 28 27 27 27 27 27 28 28 28 29 30 30 30 31 32 33 34 35 36
60 59 57 56 55 53 50 49 47 45 43 41 39 38 38 37 36 35 34 33 32 31 31 30 29 28 28 28 28 28 28 29 29 30 31 31 31 32 33 34 35 35 36
61 59 58 56 55 54 52 50 48 46 44 42 41 41 40 38 37 35 34 34 33 32 31 30 30 30 29 29 29 29 30 30 31 31 31 32 32 33 34 35 35 36 37
61 60 59 57 56 55 53 51 49 47 45 44 43 41 39 37 36 36 35 35 34 33 32 31 31 31 31 31 31 31 31 31 31 32 32 33 33 34 34 35 36 36 37
61 60 60 58 56 55 54 52 50 49 47 45 43 41 40 38 37 37 36 35 35 34 33 33 33 32 32 32 32 31 32 32 32 32 33 33 34 35 35 35 36 37 37
60 59 59 59 57 56 56 53 52 50 48 46 44 42 40 39 38 37 37 36 35 35 34 34 34 33 33 33 32 32 32 33 33 34 34 34 35 35 35 36 36 37 38
58 59 59 59 58 57 56 55 53 51 49 47 46 43 41 40 39 37 37 36 35 34 34 34 34 34 34 34 33 33 33 33 34 35 35 35 36 36 36 37 37 38 38
58 59 59 58 58 57 57 56 53 51 49 48 46 45 43 41 39 38 38 37 35 35 35 35 35 35 34 34 33 33 33 34 35 35 35 36 36 36 37 37 38 38 38
57 58 59 58 58 57 56 55 54 52 50 48 46 46 44 42 40 39 38 37 36 36 36 36 35 35 34 34 34 34 34 35 35 36 36 36 36 37 37 38 38 38 38
56 57 58 58 58 57 56 55 54 53 51 49 46 45 44 43 41 40 39 37 36 36 36 36 36 36 35 35 35 35 36 36 36 36 36 36 36 37 38 38 38 39 39
52 55 57 58 57 57 57 56 55 53 52 50 48 46 44 43 42 41 39 38 36 36 35 35 35 36 36 36 36 36 36 36 36 36 36 36 37 37 38 38 39 39 39
49 51 53 55 56 55 55 55 54 54 52 51 50 48 46 45 43 41 40 39 38 37 37 36 36 36 36 36 36 36 36 36 36 36 37 37 37 37 37 38 39 39 40
48 49 51 53 54 54 54 54 54 53 52 51 50 49 47 45 44 42 41 40 39 38 37 37 37 36 36 36 36 36 36 36 36 37 36 36 37 37 37 38 38 39 41
46 47 49 51 52 53 52 53 53 52 52 52 51 50 48 46 45 44 43 42 42 40 39 38 38 37 37 37 36 36 36 36 36 37 36 36 36 37 38 37 37 39 40
44 46 48 50 52 52 52 51 51 52 52 51 51 49 47 46 46 46 44 44 43 41 40 40 40 39 38 37 36 37 36 36 37 36 35 35 36 36 37 37 37 39 40
42 44 46 49 51 52 52 51 51 51 52 51 50 49 47 46 46 46 45 44 43 42 42 41 40 39 38 37 37 36 37 36 36 35 35 35 35 36 37 37 37 38 40
41 43 44 46 48 50 51 51 50 51 52 52 51 50 48 47 46 46 45 44 44 43 41 40 39 39 38 37 36 36 35 35 35 34 35 35 36 36 36 36 37 39 41
38 41 43 45 46 47 48 49 50 51 52 51 50 50 49 47 46 46 45 43 43 42 41 40 39 39 38 37 36 35 35 34 34 34 34 34 35 36 36 37 38 40 42
36 40 42 44 45 45 46 47 49 50 50 50 50 49 49 48 47 46 45 43 42 41 40 39 39 38 37 36 35 34 34 34 34 34 34 34 35 35 36 37 39 41 42
36 38 40 41 43 43 44 45 47 48 48 48 48 47 47 47 45 43 43 42 41 40 39 38 37 36 35 34 33 33 33 33 34 33 33 33 34 35 36 38 39 41 43
36 37 38 40 40 41 43 44 44 45 45 45 45 44 44 43 43 42 41 41 41 40 39 37 36 35 34 33 32 32 33 32 32 32 33 34 34 35 36 37 39 41 43
36 36 37 38 40 40 41 41 42 43 43 43 43 43 42 42 41 41 40 39 39 38 37 35 35 34 33 32 31 31 31 32 32 32 33 33 34 35 36 37 39 42 43
35 37 37 38 39 40 41 41 42 42 42 42 41 41 41 40 39 39 39 38 37 36 35 34 33 32 31 31 31 31 31 31 32 32 32 33 34 35 36 37 39 41 44
35 37 38 38 38 39 41 41 41 41 40 40 39 39 39 38 38 37 36 35 34 34 33 32 31 30 30 30 30 30 30 31 31 31 31 32 34 35 36 38 39 41 44
35 36 37 37 37 39 41 41 41 40 39 38 37 37 36 36 35 35 34 33 31 31 31 30 30 29 29 29 29 29 29 30 30 31 31 33 33 35 36 37 39 42 44
37 36 37 37 37 38 40 40 40 39 38 38 37 35 35 35 33 32 31 31 30 29 29 28 28 27 27 27 27 28 28 29 30 30 31 31 33 34 35 37 40 42 44

GEFSMW_500_meanwind_144.txt.gz
Wind_Speed
61 62 62 60 59 58 57 55 54 51 49 48 46 44 42 40 39 39 39 38 37 35 35 34 33 32 31 30 29 28 28 27 27 27 27 28 28 28 29 30 31 32 33
61 62 62 61 61 59 58 56 55 53 50 48 46 44 43 41 40 39 39 38 37 36 35 34 33 32 31 30 30 29 28 28 28 28 28 29 29 30 30 31 32 33 34
60 61 61 63 62 60 59 57 55 54 52 49 48 47 45 43 41 39 38 37 36 36 35 34 33 32 31 30 29 29 29 28 28 29 29 29 30 31 31 32 33 34 35
59 60 61 62 62 60 59 57 56 54 53 51 50 48 45 42 40 38 38 38 37 37 36 35 34 33 32 31 30 30 29 29 29 29 29 30 31 31 32 33 34 35 36
57 59 60 61 62 61 59 58 57 55 54 52 50 49 46 43 42 41 40 39 38 37 36 36 35 34 33 32 31 30 30 30 30 30 30 31 32 32 32 33 34 36 37
55 58 60 61 62 62 61 59 58 56 54 53 51 49 47 45 43 42 41 39 39 37 36 36 35 34 33 33 32 31 31 31 31 31 32 33 33 33 33 34 35 36 38
55 57 58 59 62 63 62 60 59 58 55 53 51 50 48 46 43 42 41 40 39 38 37 36 36 35 34 34 33 33 32 32 33 33 33 34 34 34 34 35 36 37 38
53 55 57 58 60 62 62 60 60 59 57 54 51 49 48 47 44 43 41 40 39 39 39 38 37 36 35 35 35 34 34 34 34 34 34 35 35 35 35 36 37 38 38
51 53 55 57 59 60 62 61 59 59 58 56 53 51 49 47 45 44 42 41 40 40 40 39 38 37 36 36 36 35 35 34 35 35 35 35 35 35 36 37 38 39 39
49 51 53 56 58 58 60 61 60 58 57 56 54 52 51 48 46 45 43 42 41 41 41 40 39 38 37 37 36 35 35 36 36 36 35 36 35 36 36 37 38 39 40
47 51 53 55 56 58 58 60 60 59 57 56 55 53 52 50 48 47 44 43 42 41 41 41 40 39 38 37 36 36 36 37 36 36 36 36 36 37 37 38 39 40 41
45 48 52 54 56 58 59 59 60 58 56 55 54 53 52 52 49 47 45 44 42 41 41 41 40 39 38 37 36 36 36 37 37 37 36 36 37 37 38 38 39 40 41
43 45 49 52 54 56 57 59 59 58 57 55 54 53 52 52 50 48 46 45 43 42 41 41 40 38 37 36 36 36 36 36 37 36 36 36 37 37 38 39 40 40 42
41 43 46 49 53 55 56 57 58 58 57 56 55 53 53 52 51 49 47 45 44 43 41 40 39 38 37 37 36 36 36 36 36 36 36 37 37 37 38 39 40 41 41
39 42 46 48 50 54 56 57 57 57 57 57 55 54 52 52 52 51 48 46 45 43 41 40 39 38 38 37 36 36 36 36 37 37 37 37 37 37 38 39 39 40 40
37 40 44 48 50 52 55 56 56 56 56 56 54 53 52 52 52 51 49 47 45 45 43 40 40 40 39 38 37 37 36 37 37 36 35 36 37 37 37 38 39 39 40
36 38 42 46 49 50 53 54 55 56 56 55 54 53 52 52 52 51 49 48 46 44 44 43 41 41 39 38 37 37 38 37 37 36 35 35 36 36 37 38 38 39 40
35 37 40 44 47 48 50 52 54 55 55 54 54 54 53 52 51 51 49 48 46 45 45 45 43 42 41 40 40 39 38 37 36 36 35 35 35 36 37 37 38 39 40
34 36 39 43 46 47 49 50 51 53 55 54 54 53 53 53 52 51 50 48 47 46 45 44 44 43 43 42 41 39 37 37 36 35 34 34 35 35 36 37 38 38 39
34 36 38 42 45 46 47 49 50 52 53 54 54 53 53 53 52 51 50 50 48 46 46 45 43 43 42 41 40 39 38 37 36 35 34 34 35 35 36 37 37 38 39
34 35 37 40 43 45 46 48 49 50 51 52 53 53 52 52 52 51 50 49 48 47 46 44 43 43 42 41 40 39 38 36 35 34 34 34 35 35 36 36 37 37 39
33 35 36 38 41 43 45 46 47 49 49 50 51 51 51 51 51 51 50 48 47 47 45 44 43 42 41 40 39 37 36 35 34 33 34 34 34 35 36 35 36 37 38
33 34 35 37 39 41 43 45 46 47 48 48 49 49 49 49 49 49 49 48 47 46 44 42 41 40 39 39 38 36 35 34 33 33 33 33 34 34 33 34 35 37 38
33 34 36 36 37 38 40 43 44 45 46 47 47 48 48 46 46 47 47 46 45 44 42 40 39 38 37 36 35 34 33 32 31 32 32 32 32 32 32 33 35 36 38
32 34 36 37 37 37 39 40 42 43 45 45 46 46 46 46 44 44 44 44 43 41 41 39 38 37 35 33 32 31 30 30 30 30 30 30 30 30 32 33 34 36 37
32 33 35 36 37 37 38 39 40 42 43 44 44 45 45 44 43 43 43 42 41 40 39 38 36 34 32 31 30 29 28 28 28 28 28 28 28 29 30 32 33 35 36

GEFSMW_500_meanwind_150.txt.gz
Wind_Speed
51 54 57 61 63 64 65 65 64 64 63 62 61 58 56 54 52 51 50 49 47 46 45 43 41 40 38 37 35 34 33 32 31 30 29 28 28 28 28 28 29 29 29
48 52 55 58 61 64 64 64 64 64 64 62 60 58 56 55 53 51 50 49 48 47 45 44 42 40 39 38 36 35 33 32 31 31 30 29 29 29 29 29 30 30 31
45 50 53 56 58 61 64 64 64 64 63 62 61 59 57 55 54 52 50 49 48 47 46 44 42 41 39 38 36 36 34 33 32 32 31 30 29 29 29 30 31 32 32
42 47 52 55 56 59 62 63 63 64 63 62 60 59 58 55 53 52 50 49 48 47 46 44 43 41 39 38 36 35 35 34 33 32 31 31 30 30 30 31 32 32 33
40 45 50 54 55 57 59 61 64 64 63 62 60 60 58 55 53 53 52 49 48 47 46 45 43 41 40 38 37 36 35 34 33 32 32 31 31 31 31 32 33 33 33
38 43 48 53 54 56 58 59 62 64 63 63 61 60 59 57 54 52 52 50 48 47 45 44 43 41 40 39 37 36 35 34 33 33 32 32 32 32 32 32 33 34 34
37 43 47 51 54 55 57 57 59 62 63 63 61 61 60 57 55 52 51 50 48 46 44 43 43 42 41 40 38 37 36 35 34 33 33 33 33 33 33 33 34 34 35
37 42 45 49 54 55 55 57 59 60 62 62 60 60 60 58 54 52 51 50 48 47 45 43 42 42 42 41 39 38 36 36 35 35 34 33 34 33 34 34 35 35 35
35 40 44 48 52 55 54 55 57 58 61 62 61 60 59 58 55 52 51 50 49 48 45 43 43 42 42 41 40 38 37 37 36 36 35 35 35 34 34 35 35 36 36
33 38 43 47 51 53 53 54 56 58 59 61 61 60 59 58 55 51 50 50 50 48 46 44 44 43 42 41 40 40 38 37 37 36 36 35 35 35 35 36 36 36 37
32 36 42 46 49 52 52 54 55 57 59 61 62 60 59 57 54 52 51 50 49 49 47 46 45 43 42 41 40 40 39 38 37 36 36 35 35 36 36 36 36 37 38
32 35 40 44 47 50 51 52 54 57 60 61 61 61 59 58 55 52 50 51 50 49 48 47 46 45 43 42 41 40 39 38 37 36 36 36 36 36 36 36 36 37 38
31 35 40 44 45 47 48 50 52 54 57 60 61 61 60 59 56 53 51 51 51 49 49 48 46 44 42 42 41 40 39 38 37 36 36 36 36 35 36 37 37 38 38
30 34 39 44 45 45 47 47 50 53 54 57 60 60 60 59 57 54 52 50 50 50 49 48 46 44 42 41 41 40 39 38 37 37 35 35 35 36 36 37 38 38 38
29 33 38 43 45 46 46 46 48 52 54 55 56 57 58 59 59 56 53 51 50 50 49 47 46 44 42 40 39 39 38 38 37 36 35 35 35 36 37 37 37 38 38
28 32 36 41 44 45 46 46 48 51 53 53 53 53 54 56 57 56 55 52 50 49 49 48 46 44 42 40 38 37 37 37 36 35 35 36 37 36 36 37 37 38 38
27 31 35 38 41 43 45 47 48 49 50 52 53 53 54 54 56 56 54 51 50 50 49 47 46 44 41 40 39 36 36 36 35 35 36 36 36 36 36 36 37 37 37
26 29 34 38 39 41 44 46 48 49 49 51 54 54 53 53 53 54 53 51 50 50 48 46 45 44 42 40 39 38 37 36 36 36 36 36 36 35 36 36 36 36 36
27 29 32 36 39 40 43 44 46 48 49 50 52 53 52 52 52 53 52 52 50 49 47 46 45 44 42 41 39 38 37 37 36 36 36 36 35 34 35 35 35 35 36
28 30 32 34 38 40 42 44 45 46 48 49 49 51 51 51 51 51 49 48 48 47 46 44 43 43 42 41 40 39 38 37 36 36 35 34 34 34 34 34 35 36 36
27 29 31 34 37 39 40 42 45 45 45 47 48 48 47 47 48 49 48 46 46 46 46 45 43 42 41 41 40 39 38 37 36 36 35 34 34 34 33 34 35 35 35
27 29 30 33 36 38 39 41 44 45 45 45 46 46 45 46 46 47 47 45 43 43 43 43 43 42 41 39 39 39 38 37 36 34 33 34 34 33 33 33 34 34 35
27 29 30 32 36 38 40 42 42 44 45 44 45 46 46 46 45 46 46 45 42 40 40 41 42 41 39 38 38 37 37 35 34 33 33 33 33 32 32 33 33 33 34
27 29 30 32 35 38 40 42 43 42 43 44 45 45 46 45 45 45 45 43 41 39 38 38 38 39 38 38 38 37 36 34 33 33 33 32 32 32 32 32 32 33 33
26 27 30 32 34 37 39 42 43 43 43 44 44 45 45 45 44 44 44 42 41 40 38 37 36 36 36 36 37 36 35 33 33 32 31 30 30 31 31 32 31 31 31
26 27 29 31 33 37 38 41 43 43 43 43 43 43 44 44 44 44 43 42 40 39 39 38 37 37 37 37 37 35 35 33 31 30 29 29 29 29 30 30 30 30 31

GEFSMW_500_meanwind_156.txt.gz
Wind_Speed
40 41 44 47 49 51 53 55 57 58 61 62 62 62 63 64 62 62 60 57 55 54 53 52 50 47 45 44 42 41 39 38 36 35 33 32 31 31 31 30 30 30 30
36 37 40 43 45 48 51 53 55 58 60 61 61 61 61 62 61 62 61 59 56 54 52 52 49 47 46 44 42 41 40 38 37 36 35 34 33 32 31 31 31 31 31
33 33 37 41 43 45 49 52 52 55 59 61 62 61 62 63 62 61 61 59 57 55 53 52 50 48 47 46 43 41 40 39 38 37 36 35 34 34 32 32 32 32 31
31 31 34 37 40 44 47 50 52 53 57 59 61 63 62 63 62 62 61 61 58 55 52 51 51 49 47 46 45 43 41 40 38 37 36 36 35 34 33 33 33 32 31
27 29 31 34 38 42 46 48 49 52 56 59 59 61 61 61 63 63 61 59 59 56 52 51 50 48 46 46 44 43 41 40 39 38 37 36 35 35 34 33 32 32 32
25 25 27 32 35 39 44 46 48 51 54 57 59 59 59 60 61 61 60 59 57 56 53 51 49 47 46 45 43 42 42 41 39 38 37 36 35 35 33 33 33 33 33
25 24 26 29 33 36 41 44 47 50 52 54 57 58 58 58 60 60 59 59 58 56 53 50 49 47 46 45 43 42 42 40 38 37 37 36 36 35 34 33 34 34 34
25 25 26 28 31 34 40 43 46 49 51 52 54 56 57 58 60 61 59 59 58 56 55 52 49 47 46 44 43 42 41 39 38 37 36 36 36 35 34 34 34 34 34
24 26 27 27 31 34 37 42 46 47 48 50 52 55 56 56 57 58 58 58 57 57 53 51 49 47 45 44 43 42 41 39 39 38 37 36 36 35 34 34 35 35 35
24 24 27 28 28 33 37 41 44 47 47 48 49 51 52 56 56 55 58 58 57 56 53 49 48 47 45 44 43 42 41 39 38 38 37 36 36 35 34 35 35 35 34
23 24 25 27 29 31 35 40 42 46 49 49 49 48 50 54 55 54 55 55 55 55 53 50 47 46 44 44 43 42 40 39 38 37 36 36 35 35 34 34 34 34 34
23 25 25 26 29 32 35 39 40 44 48 50 49 47 48 50 53 54 53 54 54 53 52 50 48 46 44 44 42 41 40 38 37 37 37 36 35 35 35 34 33 34 34
23 24 25 25 27 32 35 38 39 43 46 49 48 47 49 50 52 53 52 53 53 52 51 49 47 45 44 44 43 41 40 38 37 37 36 36 35 34 34 33 33 34 34
24 24 25 26 27 29 33 36 38 42 45 47 47 47 48 50 52 51 51 51 52 52 51 49 47 43 43 43 43 41 40 38 37 36 35 35 34 33 33 33 33 32 33
25 25 26 27 28 28 30 33 37 40 43 45 47 48 47 48 49 51 50 50 50 50 50 49 47 44 42 41 40 40 39 37 36 35 34 33 33 33 33 32 32 32 33
25 26 27 28 29 30 31 33 35 37 40 44 46 47 46 47 49 50 51 50 50 49 48 47 47 44 41 39 38 39 38 36 35 34 33 33 33 32 32 31 31 32 34
24 26 27 29 29 31 33 35 34 34 38 43 45 46 46 46 48 49 50 51 50 49 48 47 45 43 41 39 39 39 38 37 36 34 33 33 33 32 31 31 32 33 34
24 25 26 28 29 31 33 36 36 35 37 41 46 46 44 45 48 49 50 49 49 48 47 46 43 41 41 41 40 39 39 39 37 35 34 33 31 31 31 32 32 32 32
24 25 26 28 28 30 32 34 35 36 37 40 43 45 44 44 46 47 49 50 49 47 46 45 43 42 41 40 39 38 38 38 36 34 33 32 31 30 31 32 32 31 32
25 25 26 28 29 29 32 33 34 35 36 40 42 43 42 43 45 46 46 47 48 47 46 45 43 41 40 40 39 38 38 37 35 35 34 32 31 31 31 31 31 30 31
25 26 27 29 30 30 31 33 34 35 37 41 42 42 41 43 44 45 45 46 47 47 47 45 44 41 40 40 39 38 37 36 35 34 33 32 32 32 30 30 30 30 32
27 27 28 29 30 30 32 33 34 35 36 40 41 41 41 43 44 45 45 45 46 46 45 43 43 42 40 39 38 38 37 35 34 34 33 33 32 31 30 29 30 30 31
27 28 28 29 29 30 31 33 34 34 35 38 40 41 41 43 44 44 44 45 44 44 43 42 41 40 38 38 38 37 36 35 34 33 32 32 31 30 29 29 29 30 30
26 27 28 29 29 29 30 31 33 35 36 38 40 40 40 42 43 44 44 43 44 44 42 41 39 38 37 37 37 36 35 35 34 33 32 30 29 29 29 29 29 29 30
24 26 27 29 29 28 28 30 32 34 36 38 39 41 39 40 42 43 44 43 42 43 42 40 38 36 34 33 34 35 34 33 32 31 30 28 27 27 29 29 28 28 29
22 24 26 27 27 27 27 29 31 33 35 37 38 39 40 41 42 43 43 42 42 42 42 40 39 37 34 33 33 33 32 30 29 29 29 28 27 27 27 27 27 27 29

GEFSMW_500_meanwind_162.txt.gz
Wind_Speed
40 40 42 43 46 47 49 51 52 56 58 58 58 59 60 63 64 63 62 61 61 61 60 59 58 55 53 51 49 47 45 43 41 41 39 37 36 35 33 32 31 31 31
35 36 38 40 42 43 45 48 50 53 55 56 57 57 59 61 63 63 62 61 61 61 59 59 58 57 54 52 51 49 47 44 42 41 40 38 37 36 34 33 32 32 32
33 34 36 37 39 40 42 44 48 49 51 54 57 57 58 60 62 63 62 61 61 62 61 59 59 58 55 52 51 49 47 45 44 43 41 39 37 36 35 34 33 33 33
32 32 33 34 35 37 39 41 43 46 47 51 54 56 57 58 60 62 61 61 61 62 62 60 60 59 57 53 52 50 48 48 46 45 42 39 37 37 36 35 34 34 34
31 30 32 33 34 34 36 38 39 43 45 48 51 55 56 56 58 61 62 59 59 61 60 59 59 59 57 54 52 50 48 47 45 44 43 41 39 37 36 35 35 35 35
30 30 30 31 31 31 32 35 38 40 43 45 48 51 54 55 56 59 60 58 58 59 60 59 58 58 57 56 52 49 47 47 45 44 43 41 40 38 37 36 35 35 35
29 28 27 27 29 29 30 31 34 37 42 44 46 50 52 53 54 56 56 56 57 58 59 59 59 58 57 56 55 51 47 47 45 44 43 42 40 39 38 37 35 34 34
29 28 27 28 28 28 29 30 32 36 39 41 45 48 49 51 53 55 55 54 53 55 58 59 59 59 59 57 56 53 47 46 45 44 43 41 40 38 37 36 35 34 34
30 29 27 28 28 29 29 29 31 35 37 39 42 46 47 48 51 53 52 51 51 54 56 56 58 58 57 55 55 54 48 45 44 43 42 40 38 37 37 36 35 34 33
30 29 27 27 26 28 29 28 30 33 35 36 39 44 45 46 50 53 51 51 49 51 53 53 56 56 56 55 53 52 51 47 44 43 41 39 38 37 36 35 35 34 34
31 29 27 26 26 27 27 27 28 31 34 35 38 42 43 45 49 51 52 51 48 50 51 53 54 54 55 53 51 50 50 48 44 42 41 40 38 37 36 35 34 33 33
30 28 27 26 25 25 26 26 27 30 33 35 37 41 42 44 46 49 50 49 48 49 50 51 53 52 51 51 50 48 48 47 43 41 40 38 37 36 35 34 33 32 32
30 27 26 26 25 24 24 24 27 29 31 34 35 38 41 43 44 47 47 47 48 48 48 50 52 51 49 49 48 47 45 44 43 41 39 37 36 35 34 32 32 31 32
29 27 26 26 25 24 24 25 27 28 30 32 34 34 38 41 42 44 46 47 47 46 45 46 48 50 49 47 46 44 42 42 40 39 38 36 35 34 32 31 31 31 31
28 26 26 26 25 24 24 25 26 27 29 33 35 34 34 39 40 41 43 45 46 46 45 43 44 47 47 46 45 43 41 40 39 37 36 35 34 32 32 31 31 30 31
28 26 25 25 24 24 23 24 25 26 27 31 34 36 36 37 38 40 42 44 44 45 45 42 41 44 45 45 45 44 40 38 37 36 35 35 34 32 32 31 30 30 31
28 26 25 24 24 24 24 25 25 27 28 30 33 35 36 37 38 40 41 43 44 45 45 43 42 43 44 45 44 42 39 38 37 36 35 34 33 32 31 30 30 30 31
27 26 24 24 24 26 26 26 26 27 29 31 33 36 37 37 38 40 42 43 43 43 45 43 42 42 43 44 42 43 40 38 37 36 35 34 33 32 31 30 30 31 30
27 26 24 24 25 27 27 27 26 27 28 29 32 35 36 37 38 40 42 42 41 42 44 43 42 42 42 43 43 42 41 39 37 36 35 34 34 33 31 30 30 30 30
27 26 25 24 24 26 27 27 28 27 27 28 31 33 35 36 37 39 41 41 40 40 43 43 43 43 42 42 43 42 39 38 37 37 36 35 35 34 32 31 30 29 29
28 27 26 24 25 26 27 27 28 28 28 29 31 33 34 35 37 38 39 41 40 41 42 43 44 44 42 42 43 41 39 38 38 36 35 35 35 34 32 31 29 28 29
28 28 27 26 26 27 27 27 28 28 28 29 31 33 33 34 35 37 38 40 40 40 42 43 43 43 42 41 41 41 40 38 37 37 36 35 36 35 32 31 31 30 30
28 27 26 26 26 26 27 27 28 28 28 29 31 32 33 34 35 36 37 38 39 40 40 41 42 41 42 41 39 39 39 39 37 37 35 34 34 34 33 32 31 30 29
27 25 25 24 24 26 27 27 27 28 27 28 30 32 34 35 36 36 36 38 38 39 39 40 40 40 40 40 38 37 38 40 39 37 35 34 33 33 33 33 32 30 29
26 24 24 23 23 24 26 27 27 27 26 27 28 30 33 34 34 35 35 36 37 37 39 40 39 39 39 39 38 37 36 37 37 37 36 34 32 32 33 33 32 30 28
25 23 23 22 22 23 25 26 26 26 26 27 28 30 32 33 34 35 36 36 36 37 38 38 38 38 39 39 38 37 36 35 35 36 34 33 32 31 30 30 30 30 29

GEFSMW_500_meanwind_168.txt.gz
Wind_Speed
42 43 44 45 46 48 50 51 52 53 54 56 58 59 60 62 63 63 62 63 63 63 63 64 64 63 62 60 58 57 54 53 51 48 45 44 43 42 40 37 36 34 33
40 40 41 42 42 45 48 49 50 51 52 54 57 59 59 59 60 61 61 61 62 62 63 63 64 63 63 61 60 59 57 55 53 50 47 45 44 43 40 39 37 35 33
39 39 39 39 40 42 45 47 48 50 51 52 55 57 57 56 57 58 59 60 60 61 61 60 62 63 63 62 61 60 58 56 53 51 48 45 44 42 41 40 38 35 34
39 38 39 38 38 39 42 45 46 48 49 50 52 53 54 53 53 55 57 57 58 59 60 60 60 61 62 61 59 60 60 58 55 52 49 46 44 43 42 41 39 36 35
38 38 38 37 37 38 40 42 43 44 45 46 48 50 51 51 50 52 54 56 57 57 57 58 59 59 60 59 58 59 59 57 56 53 50 47 45 44 43 42 40 38 36
38 39 38 37 36 37 38 40 40 41 42 43 44 46 49 50 49 50 53 55 56 56 56 57 58 58 58 58 58 59 58 57 55 54 52 48 45 44 44 42 40 39 38
40 39 38 36 36 35 37 40 41 40 39 40 41 43 46 48 48 49 51 53 55 55 55 56 56 57 57 57 57 59 58 57 55 54 52 49 46 43 44 43 41 40 39
40 39 38 37 37 35 36 38 39 38 37 38 39 41 43 45 47 47 48 51 53 54 54 55 55 55 56 56 57 59 58 57 55 54 52 50 48 44 45 44 42 41 39
40 38 37 37 37 37 37 37 36 36 36 36 36 37 39 41 44 46 47 49 51 54 53 53 52 54 56 56 56 57 57 56 55 53 52 52 49 46 45 45 43 41 39
40 38 37 37 36 36 36 35 35 36 35 34 34 35 36 39 41 43 45 47 50 52 52 52 51 52 55 55 55 56 56 56 55 53 52 52 50 47 45 45 42 41 40
40 38 37 38 36 35 35 35 35 33 31 31 32 32 34 35 36 38 42 44 48 51 50 49 49 52 54 53 52 55 55 55 54 53 52 52 50 46 45 44 42 41 40
40 39 39 39 37 35 34 33 32 31 29 28 29 31 32 33 33 35 40 41 44 47 48 48 48 51 52 50 50 53 54 54 53 51 51 50 49 47 45 43 42 41 40
41 39 39 39 37 35 33 32 31 30 27 26 27 29 30 30 30 33 37 38 41 44 46 46 46 48 50 49 49 52 53 52 51 51 51 50 49 47 45 43 41 40 38
41 40 39 38 37 34 32 31 29 28 25 25 26 27 28 28 29 31 33 35 38 42 43 43 45 47 46 46 48 49 51 50 49 50 50 49 49 47 44 42 40 39 38
41 40 39 37 35 33 30 30 28 26 23 24 25 25 27 27 28 30 31 34 37 40 41 41 44 44 42 43 45 47 47 48 47 48 49 48 46 44 42 41 40 39 36
40 39 38 37 35 32 29 29 27 24 22 22 23 25 26 27 28 28 30 33 36 38 39 40 43 42 40 41 43 44 44 44 45 45 46 46 46 44 42 41 39 36 35
41 40 38 37 34 31 28 27 25 23 22 21 23 24 25 26 27 29 30 32 34 36 38 39 40 42 41 40 40 43 43 43 43 43 44 44 44 44 41 38 36 35 35
41 39 38 36 33 30 28 27 25 24 23 21 22 23 24 24 25 27 29 30 32 34 35 36 38 40 40 39 40 41 41 41 41 41 41 42 43 42 39 37 36 36 35
41 39 38 35 31 29 27 26 24 24 24 23 22 23 22 23 25 27 30 31 32 31 32 35 37 39 40 40 40 40 41 40 39 38 38 40 41 39 38 37 36 35 34
41 39 37 35 31 28 27 26 24 24 24 23 23 23 23 24 26 26 29 32 32 32 33 35 35 37 39 40 40 39 39 39 38 38 38 38 37 36 37 37 36 35 33
40 38 37 35 32 29 28 27 25 23 23 23 22 22 23 24 25 26 29 30 31 32 33 34 36 37 39 39 38 38 37 37 37 38 37 36 36 36 37 36 35 34 33
40 38 36 34 32 29 28 27 26 25 24 23 23 23 24 25 26 26 28 29 29 30 32 34 35 36 37 38 38 38 36 36 36 36 37 36 36 37 36 36 34 33 32
39 37 36 34 30 28 27 26 26 26 25 24 23 23 23 24 25 26 28 29 30 31 32 32 33 34 35 36 37 37 36 35 35 35 35 36 36 36 35 34 34 33 33
38 36 35 33 30 28 27 27 26 25 24 23 24 24 24 24 25 26 27 29 30 30 31 31 32 33 33 33 34 35 35 34 34 34 35 35 35 35 34 33 33 32 32
36 35 34 32 29 29 28 27 26 25 23 22 23 24 24 24 26 27 28 28 29 31 31 30 29 31 32 33 33 33 34 34 33 34 34 34 33 33 33 32 33 32 31
35 34 33 31 29 28 27 26 25 24 22 22 23 24 24 24 25 27 28 28 28 30 30 31 30 30 31 32 32 32 32 32 32 32 33 33 32 31 31 31 31 30 29

GEFSMW_500_meanwind_174.txt.gz
Wind_Speed
35 37 39 40 41 43 44 44 46 48 51 52 53 54 56 58 59 60 61 62 64 65 66 66 66 65 64 64 64 63 62 61 60 58 57 55 54 51 50 48 46 44 42
34 35 37 39 41 41 42 42 43 45 48 50 51 52 54 55 57 59 60 61 62 64 66 65 66 66 66 66 66 65 64 63 61 60 58 57 55 53 50 49 48 46 44
34 34 35 38 39 40 41 42 42 43 46 48 50 52 54 56 56 57 58 59 60 62 64 64 65 66 67 66 66 65 65 63 62 61 60 59 56 54 52 51 49 47 46
34 35 36 38 39 40 41 42 42 44 45 46 50 52 53 54 54 55 56 58 59 60 61 62 62 63 63 63 62 63 63 62 62 62 61 61 58 56 54 53 51 48 46
35 36 36 37 39 40 41 42 43 44 45 46 47 49 51 52 52 53 54 56 58 59 59 60 60 60 60 60 60 60 61 61 60 61 61 61 59 57 56 54 52 49 47
36 36 37 38 39 40 40 41 43 43 44 46 47 48 50 50 50 51 52 53 56 58 59 60 59 57 59 60 60 59 59 59 59 59 59 60 59 57 55 54 52 50 48
37 38 39 39 41 41 40 40 41 42 43 44 46 48 48 48 48 48 50 51 53 55 57 58 59 57 57 58 59 59 58 57 58 57 57 58 58 57 56 55 53 51 49
38 40 41 41 41 41 40 40 40 41 43 44 45 46 46 46 47 47 49 50 50 52 54 57 57 56 55 56 56 57 58 58 57 56 55 56 57 56 55 54 53 51 50
39 41 41 41 42 42 41 41 41 41 41 42 44 44 44 44 44 44 46 47 48 50 51 54 55 55 55 56 56 55 57 58 57 55 55 55 56 56 54 53 51 50 50
40 41 41 41 43 42 42 42 42 41 41 42 43 42 41 41 41 41 41 43 45 46 49 52 53 53 54 55 56 54 55 56 56 55 54 53 55 57 55 52 51 51 50
41 42 41 42 43 42 42 42 41 40 40 40 40 39 38 38 37 37 39 40 42 43 45 49 51 51 53 55 56 54 53 53 53 53 53 52 54 55 53 51 50 50 50
41 42 42 43 43 43 42 42 40 39 38 37 36 36 35 35 35 35 36 37 38 40 42 46 47 48 50 52 53 53 52 51 52 51 51 52 54 53 51 50 50 50 50
41 42 42 43 43 43 42 41 38 37 36 35 34 34 34 34 34 34 35 35 36 37 39 41 43 45 47 49 49 51 51 50 50 51 51 51 52 51 50 49 49 49 50
42 42 43 43 43 42 41 39 37 35 33 33 32 32 32 32 32 33 32 33 34 36 36 37 40 42 44 46 47 49 49 49 49 50 50 50 50 49 49 49 48 48 49
42 43 43 43 42 41 39 38 37 33 32 31 31 31 30 30 30 30 30 30 31 32 33 34 36 38 40 43 45 47 46 45 46 47 48 49 49 49 49 48 47 47 48
42 42 43 42 42 40 38 37 36 33 31 31 31 30 29 28 28 28 28 30 31 30 31 32 33 36 39 42 43 44 43 42 43 45 47 48 49 50 49 47 46 46 46
42 42 43 42 41 41 38 37 36 33 32 32 30 29 28 27 25 25 26 27 29 29 29 30 33 36 37 39 40 41 41 41 41 42 44 46 46 49 47 45 44 44 43
43 43 43 41 41 40 38 36 35 33 32 31 29 27 26 24 23 24 25 26 26 27 28 29 29 33 35 37 39 40 40 42 40 40 42 44 44 45 44 43 42 41 40
43 43 42 42 41 39 37 35 34 33 31 28 26 25 24 23 22 22 22 23 25 25 27 28 29 31 32 34 35 36 38 40 40 41 41 42 42 42 42 41 40 39 40
43 43 42 41 40 38 37 36 33 31 29 27 25 24 23 22 21 21 21 22 23 25 26 28 29 31 31 31 31 33 35 37 39 40 40 40 39 39 40 40 39 39 38
42 42 41 40 39 38 37 35 31 28 27 26 26 25 24 22 21 21 21 21 22 24 25 26 28 30 30 30 30 30 32 34 36 38 38 37 37 38 39 39 38 37 37
41 41 40 39 38 37 36 33 30 28 27 26 25 24 24 24 23 22 21 21 21 22 24 25 27 29 28 29 29 29 30 32 32 34 35 35 35 37 37 36 37 37 36
40 39 39 39 37 36 35 32 31 29 27 26 25 24 23 24 23 22 22 21 21 23 24 25 26 27 28 29 29 28 29 30 30 32 33 33 34 35 34 34 34 35 35
39 39 39 39 37 36 34 32 31 28 26 25 24 23 22 22 21 21 20 20 20 21 22 24 26 27 28 29 29 28 29 29 29 31 33 33 33 32 32 32 33 34 34
39 39 39 38 36 34 32 31 29 27 25 24 23 22 20 20 20 20 20 19 19 19 21 23 26 27 27 27 28 28 28 28 29 31 32 31 31 30 30 31 32 32 32
38 38 38 36 34 33 31 30 28 27 25 23 22 21 19 19 18 18 19 19 18 18 20 23 25 26 26 26 27 27 28 27 28 30 30 29 29 29 29 30 30 31 30

GEFSMW_500_meanwind_180.txt.gz
Wind_Speed
34 35 36 37 37 39 40 41 42 43 44 45 47 48 49 51 52 53 54 55 56 57 57 59 60 60 61 62 63 63 62 62 61 61 61 59 58 57 56 55 53 52 50
34 35 36 36 37 38 39 40 41 42 43 44 45 46 47 48 50 51 52 54 55 56 57 58 59 60 61 62 63 63 63 62 62 62 62 61 59 58 57 56 55 53 52
34 34 35 36 36 37 37 38 40 41 42 43 43 44 45 47 49 51 53 54 55 56 56 56 57 58 59 61 62 63 63 62 62 61 62 61 60 59 58 58 57 55 54
34 34 35 36 36 37 37 38 40 41 42 42 43 45 46 47 49 51 52 54 56 57 57 56 57 58 58 59 60 61 61 61 62 61 62 62 61 61 59 58 57 56 56
34 35 36 36 37 38 38 39 40 41 42 42 44 44 46 47 49 50 51 53 55 56 56 56 56 56 57 57 58 59 59 59 60 60 60 61 61 60 59 57 56 56 55
35 36 37 37 38 39 39 40 41 41 43 43 43 44 45 46 48 49 50 52 54 55 55 55 55 56 56 56 57 57 57 58 58 58 59 59 59 58 57 56 55 55 55
36 36 38 38 39 39 40 41 42 43 43 44 44 45 46 47 48 49 50 51 52 54 55 55 55 55 56 56 56 55 56 57 57 55 56 58 58 57 56 56 55 54 54
37 38 38 39 40 40 41 42 42 43 44 44 45 46 46 47 48 49 49 49 50 51 53 53 54 54 54 54 54 54 55 56 56 54 53 55 56 56 54 54 54 54 54
38 38 39 40 40 41 41 42 42 43 45 46 47 47 47 47 47 47 47 48 49 51 51 52 51 52 52 52 53 53 53 55 55 53 52 52 52 53 53 53 54 53 52
39 39 40 40 41 41 42 43 43 44 45 46 47 47 47 47 46 46 47 47 49 49 50 49 50 50 50 50 51 51 52 53 54 53 51 49 50 51 52 53 52 52 50
39 40 40 41 42 42 44 44 45 45 46 47 47 47 47 46 45 45 45 46 47 47 49 49 49 49 49 48 48 48 49 51 53 53 51 49 49 50 51 52 51 50 50
39 40 41 42 43 44 45 46 46 46 47 48 47 46 46 44 44 44 44 44 45 45 46 46 47 47 47 47 47 47 47 49 51 52 50 48 48 49 50 51 50 49 48
39 40 41 42 43 44 46 46 46 46 47 47 46 45 44 43 43 42 42 42 42 42 42 43 43 44 44 44 44 46 46 47 48 48 47 46 47 47 49 50 49 47 47
41 41 42 43 44 45 46 46 46 46 47 47 46 45 43 42 42 41 41 40 40 40 40 40 40 40 41 41 41 43 44 45 46 45 45 45 45 46 47 47 47 46 44
41 42 43 44 45 46 46 46 46 46 47 47 46 44 42 41 40 40 39 39 38 38 37 36 35 36 37 38 39 40 41 42 44 44 43 43 42 43 44 44 45 45 43
41 43 44 45 46 47 46 45 46 46 47 46 44 42 40 39 38 37 37 37 36 35 34 33 33 33 34 35 35 36 37 40 42 42 40 40 40 41 43 43 43 43 41
43 43 45 45 46 46 45 45 46 47 46 45 42 40 38 37 35 34 34 34 33 32 31 30 29 29 30 31 33 34 36 38 39 40 38 38 40 40 40 40 41 41 40
43 43 44 45 46 45 45 46 45 46 45 43 40 38 36 34 33 33 32 31 30 28 28 26 27 27 27 29 30 32 34 35 36 37 36 37 38 38 38 39 40 40 39
43 43 44 45 45 45 45 45 45 44 44 41 38 35 34 32 31 30 29 29 27 25 24 24 24 24 25 27 28 30 31 33 34 34 35 37 36 36 36 37 38 38 38
44 44 44 45 45 45 44 44 43 42 41 39 36 34 32 31 30 29 28 27 25 23 22 21 20 21 21 23 26 28 30 31 31 32 33 34 34 34 35 35 35 35 36
44 45 45 44 44 44 44 42 41 40 38 37 34 32 31 30 28 28 27 25 24 22 21 20 20 19 20 23 25 26 27 28 29 30 31 32 33 32 32 33 33 33 34
44 45 44 43 43 43 42 41 40 38 35 34 32 31 29 28 28 26 24 23 22 22 20 18 18 18 18 18 22 24 24 27 28 29 29 29 30 30 31 32 32 32 33
44 43 42 41 41 42 41 39 37 36 34 33 31 29 27 26 26 24 22 21 21 20 19 18 16 16 17 18 19 21 23 24 26 28 28 28 28 29 30 31 31 31 31
42 41 40 40 40 40 39 37 36 35 33 32 31 30 27 25 24 23 21 20 19 18 17 16 14 14 14 15 18 20 22 23 25 25 27 27 26 27 28 29 29 29 27
41 40 40 40 40 39 38 36 36 35 34 33 32 30 27 26 24 22 21 20 19 18 16 14 12 11 12 14 16 19 21 23 24 25 25 25 24 25 26 26 25 25 25
40 40 40 40 39 38 37 36 36 36 35 33 31 29 27 25 23 21 19 17 16 14 13 12 11 12 13 15 15 18 19 21 22 23 23 24 23 24 24 24 23 24 22

GEFSMW_500_meanwind_186.txt.gz
Wind_Speed
30 32 33 34 35 35 36 36 37 38 39 40 42 43 44 46 48 49 51 53 54 54 55 56 57 58 58 59 60 60 61 61 60 60 60 59 59 59 58 58 57 56 55
31 32 33 34 34 34 34 35 35 36 38 38 40 42 42 43 45 46 48 50 52 53 54 54 55 57 57 57 59 59 59 59 59 59 60 60 59 60 59 60 59 58 57
31 32 33 33 33 34 34 35 35 36 37 38 39 40 41 42 44 46 47 49 51 51 52 52 53 54 54 55 57 57 57 58 58 59 60 60 60 59 59 60 60 59 58
31 32 33 33 33 33 34 35 35 36 37 38 40 41 43 43 44 46 47 48 49 50 50 50 51 52 52 52 53 54 55 57 57 57 59 59 59 59 59 59 58 57 58
32 32 33 34 34 34 34 35 35 36 37 39 42 43 43 44 45 46 46 47 48 48 48 49 49 50 51 52 53 53 54 55 56 55 57 57 58 58 58 58 57 57 58
32 33 33 34 35 35 35 35 35 37 38 39 41 43 43 43 44 45 46 47 47 47 47 48 50 51 52 51 52 53 54 55 55 55 55 56 57 57 57 58 57 57 57
34 34 34 35 35 36 36 37 37 38 38 40 42 43 43 44 44 45 45 46 46 47 48 49 50 51 52 52 52 54 54 54 54 55 55 56 57 57 57 58 57 55 54
34 35 36 36 36 36 36 38 38 39 40 41 42 43 44 45 45 45 45 46 47 48 47 48 50 50 51 52 52 53 53 54 55 55 56 55 56 57 56 57 56 55 54
34 35 35 35 36 36 37 38 39 40 41 41 42 43 44 45 45 46 47 47 46 46 47 48 49 50 50 51 51 52 52 53 54 54 55 55 55 55 54 54 55 54 53
34 35 34 34 35 36 37 38 39 40 41 43 43 44 45 46 46 46 47 48 47 46 47 47 49 50 51 52 52 52 52 52 52 52 52 53 53 53 52 52 52 51 51
35 35 35 35 36 37 38 39 40 41 42 42 43 44 44 45 45 46 47 47 47 46 47 47 49 49 50 51 51 51 51 51 50 50 50 49 50 50 50 51 51 49 48
35 35 36 36 37 38 38 39 40 41 42 43 44 45 44 44 45 45 45 45 46 46 46 46 46 47 48 50 51 50 49 49 48 48 48 47 48 49 49 48 49 47 46
35 35 36 36 38 39 39 40 41 41 42 43 44 44 44 44 44 45 45 45 45 45 45 44 45 46 47 47 47 47 47 47 47 47 45 44 46 46 46 47 47 46 45
36 36 37 38 39 39 40 41 42 43 43 44 44 43 43 43 44 43 43 43 43 43 44 43 44 45 44 44 43 44 45 44 43 44 43 43 44 44 44 45 46 45 43
36 37 38 39 39 40 41 42 42 43 44 43 43 42 42 42 42 42 42 43 43 43 43 42 42 42 42 42 42 42 42 40 39 40 40 40 41 41 42 44 44 44 42
36 37 38 39 40 41 41 42 42 42 42 42 42 41 41 42 42 42 42 43 42 42 42 41 40 40 40 40 39 39 38 37 36 37 38 38 39 40 41 43 43 43 41
37 37 38 39 39 40 41 42 42 42 42 42 41 41 41 42 42 42 43 42 41 41 40 39 38 37 37 36 36 35 35 34 34 34 35 35 36 38 40 40 40 40 40
38 38 38 38 39 40 41 41 42 42 42 41 40 41 41 41 42 41 41 40 39 39 38 37 36 35 34 32 32 32 31 31 31 32 33 33 33 35 36 37 37 37 38
38 38 39 38 39 40 40 40 41 41 41 40 40 40 41 41 40 40 39 38 37 36 35 33 32 31 29 28 28 27 27 28 28 29 30 29 31 33 35 35 35 36 37
38 38 38 38 38 39 39 40 40 39 39 38 39 39 40 39 39 38 37 35 34 33 32 32 30 27 25 24 24 25 25 24 25 26 27 26 28 30 32 34 35 35 36
37 38 38 38 38 39 38 38 38 37 37 37 37 38 38 37 37 36 35 33 33 31 30 29 26 24 22 21 21 22 22 21 22 24 24 24 27 29 30 31 32 32 34
37 37 37 37 38 38 37 37 36 36 35 36 36 36 35 35 34 34 32 32 31 29 27 25 23 22 22 20 19 18 19 19 20 21 22 23 24 26 27 28 29 30 32
36 36 36 36 37 36 36 36 35 34 34 34 34 33 32 32 31 31 30 30 29 26 24 22 21 20 19 18 16 15 16 17 17 18 19 19 21 23 24 25 26 28 29
36 36 36 36 36 36 36 35 34 34 33 33 32 32 31 31 30 29 29 28 26 24 22 21 19 16 14 13 12 11 11 12 13 15 16 16 18 20 20 21 23 25 26
36 36 36 36 35 35 35 34 33 33 32 31 31 30 30 29 29 28 27 25 24 23 22 19 17 14 12 12 11 10 10 9 11 14 15 16 18 19 20 21 22 24 25
36 36 36 35 34 34 33 33 33 32 32 30 30 29 29 29 29 28 25 24 23 22 20 18 16 13 12 11 11 10 10 10 11 13 14 16 18 19 21 22 23 24 24

GEFSMW_500_meanwind_192.txt.gz
Wind_Speed
29 30 31 32 33 33 34 35 36 37 37 38 39 40 42 42 43 44 44 46 48 49 50 50 51 51 52 53 53 54 55 57 58 58 58 57 57 57 56 56 56 56 55
30 31 31 33 33 33 34 34 35 36 37 38 39 41 41 41 41 42 43 45 46 47 48 49 49 50 51 52 52 53 54 55 57 57 58 58 57 57 56 56 56 56 56
31 32 32 33 33 34 34 34 35 36 37 38 39 40 40 41 41 42 43 43 44 46 47 48 50 50 51 52 53 53 54 55 55 56 57 58 58 57 57 57 57 57 56
32 33 33 33 33 34 34 35 35 37 38 39 39 39 40 41 42 42 43 45 44 45 48 49 50 51 52 52 52 52 53 54 54 55 57 58 58 58 57 56 56 57 57
33 34 34 34 34 34 34 35 36 37 38 39 40 40 41 41 42 43 44 45 45 46 47 49 49 50 51 51 52 52 52 52 53 54 56 57 58 58 57 56 56 57 57
33 34 34 34 34 35 35 36 37 37 38 39 40 41 41 42 43 44 44 45 46 46 47 47 49 49 50 51 51 51 52 52 53 53 54 54 55 56 57 56 56 56 56
33 34 34 34 35 35 36 37 37 38 39 40 41 41 42 42 43 44 45 45 46 46 46 47 48 49 50 50 51 51 52 52 52 52 53 54 55 55 56 56 55 54 54
34 34 34 35 35 36 36 37 38 38 39 41 41 42 42 43 44 45 45 45 45 46 46 47 48 49 49 50 50 51 51 51 51 52 53 53 54 55 54 55 55 53 52
33 34 34 35 36 37 37 37 38 38 39 41 42 43 43 43 44 45 45 45 46 47 47 47 47 48 50 50 50 50 50 51 51 51 51 52 53 54 53 52 52 53 51
33 33 34 34 35 36 38 38 38 39 40 42 43 43 44 44 45 45 45 46 47 48 48 47 47 48 49 49 49 50 50 51 50 50 50 50 50 50 50 50 50 50 49
32 33 34 35 35 36 37 38 38 40 41 42 43 44 44 45 45 45 46 47 47 47 47 46 47 48 48 49 49 49 50 50 50 50 49 49 49 49 48 48 47 46 46
32 33 34 35 35 36 37 38 39 40 41 41 42 44 44 44 44 45 45 46 47 47 47 47 47 47 47 48 48 49 49 49 50 49 49 48 48 47 47 47 46 45 44
33 34 34 35 36 37 38 39 40 40 41 42 43 43 43 43 44 44 45 47 47 46 47 47 47 47 47 47 48 49 49 49 49 49 48 47 47 46 46 45 44 43 42
34 35 35 36 37 38 39 39 40 40 41 42 42 41 42 43 43 43 44 45 45 45 46 46 46 46 46 47 48 49 48 48 47 47 46 46 45 45 45 44 43 42 41
35 36 36 37 38 39 39 39 40 41 42 41 40 40 40 42 42 43 44 44 44 44 45 45 45 46 47 48 48 48 47 46 44 44 44 44 44 43 43 42 41 40 40
36 37 37 38 38 39 39 39 40 41 41 40 39 39 39 40 40 41 43 43 43 42 43 44 45 45 46 46 47 47 45 43 42 41 40 40 40 39 39 40 39 39 38
37 38 38 38 38 38 38 38 39 40 39 38 38 38 38 38 39 40 41 41 41 41 42 42 43 43 44 45 44 43 42 40 39 37 36 35 35 36 36 37 37 36 35
38 38 38 38 38 38 38 38 39 39 39 38 37 38 38 38 39 39 40 40 40 40 41 41 42 42 42 42 41 40 38 36 34 32 32 32 32 32 32 33 33 33 33
38 38 38 38 38 39 39 38 38 38 38 38 38 38 38 38 38 39 40 39 40 40 40 40 40 39 38 38 38 37 35 32 30 29 28 29 29 29 29 29 30 30 31
38 38 37 37 38 38 38 38 38 38 38 37 37 38 38 38 38 38 39 38 38 37 37 37 37 37 37 37 35 34 32 30 28 27 27 27 27 28 28 28 29 29 28
37 37 38 38 37 38 38 38 38 38 38 37 37 37 37 37 36 37 37 37 37 36 35 35 36 36 36 34 32 31 30 29 27 26 24 25 26 25 25 25 26 26 25
37 37 38 37 37 37 37 37 38 38 37 36 36 35 35 35 36 36 36 36 36 34 34 34 34 34 32 31 30 29 28 27 25 22 21 21 20 20 20 20 21 22 23
37 37 37 36 36 36 37 37 37 37 35 34 34 34 33 34 34 35 34 34 34 34 33 33 33 31 30 29 28 26 26 24 22 21 19 18 17 16 17 17 18 19 20
35 35 35 35 35 36 36 36 35 35 34 34 34 33 32 32 33 33 33 33 33 33 33 33 32 29 27 27 26 25 24 23 21 19 17 16 15 14 15 16 17 18 19
33 33 33 34 34 35 36 36 35 35 34 33 33 32 32 31 32 32 32 33 33 32 31 31 30 28 26 25 25 24 22 21 19 17 15 13 13 13 14 16 17 18 18
33 33 34 34 35 35 36 36 35 35 33 32 31 31 31 30 30 31 31 32 32 31 31 30 28 26 25 23 22 21 19 17 16 16 14 12 11 12 13 14 15 17 17

GEFSMW_500_meanwind_198.txt.gz
Wind_Speed
29 29 29 29 30 30 31 32 32 33 33 34 35 36 36 37 38 39 39 40 41 43 44 46 47 47 48 49 49 49 49 49 49 49 50 50 52 53 54 54 54 54 55
30 30 30 30 30 31 32 32 33 33 33 34 35 36 37 37 38 39 40 40 41 42 43 45 45 46 46 47 48 49 49 49 51 52 53 52 53 54 54 55 55 55 55
31 31 31 31 31 31 32 33 33 33 34 35 35 36 37 38 39 39 39 40 41 42 42 43 43 44 46 46 47 49 50 50 51 52 53 54 54 54 54 54 55 55 56
32 31 31 31 31 32 32 33 34 34 35 35 36 36 37 38 38 39 40 41 41 41 42 43 43 44 45 46 47 48 50 51 51 52 53 54 54 55 54 54 55 56 56
32 32 32 32 32 33 33 34 35 35 36 36 37 37 38 38 39 40 40 40 41 41 42 43 43 44 45 45 46 47 49 51 52 52 53 54 56 56 56 55 55 55 56
32 32 32 33 33 33 34 34 35 35 36 37 37 38 38 39 40 40 40 40 41 41 42 43 44 45 46 46 46 47 49 50 51 52 53 54 56 57 57 56 55 55 55
33 33 33 33 33 33 34 34 35 35 36 37 38 38 39 40 40 40 40 41 41 42 43 43 45 45 45 46 47 48 49 50 52 53 54 55 56 56 56 56 56 56 56
33 33 33 33 33 33 34 34 35 35 36 37 37 38 39 40 40 41 41 41 42 43 44 45 45 45 46 47 47 48 50 51 53 54 54 54 53 54 55 56 56 56 55
33 33 33 33 33 33 34 34 35 36 36 36 37 38 39 40 41 42 42 43 43 43 44 45 46 47 47 48 48 49 50 51 52 53 53 53 52 53 53 54 55 55 53
33 32 32 32 33 33 34 35 36 35 36 36 37 39 40 41 42 42 42 43 44 44 45 45 46 47 47 47 48 49 50 51 52 52 52 52 52 52 53 53 53 53 52
32 32 32 33 33 33 34 35 35 36 36 37 38 39 41 42 42 43 44 44 45 45 46 46 46 46 46 47 48 49 51 52 52 51 51 51 52 52 52 51 51 50 49
32 32 32 32 33 33 33 34 35 36 37 38 39 39 40 42 42 43 43 43 44 44 45 45 45 45 46 47 48 49 50 50 50 50 50 50 51 50 49 49 49 48 46
31 31 32 32 33 32 33 34 35 36 37 38 39 40 41 41 41 42 42 42 43 43 44 44 45 45 46 47 48 49 48 48 49 50 50 50 49 48 47 47 46 46 44
31 32 32 32 32 32 33 34 35 37 38 39 39 40 40 41 40 40 41 42 42 42 43 44 44 45 46 46 47 47 47 47 48 49 49 48 46 45 44 44 43 43 42
32 32 32 31 32 33 34 35 36 37 38 39 40 40 40 40 40 40 40 41 41 42 42 43 44 45 45 46 46 46 46 46 47 46 46 44 43 42 41 41 41 40 39
31 32 32 32 33 34 34 35 36 37 38 39 39 39 39 39 39 39 40 40 41 41 42 42 43 43 44 44 44 45 44 44 43 42 41 40 39 39 39 39 38 37 37
32 33 33 33 34 34 34 35 36 37 37 37 37 38 38 39 39 39 39 40 40 40 41 41 41 41 41 41 42 42 42 41 40 39 37 37 37 38 38 37 35 34 34
33 33 34 34 34 35 35 35 36 36 36 36 36 37 38 38 38 38 38 39 39 39 39 39 39 39 38 38 39 38 38 38 38 37 36 36 36 36 36 35 33 32 33
33 34 34 34 35 36 36 36 35 35 35 36 36 37 37 37 37 37 37 37 37 37 37 37 36 36 35 36 37 37 37 36 36 35 35 35 34 33 33 31 30 30 30
33 33 33 34 35 35 35 35 34 34 34 34 35 35 36 36 36 36 36 36 36 35 35 34 34 34 34 35 35 35 35 34 33 32 32 31 31 30 29 28 28 28 28
33 32 32 33 34 35 35 34 34 34 34 35 35 35 35 35 35 35 34 34 34 34 33 33 33 33 32 33 32 33 33 32 31 30 29 29 28 27 26 26 26 25 25
33 33 33 33 34 34 34 34 34 34 34 34 34 34 34 35 34 34 34 34 34 32 32 32 32 31 31 31 31 32 32 31 30 28 27 27 26 25 25 24 24 23 23
33 33 33 34 34 34 33 34 34 34 34 34 33 33 33 33 32 33 33 33 32 31 30 30 28 29 29 30 31 31 30 30 29 28 26 25 24 23 23 22 21 21 21
33 33 33 34 33 33 33 33 34 34 33 33 33 33 32 31 31 31 30 30 29 28 28 27 28 28 28 29 29 30 29 29 28 26 25 24 23 22 21 20 18 18 19
32 32 33 33 32 32 32 32 32 33 33 33 33 33 32 31 30 29 28 28 27 27 27 27 27 27 26 27 28 28 28 28 26 25 23 22 21 21 19 18 17 16 15
30 30 31 31 31 31 30 30 30 31 31 31 31 30 29 29 28 27 26 26 26 26 26 26 26 26 26 26 27 27 26 25 23 22 21 20 20 19 18 17 16 14 13

GEFSMW_500_meanwind_204.txt.gz
Wind_Speed
32 32 31 31 31 30 30 30 30 30 30 31 31 32 33 33 34 35 36 37 37 38 39 40 40 41 41 42 43 44 44 45 46 47 47 47 48 48 48 49 50 50 51
32 31 31 31 31 31 30 30 30 31 31 32 33 33 34 35 35 36 37 37 38 38 39 40 41 42 43 43 44 45 45 46 46 47 47 47 47 48 48 49 50 51 52
32 32 31 32 32 31 31 31 31 32 32 33 34 34 35 36 36 37 38 38 39 39 40 41 42 42 43 44 45 45 46 46 46 47 48 49 49 49 49 50 51 52 53
33 33 32 32 32 32 32 32 33 33 34 34 34 34 35 36 36 37 38 39 39 40 40 41 42 43 44 45 45 46 46 47 47 48 49 50 51 52 51 51 52 52 53
35 34 33 33 33 33 33 34 34 34 34 35 35 35 36 36 36 37 38 38 39 40 40 41 42 43 44 45 46 46 47 48 48 49 49 50 51 53 54 53 53 53 53
35 35 34 34 34 34 34 34 35 35 35 35 36 36 36 37 37 37 38 38 39 40 41 41 42 43 44 45 46 47 48 48 49 48 48 49 50 52 53 55 54 54 54
35 35 34 34 34 34 34 35 35 35 35 35 36 36 37 37 37 38 38 39 39 40 41 42 43 43 44 45 45 46 46 47 47 47 47 49 51 52 53 54 54 54 54
34 34 35 34 34 34 34 35 35 35 35 36 36 36 36 37 38 39 39 40 41 41 42 43 43 43 43 43 44 44 45 46 47 47 48 50 51 52 53 54 55 55 53
34 35 35 35 35 34 34 34 35 35 35 35 36 36 37 38 38 39 40 41 42 42 43 42 42 42 43 44 45 46 46 47 47 48 49 50 51 51 52 54 56 56 55
35 35 34 35 35 35 34 35 35 35 35 35 36 36 37 38 39 40 41 41 41 41 41 41 42 43 43 44 45 46 47 47 48 48 48 49 50 51 53 54 55 56 56
34 34 34 34 35 35 35 35 36 36 36 36 36 37 38 39 40 40 41 41 40 41 41 41 42 42 43 44 46 46 47 47 48 48 48 49 50 51 53 53 53 54 55
33 33 33 34 34 35 35 36 36 36 36 37 38 38 39 39 40 40 40 40 41 41 42 42 42 43 44 45 45 46 47 48 48 48 49 50 51 51 52 52 52 52 53
33 33 33 33 34 34 35 35 36 36 37 37 38 39 39 40 40 40 40 41 42 42 43 43 43 44 45 46 46 46 47 47 48 48 49 50 51 51 51 51 50 50 49
33 33 32 33 34 34 34 35 36 37 37 38 39 39 40 40 40 40 41 41 42 43 43 43 44 44 45 45 46 46 47 47 47 48 48 49 50 49 49 48 47 47 46
33 32 32 33 33 34 34 35 36 37 37 38 39 39 39 40 40 40 41 41 42 43 44 44 44 44 45 45 45 46 46 46 46 47 47 47 46 46 45 44 44 43 42
33 33 33 33 33 33 34 35 36 36 37 37 38 38 39 39 40 40 41 42 43 44 44 44 43 43 44 45 45 46 46 46 46 45 45 44 43 43 42 41 41 41 40
33 32 33 33 33 33 34 35 35 36 37 37 38 38 38 38 39 40 40 41 42 43 43 42 42 42 43 44 45 45 45 44 44 43 43 42 42 41 40 38 37 37 36
32 32 33 33 33 33 33 34 34 35 36 36 37 37 38 38 39 39 40 40 41 41 41 41 41 42 43 43 43 43 42 41 41 40 40 40 39 39 38 37 36 35 35
34 33 33 33 33 33 33 33 34 35 35 36 36 36 37 37 38 38 38 39 39 39 39 40 40 40 40 40 40 39 38 37 37 37 37 37 37 37 37 36 35 34 33
34 34 33 33 33 32 33 33 33 34 35 35 35 36 36 36 36 36 37 38 39 39 38 38 38 38 38 38 37 36 35 34 34 34 34 35 35 35 35 34 33 32 31
34 34 33 33 33 33 33 33 33 33 33 33 34 35 35 36 36 36 36 37 36 36 36 36 36 36 36 35 34 33 33 32 32 32 33 33 34 34 34 33 32 31 30
33 33 33 33 33 32 32 32 32 32 32 32 33 33 34 34 35 35 35 35 35 34 34 34 34 33 33 32 32 31 31 31 31 31 32 32 33 33 32 31 30 29 28
32 32 32 32 32 32 32 32 32 31 31 32 32 33 33 33 33 34 34 34 34 33 33 33 32 31 30 30 29 29 30 30 31 31 32 32 32 31 29 28 28 28 26
33 33 33 32 33 33 33 32 32 32 32 31 31 32 32 32 33 33 33 33 32 31 31 30 28 27 28 28 29 29 29 30 31 31 31 31 31 29 27 27 26 25 23
32 33 33 33 32 32 32 32 32 31 31 31 31 31 31 32 32 32 31 30 30 29 28 27 27 27 26 27 28 28 29 30 30 30 30 30 28 27 25 24 23 22 20
30 30 31 32 32 32 32 31 31 31 31 30 31 31 31 31 31 30 29 29 28 28 27 26 26 26 27 27 27 28 28 29 30 29 29 28 26 24 23 22 21 19 19

GEFSMW_500_meanwind_210.txt.gz
Wind_Speed
34 33 33 32 32 32 32 31 31 31 31 31 31 32 32 32 32 32 32 32 32 32 33 34 34 35 36 36 37 38 38 39 40 41 43 44 44 45 46 47 47 48 49
34 34 33 32 32 31 31 31 31 31 31 31 32 32 33 33 33 33 33 33 33 34 35 35 36 36 37 37 38 39 39 40 42 43 44 45 45 46 47 48 48 49 50
35 34 34 33 32 32 31 31 31 31 31 31 32 33 33 33 33 34 34 34 35 35 36 37 37 37 38 38 39 40 41 42 44 46 47 46 45 46 46 46 47 48 49
35 35 34 33 32 32 32 31 31 31 31 31 32 32 33 33 33 34 35 35 36 36 37 38 38 38 39 40 41 41 43 44 45 46 46 46 46 46 45 45 46 47 49
35 34 34 33 32 31 31 31 31 31 31 32 32 33 33 33 34 35 35 36 37 37 38 39 39 39 40 41 41 42 42 44 44 45 45 45 47 47 47 46 46 47 48
35 34 34 34 33 32 32 32 31 31 32 32 33 33 33 34 35 36 36 37 37 38 39 40 40 40 41 41 41 42 43 44 45 45 45 46 47 47 48 49 48 48 48
36 35 35 34 34 33 33 33 32 32 32 33 33 34 34 35 35 36 37 37 37 38 39 40 40 41 41 41 41 42 43 44 44 45 45 46 47 48 49 50 49 49 49
36 36 35 34 34 34 34 33 33 33 33 33 34 34 35 36 36 36 37 37 38 39 39 40 41 41 41 41 41 42 44 44 44 45 46 46 47 48 49 50 51 51 50
35 35 35 35 34 34 34 34 34 34 34 34 35 35 36 36 36 36 37 37 38 39 40 40 40 40 40 41 41 43 44 44 45 45 46 47 48 49 50 51 53 53 53
35 35 35 35 34 34 35 35 35 35 35 35 35 36 36 36 37 37 37 38 38 39 39 39 39 40 40 41 42 43 44 45 46 46 46 47 49 50 50 51 53 54 55
34 34 34 34 34 34 34 34 35 35 35 35 36 36 36 37 37 37 38 38 38 39 39 39 40 40 41 42 43 44 45 45 45 46 46 47 48 49 50 51 52 53 54
33 33 34 34 34 34 34 34 35 35 35 35 36 36 37 37 37 38 38 39 39 40 40 40 41 41 42 42 43 44 45 45 45 46 47 47 49 49 50 51 52 52 53
33 33 33 34 34 33 34 34 34 34 35 35 36 36 37 37 38 38 39 39 40 40 40 40 40 41 42 42 43 44 44 44 45 46 47 48 49 49 50 50 51 51 51
33 33 33 33 34 33 33 33 34 34 34 35 35 36 36 37 37 38 39 39 39 39 40 40 41 41 42 42 43 43 44 44 45 46 47 47 48 48 48 48 48 48 48
32 33 32 32 32 33 33 33 32 33 34 34 35 35 36 36 37 37 38 38 38 39 39 40 40 41 41 42 43 43 44 44 45 46 46 46 46 46 46 46 46 46 46
31 32 32 32 32 32 32 32 32 33 34 35 35 35 35 35 36 36 36 37 37 37 38 39 40 41 42 43 44 44 44 45 45 45 44 44 44 44 45 45 45 44 44
32 31 32 32 32 31 31 31 32 32 33 34 35 35 34 35 35 35 35 36 36 37 38 39 41 42 43 44 44 44 44 44 44 43 42 42 42 43 43 43 43 42 42
32 33 32 32 31 31 31 31 31 32 32 33 34 34 34 34 35 35 35 35 37 38 38 39 41 42 43 43 43 42 42 42 42 41 41 41 42 42 41 40 40 39 38
33 34 33 32 32 31 30 30 31 31 31 32 33 33 34 34 34 34 35 35 36 37 38 40 41 42 42 41 41 40 40 40 40 40 40 40 40 40 40 39 38 37 36
34 35 34 33 32 32 31 30 31 31 31 31 32 33 34 34 34 35 35 35 36 37 38 39 40 40 39 38 38 39 39 39 38 38 37 37 38 38 38 37 36 35 34
33 34 34 34 33 32 32 32 31 31 31 32 32 33 34 34 35 35 36 36 37 38 38 39 38 37 37 37 38 38 37 36 35 35 34 35 35 35 35 35 35 34 34
33 33 34 34 34 33 33 33 33 32 32 32 33 33 33 34 35 35 36 36 36 37 37 36 36 35 35 35 35 35 34 34 34 33 32 32 32 32 32 32 32 32 32
33 33 33 33 34 34 33 33 33 33 33 33 33 32 33 33 33 34 35 35 35 35 35 35 34 33 33 33 32 32 31 31 32 31 31 31 31 31 31 31 30 30 29
32 32 32 33 33 33 33 33 33 33 33 33 33 33 32 32 33 33 34 33 33 33 32 32 31 31 31 31 31 31 30 30 30 30 30 30 31 30 30 29 29 28 27
30 31 32 32 32 32 33 33 33 33 33 33 33 33 33 32 32 32 31 31 31 31 31 30 29 30 30 30 29 29 29 29 30 30 29 30 29 29 28 27 26 25 24
28 29 30 31 31 32 32 32 33 33 33 33 33 33 32 32 31 30 29 29 29 29 28 28 28 28 28 28 28 27 28 28 29 29 28 28 27 27 26 24 23 23 22

GEFSMW_500_meanwind_216.txt.gz
Wind_Speed
39 38 37 37 36 35 34 34 34 34 34 34 34 34 33 33 33 33 33 33 33 33 33 33 34 34 34 35 35 35 36 37 37 38 38 39 39 40 41 42 43 44 45
39 38 38 37 36 35 35 35 34 34 34 34 34 34 33 33 33 33 33 33 33 33 34 34 35 35 35 35 36 36 37 38 39 39 40 40 40 40 41 42 44 45 46
39 39 38 38 37 36 36 36 35 34 34 34 34 34 33 33 33 33 33 33 34 34 35 35 35 36 36 36 37 37 38 39 40 41 41 41 41 41 41 43 44 46 47
39 39 39 38 37 37 36 36 36 35 34 34 34 34 33 33 33 33 33 34 35 35 35 35 36 36 37 37 38 39 40 40 41 41 42 42 43 43 43 43 45 46 47
39 39 39 38 38 38 37 36 36 35 35 34 33 33 33 33 33 34 34 34 35 35 36 36 36 37 37 38 39 40 41 41 42 42 42 42 43 44 45 45 44 45 47
39 39 39 39 38 38 38 37 36 35 35 34 34 33 33 33 34 34 34 35 35 36 36 36 37 37 38 38 39 40 41 41 41 42 42 43 44 45 46 46 45 46 46
38 38 38 38 38 38 37 36 36 35 35 35 34 33 33 33 34 34 35 36 36 36 36 36 37 38 38 39 39 40 40 40 40 41 42 43 44 45 46 47 47 46 46
37 37 37 37 38 38 37 36 35 35 35 35 34 34 33 34 34 35 36 36 36 36 36 37 37 38 38 39 39 39 39 40 41 42 43 44 45 46 47 48 48 48 46
37 37 37 37 37 38 37 36 36 36 35 35 35 34 34 34 35 36 36 36 36 36 36 37 37 38 38 38 38 39 40 41 42 43 44 45 46 46 48 49 49 49 49
37 37 37 37 37 37 37 36 36 36 35 35 35 35 35 35 35 35 35 35 36 36 36 36 37 37 37 38 39 40 41 42 43 44 45 46 46 47 48 49 49 50 51
37 37 37 37 37 37 37 37 36 36 36 36 36 36 36 35 35 34 34 34 35 35 36 37 37 38 38 39 40 41 42 42 43 44 45 46 46 46 48 49 50 50 51
36 36 36 37 37 37 37 37 37 37 37 37 36 36 35 35 35 34 34 34 35 35 36 36 37 38 38 39 40 40 41 43 43 44 45 45 46 47 48 49 49 50 50
35 35 36 37 37 38 38 37 37 37 37 37 37 36 36 35 35 36 36 35 35 36 36 37 37 38 38 39 39 40 41 42 43 44 45 45 46 47 48 48 49 49 50
34 35 35 36 37 37 38 37 37 37 37 37 37 36 36 36 36 36 36 36 36 36 37 37 38 39 39 39 40 40 41 42 43 44 45 46 47 46 46 47 48 49 49
35 35 35 36 36 37 38 37 37 37 37 37 36 36 36 36 36 36 36 36 36 36 37 37 38 38 38 39 39 40 42 42 43 44 46 46 45 45 46 46 47 48 48
35 36 35 35 36 37 37 37 37 37 37 37 36 36 36 36 36 37 37 37 37 37 37 37 37 38 38 39 40 41 42 43 44 45 45 44 44 44 45 46 47 47 46
35 36 36 35 35 36 36 36 37 37 37 37 36 36 37 37 37 36 36 36 37 37 37 37 37 38 39 40 41 42 42 43 44 44 43 42 43 44 44 45 44 44 44
34 35 35 35 35 35 35 36 36 36 36 36 37 37 37 37 37 37 37 37 37 38 38 38 38 39 40 41 42 42 43 44 43 42 42 42 43 43 43 42 42 42 42
34 35 35 35 35 35 35 35 35 36 36 36 36 37 36 36 36 36 37 37 38 38 38 38 39 40 40 41 42 43 43 42 42 42 42 43 43 42 42 42 41 41 39
33 34 34 35 36 35 35 35 34 35 35 35 36 36 36 36 36 36 37 37 38 38 38 39 39 40 40 41 41 42 42 41 41 41 42 42 41 41 41 41 40 39 37
33 33 33 34 34 35 35 35 34 34 35 35 36 36 36 36 36 36 36 37 37 38 38 38 39 39 40 40 41 41 40 40 40 39 39 39 39 39 39 39 38 37 36
32 33 33 33 34 34 34 34 34 34 34 35 35 35 35 35 35 36 36 36 37 37 38 38 38 38 39 39 39 39 38 38 38 38 38 37 37 37 37 36 36 35 34
33 33 33 33 33 34 34 34 34 34 34 34 34 34 34 34 35 35 36 36 37 37 37 37 37 38 38 38 37 37 37 36 36 36 36 35 35 35 34 34 34 33 32
33 33 34 34 33 34 34 35 34 34 34 34 34 33 33 34 34 34 35 35 36 36 36 36 37 37 36 36 36 35 35 35 35 34 33 32 33 33 33 32 32 31 31
32 32 34 35 34 34 34 34 35 35 34 34 34 34 34 33 34 34 34 34 34 34 34 35 35 34 34 34 34 34 33 33 33 32 31 31 32 32 31 31 30 29 29
31 31 32 33 34 34 34 34 34 35 34 34 34 34 34 34 34 34 34 33 33 32 32 32 32 32 32 32 32 32 31 31 30 30 30 31 31 31 29 28 27 28 27

GEFSMW_500_meanwind_222.txt.gz
Wind_Speed
41 41 40 40 40 39 39 39 38 37 37 36 36 36 35 34 34 34 33 33 33 33 34 33 33 33 33 33 33 34 34 34 34 35 36 36 37 37 38 38 39 39 39
41 41 41 40 40 39 39 39 38 38 37 37 36 35 35 34 34 33 32 33 33 33 33 33 33 33 33 33 33 34 34 35 35 36 36 37 37 38 38 39 39 40 40
40 40 41 41 40 39 39 39 38 38 38 37 36 35 35 34 34 33 33 32 33 33 33 33 32 33 33 33 34 35 35 35 36 37 37 38 38 38 38 38 39 40 41
40 40 40 40 40 40 39 39 39 39 38 38 37 35 35 34 34 33 32 32 32 32 32 32 32 33 33 34 35 36 36 37 37 38 38 39 40 39 39 39 40 40 41
39 39 39 39 40 40 40 39 39 38 38 37 36 35 35 34 34 33 32 32 31 31 32 32 32 33 34 34 35 35 36 36 36 37 37 38 39 39 40 40 40 41 42
39 39 39 39 39 39 39 39 39 38 38 37 36 35 35 34 34 33 33 33 32 32 32 32 32 32 32 33 33 34 34 35 35 36 37 37 38 39 40 41 41 42 43
39 38 39 39 39 39 39 39 39 38 38 38 37 36 35 35 34 33 33 33 33 32 32 31 31 32 32 32 33 34 35 35 36 37 38 38 39 40 41 42 43 43 44
38 38 38 38 39 38 38 38 39 38 37 38 37 36 35 35 34 34 33 33 32 32 32 32 33 33 33 34 34 35 36 37 37 38 38 39 40 41 42 43 44 44 44
38 38 39 38 38 38 38 38 38 38 37 37 38 37 36 35 35 34 33 33 33 33 33 33 33 34 34 34 35 36 37 37 38 39 40 41 41 42 43 44 45 46 46
37 38 38 38 38 38 37 37 38 38 38 37 38 38 37 36 35 34 34 34 34 34 34 34 34 35 35 35 36 37 37 38 39 40 41 41 42 43 44 45 46 47 48
36 37 38 38 38 38 38 38 38 38 38 38 37 37 37 36 36 35 35 35 35 35 35 35 36 36 36 36 37 38 38 39 40 41 41 42 43 43 44 46 47 48 49
35 36 37 37 38 38 38 38 37 37 38 38 38 37 37 37 36 35 36 35 35 36 36 36 36 37 37 37 38 39 40 40 41 42 42 42 43 44 45 46 47 48 49
35 35 36 37 37 37 37 37 37 37 38 38 38 38 37 37 36 36 36 36 36 36 36 36 36 37 38 38 39 40 41 41 42 42 42 43 44 45 46 47 48 48 48
34 34 35 36 36 36 37 37 37 38 38 38 38 38 38 37 37 37 37 37 37 36 37 37 37 38 39 39 40 41 41 41 42 42 42 43 44 45 46 47 48 48 48
35 35 35 35 37 37 37 37 37 38 38 38 39 39 39 38 38 38 38 38 37 37 37 37 38 39 39 40 40 41 41 42 41 41 42 43 44 45 46 46 47 47 47
33 35 35 35 36 36 36 36 37 37 38 38 39 39 39 39 39 38 39 38 38 38 38 38 39 39 39 40 41 41 41 41 41 42 43 43 44 45 45 45 46 47 47
33 33 34 35 35 36 36 36 36 37 37 38 38 39 39 39 39 38 38 39 39 39 38 38 39 39 40 40 41 41 41 41 42 42 43 43 44 44 45 45 45 46 46
33 33 33 34 35 35 36 36 36 36 37 38 38 38 38 38 39 38 38 38 38 38 39 39 39 40 40 41 41 41 41 42 42 42 43 43 43 43 44 44 44 45 45
32 32 33 33 34 35 35 35 35 35 36 37 37 38 38 38 38 38 38 38 38 38 39 39 39 40 41 41 41 41 41 41 41 42 42 42 42 42 42 43 43 43 42
31 31 32 33 34 35 35 35 35 35 35 36 37 37 37 38 38 38 38 38 38 38 38 39 39 39 40 41 41 41 41 41 41 41 41 41 41 41 41 41 41 41 40
31 31 32 33 34 35 35 35 34 34 34 35 35 36 37 37 38 38 38 38 38 38 38 38 39 39 39 40 40 40 40 40 39 40 40 40 40 40 39 39 38 37 36
31 31 32 32 33 34 35 35 34 34 34 33 34 35 36 36 36 37 37 37 37 38 38 38 38 38 39 39 39 39 38 38 37 37 37 37 38 37 36 35 35 34 35
30 31 31 32 32 33 33 34 34 33 33 33 33 33 35 35 36 36 36 36 36 36 37 37 37 38 38 38 38 37 36 36 35 35 34 34 35 34 34 34 33 34 34
29 29 30 30 31 32 32 33 33 33 32 32 32 33 33 34 35 35 35 35 35 35 36 36 37 37 37 36 36 35 34 34 33 32 32 32 32 32 32 32 32 32 32
28 29 29 30 31 31 31 31 31 32 32 32 32 32 32 33 33 34 34 34 35 35 35 35 35 35 35 34 33 32 32 31 31 31 31 30 30 30 31 31 30 30 30
27 28 29 29 29 30 30 30 31 31 31 32 32 32 32 32 32 33 33 33 33 33 34 34 33 33 32 31 31 30 30 29 29 29 29 28 28 29 29 29 28 28 28

GEFSMW_500_meanwind_228.txt.gz
Wind_Speed
43 42 41 41 41 41 41 41 41 40 39 39 38 37 36 36 36 36 35 36 35 35 34 34 33 33 32 31 31 31 31 31 31 32 32 33 33 34 34 35 35 36 36
43 42 41 41 41 41 41 41 41 41 40 39 38 38 37 37 36 35 35 35 35 35 34 34 33 32 32 31 31 31 31 32 31 31 32 32 33 33 34 35 35 36 37
42 42 42 41 40 40 40 41 41 41 40 39 39 38 37 37 36 35 35 35 35 35 34 33 32 32 32 32 32 32 31 32 32 33 33 34 34 34 34 35 36 37 38
43 42 42 41 41 40 40 41 40 40 39 39 39 38 38 37 36 36 35 35 35 34 33 33 33 32 32 32 31 31 32 32 33 33 34 35 36 36 35 36 37 38 39
43 42 42 41 42 41 41 40 41 40 40 39 39 39 38 37 36 36 36 35 35 34 33 33 33 32 32 32 32 32 33 33 34 34 35 35 36 37 38 37 38 39 41
43 43 43 42 42 42 42 40 41 41 40 40 39 39 39 38 37 36 36 36 35 35 34 34 33 33 33 33 33 33 33 34 35 35 36 36 37 38 39 39 40 41 41
42 42 42 42 42 42 42 41 40 40 40 40 40 39 39 39 37 36 37 37 36 36 35 35 34 34 34 34 34 34 34 35 36 36 37 37 38 39 40 41 42 42 42
40 41 41 42 41 41 41 41 41 41 41 40 39 38 38 38 39 38 37 37 37 36 36 36 35 34 34 34 35 35 35 36 36 37 37 38 39 40 42 42 43 43 43
40 40 40 41 41 41 41 40 40 40 40 39 39 38 38 39 39 38 38 37 37 37 36 35 35 35 35 35 36 36 36 37 37 38 38 39 40 41 43 43 45 45 45
39 39 40 40 40 40 40 40 40 39 40 39 39 38 39 39 39 39 38 38 37 37 36 36 35 35 35 35 36 36 37 37 37 38 39 40 41 42 43 44 45 46 47
37 38 39 39 39 39 39 40 39 39 39 39 39 39 39 39 40 40 39 38 37 36 36 36 36 36 36 36 37 37 37 37 38 38 39 40 41 43 44 45 46 47 48
37 37 37 38 39 39 39 39 40 39 39 39 39 39 39 39 40 40 39 39 38 37 37 37 37 37 36 37 38 38 38 38 38 39 40 41 42 44 44 45 47 48 49
36 37 37 37 38 39 39 39 40 40 39 39 39 39 39 39 39 39 39 39 38 37 37 37 37 37 37 38 38 38 38 38 39 40 41 42 43 44 45 46 47 48 49
35 35 36 37 38 39 39 39 39 40 40 39 39 39 39 39 39 39 39 39 39 38 37 38 37 37 38 38 38 38 38 39 39 40 42 43 44 44 45 46 47 48 49
34 34 35 36 38 39 39 39 39 40 39 39 39 38 38 38 38 38 38 38 38 38 38 37 37 37 38 38 38 38 38 39 40 40 42 43 44 45 46 47 47 48 49
33 33 34 35 36 37 37 38 39 39 39 38 38 38 38 38 38 38 38 38 38 38 39 38 38 38 38 38 37 38 39 39 40 40 42 42 43 44 45 46 46 47 47
33 33 33 34 34 34 35 36 37 37 37 37 37 37 38 38 39 39 38 38 38 38 38 38 38 38 38 38 38 38 39 39 40 40 41 42 43 43 44 44 45 46 45
33 33 33 33 33 34 34 35 36 37 37 37 37 37 37 37 37 37 37 37 37 38 38 38 38 38 38 38 39 39 39 39 39 40 41 42 42 42 43 43 44 43 42
33 33 33 33 33 34 34 34 35 36 36 36 36 36 36 36 37 37 37 36 37 37 37 37 37 37 37 38 38 38 38 38 39 39 40 41 41 42 42 42 42 41 41
32 33 32 32 33 34 34 34 34 34 34 34 34 34 35 35 35 36 36 36 36 36 36 36 36 37 37 37 37 38 38 38 38 39 39 40 41 41 40 40 39 40 40
30 31 32 32 32 33 34 33 33 33 33 33 33 34 34 34 35 35 35 35 35 35 36 36 36 36 37 37 37 37 37 38 38 38 39 39 39 38 38 38 38 39 39
29 30 31 32 31 32 32 32 32 32 33 33 34 34 34 34 34 34 34 35 35 35 36 36 36 36 36 36 36 36 36 37 37 38 38 38 37 37 37 37 38 38 38
30 30 30 31 31 31 31 31 31 32 32 33 33 32 32 33 33 33 34 34 34 35 35 35 35 35 35 35 35 36 36 36 37 37 37 36 36 36 36 36 37 37 36
29 30 30 30 30 32 32 32 31 31 32 32 32 32 32 32 32 32 33 33 34 34 35 35 34 34 34 35 35 35 35 35 36 35 35 34 34 34 34 34 34 34 33
28 29 30 30 30 30 31 32 32 31 31 32 32 32 32 32 31 31 31 32 33 33 34 34 34 34 34 34 34 34 34 34 33 33 32 32 32 32 31 31 31 31 29
28 28 29 29 29 29 30 30 30 31 31 32 32 32 31 31 31 31 31 32 32 33 33 33 33 33 33 33 33 33 32 32 31 30 29 29 29 29 29 29 28 28 27

GEFSMW_500_meanwind_234.txt.gz
Wind_Speed
42 42 42 41 41 41 41 41 41 41 41 41 40 40 39 39 39 38 37 37 36 35 35 35 35 34 34 33 33 33 33 33 33 33 33 33 33 33 33 34 34 34 34
42 42 42 41 41 41 41 40 41 41 41 40 40 40 39 39 39 38 38 37 37 36 36 36 35 35 34 34 33 33 33 34 33 33 33 33 33 33 34 34 34 34 35
43 42 42 42 41 40 40 40 41 40 40 40 40 40 39 39 39 39 38 38 37 36 37 36 35 34 34 34 33 33 33 33 33 33 33 34 34 34 33 34 35 35 36
43 42 42 42 41 41 40 40 40 40 40 41 41 40 39 39 39 39 39 39 38 37 36 36 36 35 34 33 33 33 33 33 33 34 34 35 35 35 35 34 35 35 36
41 41 41 41 41 41 41 40 40 40 40 40 41 41 39 38 39 39 39 38 37 37 37 36 36 36 35 34 33 33 33 33 33 34 35 35 36 36 36 35 35 36 37
41 41 41 41 41 41 40 40 40 39 39 39 40 41 40 38 38 39 38 38 37 37 37 37 37 36 36 35 34 34 34 34 34 34 34 35 36 36 37 36 36 37 38
41 41 41 41 40 40 40 40 40 40 39 39 39 40 40 40 39 39 39 38 38 38 37 36 36 36 36 35 35 35 34 34 34 35 35 36 36 36 36 37 38 38 39
40 41 41 40 40 39 40 40 41 41 40 40 40 40 40 40 40 39 39 38 39 38 37 36 36 35 36 36 36 35 34 35 35 35 36 36 36 36 37 38 39 40 40
40 40 40 40 39 39 40 40 40 41 40 40 40 40 40 39 38 38 38 38 38 37 37 35 35 36 36 36 36 35 35 35 35 36 36 36 36 36 37 39 40 41 42
39 41 41 40 40 40 40 41 41 41 41 40 40 40 40 40 39 38 37 37 37 37 37 35 35 36 36 35 35 35 35 35 35 36 36 36 36 37 38 39 41 42 43
37 39 39 40 40 40 41 41 41 41 42 41 40 39 40 40 38 38 38 38 37 37 37 36 35 35 36 36 35 35 35 35 36 36 37 37 37 38 39 40 41 43 44
34 36 37 38 39 40 41 41 41 41 41 41 40 40 40 40 39 38 38 37 37 37 37 36 35 34 35 35 35 35 36 36 36 37 37 37 37 39 40 41 42 43 44
33 34 36 36 37 38 40 41 40 40 40 40 40 40 40 39 39 38 38 37 36 36 37 36 35 34 35 35 35 35 36 37 37 37 37 37 38 40 41 41 42 43 45
31 32 34 35 36 36 38 39 40 40 39 39 39 39 39 39 38 38 38 38 38 37 37 36 36 35 34 34 35 35 36 36 36 37 37 38 39 40 41 42 43 44 45
30 31 33 35 35 35 36 37 38 39 39 39 39 39 39 39 38 38 38 39 39 39 37 36 36 35 35 35 35 35 35 35 36 37 37 38 40 41 42 43 43 44 46
29 30 31 33 35 35 35 35 36 37 38 39 39 39 39 39 39 39 39 40 40 39 39 38 37 36 35 36 36 36 36 36 37 37 38 39 40 41 42 43 44 45 45
28 29 30 32 34 35 35 35 35 36 37 38 39 40 40 39 39 38 39 39 39 39 38 38 37 36 36 36 36 36 36 37 37 38 39 39 40 41 41 42 43 44 44
27 28 29 31 32 34 35 35 36 36 36 37 37 38 38 38 38 38 37 38 38 38 38 38 37 37 37 37 36 36 36 37 38 38 39 39 40 40 41 41 41 42 43
28 28 29 30 31 33 34 35 35 35 36 37 36 37 37 37 37 38 37 37 37 37 37 37 37 37 37 37 37 36 36 37 37 38 39 39 39 39 40 40 41 41 41
29 28 29 29 30 31 33 33 34 34 35 35 36 36 36 36 36 37 36 36 36 36 36 36 36 36 37 37 37 36 36 36 37 37 38 38 38 39 39 40 40 39 39
29 29 29 30 30 30 31 32 32 33 34 35 35 35 35 35 35 35 36 36 36 36 36 36 36 36 37 37 37 36 36 36 36 36 37 37 37 38 39 39 38 38 38
29 30 30 31 31 30 31 31 32 33 33 34 34 34 34 34 34 34 34 35 35 35 35 35 36 36 36 36 36 36 36 36 35 36 36 36 36 37 37 37 36 37 37
29 30 30 30 31 31 32 32 32 32 32 33 33 33 34 33 33 33 34 34 34 34 34 34 34 34 34 34 35 35 35 35 35 35 35 35 35 35 35 35 35 35 33
27 29 30 30 30 31 31 32 32 31 31 32 32 33 33 33 33 33 33 34 34 35 35 34 34 34 33 33 33 34 34 33 33 33 33 34 34 34 33 32 32 31 29
27 28 29 30 30 31 31 31 32 32 31 31 32 32 32 32 32 32 32 32 33 33 34 34 33 33 33 33 32 32 32 32 33 33 33 32 32 31 30 29 29 27 26
25 27 29 30 31 31 31 31 31 31 31 31 31 31 31 31 31 31 32 32 32 32 32 32 32 32 32 32 32 31 31 32 32 32 31 30 29 28 27 27 26 25 24